<?xml version="1.0" encoding="UTF-8" standalone="no" ?>
<gpx xmlns="http://www.topografix.com/GPX/1/1" xmlns:xsi="http://www.w3.org/2001/XMLSchema-instance" xsi:schemaLocation="http://www.topografix.com/GPX/1/1 http://www.topografix.com/GPX/1/1/gpx.xsd" version="1.1" creator="VisuGPX - https://www.visugpx.com">
  <metadata>
    <name>Pontoise: sur le chemins des pélerins</name>
    <desc><![CDATA[Randonnée de 18km en boucle à partir de la gare de Pontoise.]]></desc>
  </metadata>
  <trk>
    <name><![CDATA[Sur la trace des pélerins_R]]></name>
    <trkseg>
      <trkpt lat="49.04708" lon="2.09543">
        <ele>-125.31</ele>
        <time>2013-12-15T08:47:39Z</time>
      </trkpt>
      <trkpt lat="49.04708" lon="2.09543">
        <ele>-120.51</ele>
        <time>2013-12-15T08:47:40Z</time>
      </trkpt>
      <trkpt lat="49.04708" lon="2.09542">
        <ele>-115.7</ele>
        <time>2013-12-15T08:47:41Z</time>
      </trkpt>
      <trkpt lat="49.04707" lon="2.09542">
        <ele>-110.89</ele>
        <time>2013-12-15T08:47:42Z</time>
      </trkpt>
      <trkpt lat="49.04708" lon="2.09542">
        <ele>-97.92</ele>
        <time>2013-12-15T08:47:45Z</time>
      </trkpt>
      <trkpt lat="49.04708" lon="2.09544">
        <ele>-84.46</ele>
        <time>2013-12-15T08:47:48Z</time>
      </trkpt>
      <trkpt lat="49.04708" lon="2.09544">
        <ele>-80.61</ele>
        <time>2013-12-15T08:47:49Z</time>
      </trkpt>
      <trkpt lat="49.04708" lon="2.09545">
        <ele>-77.25</ele>
        <time>2013-12-15T08:47:50Z</time>
      </trkpt>
      <trkpt lat="49.04709" lon="2.09545">
        <ele>-73.88</ele>
        <time>2013-12-15T08:47:51Z</time>
      </trkpt>
      <trkpt lat="49.04709" lon="2.09545">
        <ele>-70.52</ele>
        <time>2013-12-15T08:47:52Z</time>
      </trkpt>
      <trkpt lat="49.04708" lon="2.09545">
        <ele>-67.64</ele>
        <time>2013-12-15T08:47:53Z</time>
      </trkpt>
      <trkpt lat="49.04708" lon="2.09545">
        <ele>-61.87</ele>
        <time>2013-12-15T08:47:55Z</time>
      </trkpt>
      <trkpt lat="49.04708" lon="2.09545">
        <ele>-53.22</ele>
        <time>2013-12-15T08:47:59Z</time>
      </trkpt>
      <trkpt lat="49.04708" lon="2.09545">
        <ele>-47.93</ele>
        <time>2013-12-15T08:48:01Z</time>
      </trkpt>
      <trkpt lat="49.04708" lon="2.09544">
        <ele>-43.6</ele>
        <time>2013-12-15T08:48:03Z</time>
      </trkpt>
      <trkpt lat="49.04708" lon="2.09544">
        <ele>-38.8</ele>
        <time>2013-12-15T08:48:05Z</time>
      </trkpt>
      <trkpt lat="49.04708" lon="2.09544">
        <ele>-34.95</ele>
        <time>2013-12-15T08:48:07Z</time>
      </trkpt>
      <trkpt lat="49.04709" lon="2.09545">
        <ele>-27.26</ele>
        <time>2013-12-15T08:48:11Z</time>
      </trkpt>
      <trkpt lat="49.04709" lon="2.09545">
        <ele>-23.9</ele>
        <time>2013-12-15T08:48:13Z</time>
      </trkpt>
      <trkpt lat="49.04709" lon="2.09545">
        <ele>-20.53</ele>
        <time>2013-12-15T08:48:15Z</time>
      </trkpt>
      <trkpt lat="49.04709" lon="2.09545">
        <ele>-17.65</ele>
        <time>2013-12-15T08:48:17Z</time>
      </trkpt>
      <trkpt lat="49.04711" lon="2.09546">
        <ele>26.57</ele>
        <time>2013-12-15T08:53:06Z</time>
      </trkpt>
      <trkpt lat="49.0471" lon="2.09545">
        <ele>26.57</ele>
        <time>2013-12-15T08:53:34Z</time>
      </trkpt>
      <trkpt lat="49.04713" lon="2.09545">
        <ele>26.57</ele>
        <time>2013-12-15T08:54:04Z</time>
      </trkpt>
      <trkpt lat="49.04719" lon="2.09526">
        <ele>26.09</ele>
        <time>2013-12-15T08:54:16Z</time>
      </trkpt>
      <trkpt lat="49.04723" lon="2.09525">
        <ele>26.57</ele>
        <time>2013-12-15T08:54:30Z</time>
      </trkpt>
      <trkpt lat="49.0473" lon="2.09526">
        <ele>26.09</ele>
        <time>2013-12-15T08:54:37Z</time>
      </trkpt>
      <trkpt lat="49.04734" lon="2.09523">
        <ele>26.09</ele>
        <time>2013-12-15T08:54:41Z</time>
      </trkpt>
      <trkpt lat="49.04743" lon="2.09529">
        <ele>26.09</ele>
        <time>2013-12-15T08:54:51Z</time>
      </trkpt>
      <trkpt lat="49.04754" lon="2.09535">
        <ele>25.61</ele>
        <time>2013-12-15T08:55:04Z</time>
      </trkpt>
      <trkpt lat="49.04756" lon="2.09535">
        <ele>25.61</ele>
        <time>2013-12-15T08:55:06Z</time>
      </trkpt>
      <trkpt lat="49.0476" lon="2.09536">
        <ele>25.61</ele>
        <time>2013-12-15T08:55:09Z</time>
      </trkpt>
      <trkpt lat="49.04766" lon="2.09539">
        <ele>25.61</ele>
        <time>2013-12-15T08:55:17Z</time>
      </trkpt>
      <trkpt lat="49.04774" lon="2.09544">
        <ele>25.61</ele>
        <time>2013-12-15T08:55:25Z</time>
      </trkpt>
      <trkpt lat="49.04786" lon="2.0955">
        <ele>25.61</ele>
        <time>2013-12-15T08:55:38Z</time>
      </trkpt>
      <trkpt lat="49.0479" lon="2.09544">
        <ele>25.61</ele>
        <time>2013-12-15T08:55:41Z</time>
      </trkpt>
      <trkpt lat="49.04804" lon="2.09521">
        <ele>26.09</ele>
        <time>2013-12-15T08:55:57Z</time>
      </trkpt>
      <trkpt lat="49.04805" lon="2.09519">
        <ele>25.61</ele>
        <time>2013-12-15T08:55:58Z</time>
      </trkpt>
      <trkpt lat="49.04807" lon="2.09506">
        <ele>26.09</ele>
        <time>2013-12-15T08:56:13Z</time>
      </trkpt>
      <trkpt lat="49.04809" lon="2.09503">
        <ele>25.61</ele>
        <time>2013-12-15T08:56:31Z</time>
      </trkpt>
      <trkpt lat="49.04818" lon="2.09504">
        <ele>26.09</ele>
        <time>2013-12-15T08:56:37Z</time>
      </trkpt>
      <trkpt lat="49.04821" lon="2.09498">
        <ele>25.61</ele>
        <time>2013-12-15T08:56:41Z</time>
      </trkpt>
      <trkpt lat="49.04825" lon="2.09495">
        <ele>26.09</ele>
        <time>2013-12-15T08:56:49Z</time>
      </trkpt>
      <trkpt lat="49.04829" lon="2.09491">
        <ele>26.09</ele>
        <time>2013-12-15T08:56:53Z</time>
      </trkpt>
      <trkpt lat="49.04832" lon="2.09472">
        <ele>26.57</ele>
        <time>2013-12-15T08:57:06Z</time>
      </trkpt>
      <trkpt lat="49.04837" lon="2.09459">
        <ele>26.57</ele>
        <time>2013-12-15T08:57:18Z</time>
      </trkpt>
      <trkpt lat="49.04856" lon="2.09466">
        <ele>27.05</ele>
        <time>2013-12-15T08:57:32Z</time>
      </trkpt>
      <trkpt lat="49.04861" lon="2.0946">
        <ele>27.05</ele>
        <time>2013-12-15T08:57:39Z</time>
      </trkpt>
      <trkpt lat="49.04873" lon="2.0944">
        <ele>27.05</ele>
        <time>2013-12-15T08:57:54Z</time>
      </trkpt>
      <trkpt lat="49.04882" lon="2.09422">
        <ele>27.05</ele>
        <time>2013-12-15T08:58:10Z</time>
      </trkpt>
      <trkpt lat="49.04891" lon="2.09406">
        <ele>27.05</ele>
        <time>2013-12-15T08:58:26Z</time>
      </trkpt>
      <trkpt lat="49.04898" lon="2.09393">
        <ele>27.53</ele>
        <time>2013-12-15T08:58:36Z</time>
      </trkpt>
      <trkpt lat="49.04913" lon="2.09374">
        <ele>28.5</ele>
        <time>2013-12-15T08:58:51Z</time>
      </trkpt>
      <trkpt lat="49.04925" lon="2.09359">
        <ele>28.5</ele>
        <time>2013-12-15T08:59:08Z</time>
      </trkpt>
      <trkpt lat="49.04931" lon="2.0936">
        <ele>28.98</ele>
        <time>2013-12-15T08:59:13Z</time>
      </trkpt>
      <trkpt lat="49.04935" lon="2.09354">
        <ele>28.98</ele>
        <time>2013-12-15T08:59:29Z</time>
      </trkpt>
      <trkpt lat="49.04937" lon="2.09354">
        <ele>28.98</ele>
        <time>2013-12-15T08:59:44Z</time>
      </trkpt>
      <trkpt lat="49.04937" lon="2.09358">
        <ele>28.98</ele>
        <time>2013-12-15T09:00:02Z</time>
      </trkpt>
      <trkpt lat="49.04941" lon="2.0936">
        <ele>28.98</ele>
        <time>2013-12-15T09:00:06Z</time>
      </trkpt>
      <trkpt lat="49.04954" lon="2.09364">
        <ele>31.86</ele>
        <time>2013-12-15T09:00:24Z</time>
      </trkpt>
      <trkpt lat="49.04965" lon="2.09368">
        <ele>34.26</ele>
        <time>2013-12-15T09:00:38Z</time>
      </trkpt>
      <trkpt lat="49.04972" lon="2.09374">
        <ele>36.19</ele>
        <time>2013-12-15T09:00:52Z</time>
      </trkpt>
      <trkpt lat="49.04973" lon="2.09372">
        <ele>36.67</ele>
        <time>2013-12-15T09:00:54Z</time>
      </trkpt>
      <trkpt lat="49.04984" lon="2.09379">
        <ele>39.07</ele>
        <time>2013-12-15T09:01:07Z</time>
      </trkpt>
      <trkpt lat="49.04987" lon="2.09388">
        <ele>39.55</ele>
        <time>2013-12-15T09:01:13Z</time>
      </trkpt>
      <trkpt lat="49.04993" lon="2.09418">
        <ele>41.95</ele>
        <time>2013-12-15T09:01:31Z</time>
      </trkpt>
      <trkpt lat="49.04993" lon="2.09419">
        <ele>41.95</ele>
        <time>2013-12-15T09:01:32Z</time>
      </trkpt>
      <trkpt lat="49.05002" lon="2.09433">
        <ele>42.92</ele>
        <time>2013-12-15T09:01:45Z</time>
      </trkpt>
      <trkpt lat="49.05007" lon="2.09442">
        <ele>44.36</ele>
        <time>2013-12-15T09:02:02Z</time>
      </trkpt>
      <trkpt lat="49.0501" lon="2.09445">
        <ele>43.4</ele>
        <time>2013-12-15T09:02:13Z</time>
      </trkpt>
      <trkpt lat="49.05013" lon="2.09442">
        <ele>45.32</ele>
        <time>2013-12-15T09:02:24Z</time>
      </trkpt>
      <trkpt lat="49.05026" lon="2.09435">
        <ele>47.24</ele>
        <time>2013-12-15T09:02:41Z</time>
      </trkpt>
      <trkpt lat="49.05035" lon="2.09427">
        <ele>49.16</ele>
        <time>2013-12-15T09:02:57Z</time>
      </trkpt>
      <trkpt lat="49.05052" lon="2.09414">
        <ele>51.09</ele>
        <time>2013-12-15T09:03:13Z</time>
      </trkpt>
      <trkpt lat="49.05054" lon="2.09416">
        <ele>51.09</ele>
        <time>2013-12-15T09:03:16Z</time>
      </trkpt>
      <trkpt lat="49.05057" lon="2.09424">
        <ele>51.57</ele>
        <time>2013-12-15T09:03:21Z</time>
      </trkpt>
      <trkpt lat="49.05066" lon="2.09436">
        <ele>51.57</ele>
        <time>2013-12-15T09:03:36Z</time>
      </trkpt>
      <trkpt lat="49.05067" lon="2.0944">
        <ele>51.57</ele>
        <time>2013-12-15T09:03:39Z</time>
      </trkpt>
      <trkpt lat="49.05075" lon="2.09457">
        <ele>52.05</ele>
        <time>2013-12-15T09:03:54Z</time>
      </trkpt>
      <trkpt lat="49.05082" lon="2.09474">
        <ele>53.01</ele>
        <time>2013-12-15T09:04:08Z</time>
      </trkpt>
      <trkpt lat="49.05089" lon="2.09491">
        <ele>53.01</ele>
        <time>2013-12-15T09:04:24Z</time>
      </trkpt>
      <trkpt lat="49.05089" lon="2.09492">
        <ele>53.01</ele>
        <time>2013-12-15T09:04:25Z</time>
      </trkpt>
      <trkpt lat="49.05092" lon="2.09498">
        <ele>53.49</ele>
        <time>2013-12-15T09:04:29Z</time>
      </trkpt>
      <trkpt lat="49.05095" lon="2.09503">
        <ele>53.49</ele>
        <time>2013-12-15T09:04:33Z</time>
      </trkpt>
      <trkpt lat="49.05102" lon="2.09523">
        <ele>53.97</ele>
        <time>2013-12-15T09:04:48Z</time>
      </trkpt>
      <trkpt lat="49.05109" lon="2.09541">
        <ele>54.93</ele>
        <time>2013-12-15T09:05:01Z</time>
      </trkpt>
      <trkpt lat="49.05116" lon="2.09562">
        <ele>54.93</ele>
        <time>2013-12-15T09:05:17Z</time>
      </trkpt>
      <trkpt lat="49.05127" lon="2.09576">
        <ele>56.37</ele>
        <time>2013-12-15T09:05:32Z</time>
      </trkpt>
      <trkpt lat="49.05138" lon="2.09599">
        <ele>57.34</ele>
        <time>2013-12-15T09:05:51Z</time>
      </trkpt>
      <trkpt lat="49.05146" lon="2.09618">
        <ele>57.82</ele>
        <time>2013-12-15T09:06:07Z</time>
      </trkpt>
      <trkpt lat="49.05152" lon="2.09632">
        <ele>58.78</ele>
        <time>2013-12-15T09:06:19Z</time>
      </trkpt>
      <trkpt lat="49.05159" lon="2.09639">
        <ele>59.26</ele>
        <time>2013-12-15T09:06:28Z</time>
      </trkpt>
      <trkpt lat="49.05164" lon="2.09649">
        <ele>59.74</ele>
        <time>2013-12-15T09:06:36Z</time>
      </trkpt>
      <trkpt lat="49.05168" lon="2.0966">
        <ele>60.7</ele>
        <time>2013-12-15T09:06:46Z</time>
      </trkpt>
      <trkpt lat="49.05168" lon="2.09664">
        <ele>60.22</ele>
        <time>2013-12-15T09:06:48Z</time>
      </trkpt>
      <trkpt lat="49.05178" lon="2.09672">
        <ele>60.22</ele>
        <time>2013-12-15T09:07:03Z</time>
      </trkpt>
      <trkpt lat="49.05181" lon="2.09669">
        <ele>59.74</ele>
        <time>2013-12-15T09:07:07Z</time>
      </trkpt>
      <trkpt lat="49.05186" lon="2.09666">
        <ele>60.7</ele>
        <time>2013-12-15T09:07:18Z</time>
      </trkpt>
      <trkpt lat="49.05202" lon="2.0964">
        <ele>61.66</ele>
        <time>2013-12-15T09:07:37Z</time>
      </trkpt>
      <trkpt lat="49.0521" lon="2.09619">
        <ele>63.1</ele>
        <time>2013-12-15T09:07:53Z</time>
      </trkpt>
      <trkpt lat="49.05217" lon="2.09601">
        <ele>64.07</ele>
        <time>2013-12-15T09:08:07Z</time>
      </trkpt>
      <trkpt lat="49.0523" lon="2.09586">
        <ele>65.51</ele>
        <time>2013-12-15T09:08:24Z</time>
      </trkpt>
      <trkpt lat="49.05242" lon="2.0957">
        <ele>66.47</ele>
        <time>2013-12-15T09:08:41Z</time>
      </trkpt>
      <trkpt lat="49.05259" lon="2.09551">
        <ele>67.43</ele>
        <time>2013-12-15T09:08:59Z</time>
      </trkpt>
      <trkpt lat="49.05265" lon="2.09544">
        <ele>68.39</ele>
        <time>2013-12-15T09:09:07Z</time>
      </trkpt>
      <trkpt lat="49.0528" lon="2.09526">
        <ele>69.35</ele>
        <time>2013-12-15T09:09:25Z</time>
      </trkpt>
      <trkpt lat="49.05287" lon="2.09514">
        <ele>69.83</ele>
        <time>2013-12-15T09:09:34Z</time>
      </trkpt>
      <trkpt lat="49.05293" lon="2.09504">
        <ele>70.79</ele>
        <time>2013-12-15T09:09:49Z</time>
      </trkpt>
      <trkpt lat="49.05296" lon="2.09503">
        <ele>71.27</ele>
        <time>2013-12-15T09:10:00Z</time>
      </trkpt>
      <trkpt lat="49.053" lon="2.09498">
        <ele>70.79</ele>
        <time>2013-12-15T09:10:13Z</time>
      </trkpt>
      <trkpt lat="49.05304" lon="2.09511">
        <ele>70.79</ele>
        <time>2013-12-15T09:10:30Z</time>
      </trkpt>
      <trkpt lat="49.05306" lon="2.09512">
        <ele>70.79</ele>
        <time>2013-12-15T09:10:34Z</time>
      </trkpt>
      <trkpt lat="49.05307" lon="2.09514">
        <ele>70.79</ele>
        <time>2013-12-15T09:10:36Z</time>
      </trkpt>
      <trkpt lat="49.05311" lon="2.09521">
        <ele>71.76</ele>
        <time>2013-12-15T09:10:51Z</time>
      </trkpt>
      <trkpt lat="49.05319" lon="2.09541">
        <ele>72.24</ele>
        <time>2013-12-15T09:11:09Z</time>
      </trkpt>
      <trkpt lat="49.05319" lon="2.09543">
        <ele>73.2</ele>
        <time>2013-12-15T09:12:03Z</time>
      </trkpt>
      <trkpt lat="49.05326" lon="2.09563">
        <ele>73.68</ele>
        <time>2013-12-15T09:12:18Z</time>
      </trkpt>
      <trkpt lat="49.05333" lon="2.09577">
        <ele>73.68</ele>
        <time>2013-12-15T09:12:32Z</time>
      </trkpt>
      <trkpt lat="49.05341" lon="2.09593">
        <ele>74.16</ele>
        <time>2013-12-15T09:12:46Z</time>
      </trkpt>
      <trkpt lat="49.05346" lon="2.0961">
        <ele>74.16</ele>
        <time>2013-12-15T09:13:00Z</time>
      </trkpt>
      <trkpt lat="49.05346" lon="2.09611">
        <ele>74.16</ele>
        <time>2013-12-15T09:13:02Z</time>
      </trkpt>
      <trkpt lat="49.05355" lon="2.09632">
        <ele>74.64</ele>
        <time>2013-12-15T09:13:19Z</time>
      </trkpt>
      <trkpt lat="49.05364" lon="2.09657">
        <ele>74.64</ele>
        <time>2013-12-15T09:13:34Z</time>
      </trkpt>
      <trkpt lat="49.05376" lon="2.09688">
        <ele>74.64</ele>
        <time>2013-12-15T09:13:53Z</time>
      </trkpt>
      <trkpt lat="49.05388" lon="2.09718">
        <ele>73.68</ele>
        <time>2013-12-15T09:14:13Z</time>
      </trkpt>
      <trkpt lat="49.05397" lon="2.0974">
        <ele>73.68</ele>
        <time>2013-12-15T09:14:30Z</time>
      </trkpt>
      <trkpt lat="49.054" lon="2.09745">
        <ele>73.68</ele>
        <time>2013-12-15T09:14:35Z</time>
      </trkpt>
      <trkpt lat="49.05409" lon="2.09748">
        <ele>74.16</ele>
        <time>2013-12-15T09:14:48Z</time>
      </trkpt>
      <trkpt lat="49.05421" lon="2.09748">
        <ele>74.16</ele>
        <time>2013-12-15T09:15:01Z</time>
      </trkpt>
      <trkpt lat="49.05432" lon="2.09743">
        <ele>74.64</ele>
        <time>2013-12-15T09:15:14Z</time>
      </trkpt>
      <trkpt lat="49.05452" lon="2.09735">
        <ele>74.64</ele>
        <time>2013-12-15T09:15:28Z</time>
      </trkpt>
      <trkpt lat="49.05476" lon="2.09737">
        <ele>75.12</ele>
        <time>2013-12-15T09:15:47Z</time>
      </trkpt>
      <trkpt lat="49.05488" lon="2.09738">
        <ele>75.12</ele>
        <time>2013-12-15T09:16:00Z</time>
      </trkpt>
      <trkpt lat="49.05492" lon="2.09741">
        <ele>76.08</ele>
        <time>2013-12-15T09:16:06Z</time>
      </trkpt>
      <trkpt lat="49.05495" lon="2.09742">
        <ele>75.6</ele>
        <time>2013-12-15T09:16:08Z</time>
      </trkpt>
      <trkpt lat="49.05511" lon="2.09748">
        <ele>75.6</ele>
        <time>2013-12-15T09:16:24Z</time>
      </trkpt>
      <trkpt lat="49.05525" lon="2.09761">
        <ele>75.6</ele>
        <time>2013-12-15T09:16:39Z</time>
      </trkpt>
      <trkpt lat="49.05545" lon="2.09763">
        <ele>75.12</ele>
        <time>2013-12-15T09:16:55Z</time>
      </trkpt>
      <trkpt lat="49.05564" lon="2.09771">
        <ele>74.64</ele>
        <time>2013-12-15T09:17:11Z</time>
      </trkpt>
      <trkpt lat="49.05576" lon="2.09775">
        <ele>74.64</ele>
        <time>2013-12-15T09:17:25Z</time>
      </trkpt>
      <trkpt lat="49.05587" lon="2.09781">
        <ele>74.16</ele>
        <time>2013-12-15T09:17:37Z</time>
      </trkpt>
      <trkpt lat="49.05598" lon="2.09786">
        <ele>73.68</ele>
        <time>2013-12-15T09:17:48Z</time>
      </trkpt>
      <trkpt lat="49.05604" lon="2.09791">
        <ele>73.68</ele>
        <time>2013-12-15T09:17:53Z</time>
      </trkpt>
      <trkpt lat="49.05618" lon="2.09795">
        <ele>73.2</ele>
        <time>2013-12-15T09:18:02Z</time>
      </trkpt>
      <trkpt lat="49.05629" lon="2.09795">
        <ele>73.2</ele>
        <time>2013-12-15T09:18:16Z</time>
      </trkpt>
      <trkpt lat="49.05644" lon="2.09805">
        <ele>72.24</ele>
        <time>2013-12-15T09:18:31Z</time>
      </trkpt>
      <trkpt lat="49.05657" lon="2.09813">
        <ele>71.76</ele>
        <time>2013-12-15T09:18:46Z</time>
      </trkpt>
      <trkpt lat="49.05673" lon="2.09816">
        <ele>71.76</ele>
        <time>2013-12-15T09:18:59Z</time>
      </trkpt>
      <trkpt lat="49.05686" lon="2.09822">
        <ele>71.27</ele>
        <time>2013-12-15T09:19:12Z</time>
      </trkpt>
      <trkpt lat="49.05705" lon="2.0983">
        <ele>71.27</ele>
        <time>2013-12-15T09:19:28Z</time>
      </trkpt>
      <trkpt lat="49.0572" lon="2.09836">
        <ele>70.79</ele>
        <time>2013-12-15T09:19:43Z</time>
      </trkpt>
      <trkpt lat="49.05736" lon="2.09844">
        <ele>70.31</ele>
        <time>2013-12-15T09:20:03Z</time>
      </trkpt>
      <trkpt lat="49.05759" lon="2.09854">
        <ele>69.35</ele>
        <time>2013-12-15T09:20:24Z</time>
      </trkpt>
      <trkpt lat="49.05779" lon="2.09857">
        <ele>69.83</ele>
        <time>2013-12-15T09:20:36Z</time>
      </trkpt>
      <trkpt lat="49.05782" lon="2.09856">
        <ele>69.35</ele>
        <time>2013-12-15T09:20:38Z</time>
      </trkpt>
      <trkpt lat="49.05791" lon="2.0986">
        <ele>69.35</ele>
        <time>2013-12-15T09:20:46Z</time>
      </trkpt>
      <trkpt lat="49.05806" lon="2.09858">
        <ele>69.83</ele>
        <time>2013-12-15T09:21:02Z</time>
      </trkpt>
      <trkpt lat="49.05818" lon="2.0986">
        <ele>69.83</ele>
        <time>2013-12-15T09:21:17Z</time>
      </trkpt>
      <trkpt lat="49.05835" lon="2.09858">
        <ele>70.31</ele>
        <time>2013-12-15T09:21:36Z</time>
      </trkpt>
      <trkpt lat="49.05859" lon="2.09859">
        <ele>70.79</ele>
        <time>2013-12-15T09:21:55Z</time>
      </trkpt>
      <trkpt lat="49.05878" lon="2.09856">
        <ele>70.79</ele>
        <time>2013-12-15T09:22:11Z</time>
      </trkpt>
      <trkpt lat="49.05899" lon="2.09859">
        <ele>71.27</ele>
        <time>2013-12-15T09:22:27Z</time>
      </trkpt>
      <trkpt lat="49.05917" lon="2.0986">
        <ele>71.27</ele>
        <time>2013-12-15T09:22:45Z</time>
      </trkpt>
      <trkpt lat="49.05936" lon="2.09861">
        <ele>72.24</ele>
        <time>2013-12-15T09:23:04Z</time>
      </trkpt>
      <trkpt lat="49.05955" lon="2.09855">
        <ele>72.24</ele>
        <time>2013-12-15T09:23:22Z</time>
      </trkpt>
      <trkpt lat="49.05974" lon="2.09857">
        <ele>72.72</ele>
        <time>2013-12-15T09:23:42Z</time>
      </trkpt>
      <trkpt lat="49.05993" lon="2.09854">
        <ele>73.2</ele>
        <time>2013-12-15T09:23:59Z</time>
      </trkpt>
      <trkpt lat="49.06007" lon="2.09853">
        <ele>73.68</ele>
        <time>2013-12-15T09:24:12Z</time>
      </trkpt>
      <trkpt lat="49.06018" lon="2.09852">
        <ele>74.16</ele>
        <time>2013-12-15T09:24:26Z</time>
      </trkpt>
      <trkpt lat="49.06025" lon="2.09854">
        <ele>73.68</ele>
        <time>2013-12-15T09:24:32Z</time>
      </trkpt>
      <trkpt lat="49.06042" lon="2.09862">
        <ele>73.68</ele>
        <time>2013-12-15T09:24:49Z</time>
      </trkpt>
      <trkpt lat="49.0606" lon="2.09869">
        <ele>73.2</ele>
        <time>2013-12-15T09:25:05Z</time>
      </trkpt>
      <trkpt lat="49.06061" lon="2.0987">
        <ele>73.2</ele>
        <time>2013-12-15T09:25:06Z</time>
      </trkpt>
      <trkpt lat="49.06071" lon="2.09866">
        <ele>73.2</ele>
        <time>2013-12-15T09:25:15Z</time>
      </trkpt>
      <trkpt lat="49.06083" lon="2.09867">
        <ele>72.24</ele>
        <time>2013-12-15T09:25:26Z</time>
      </trkpt>
      <trkpt lat="49.06101" lon="2.09871">
        <ele>71.76</ele>
        <time>2013-12-15T09:25:43Z</time>
      </trkpt>
      <trkpt lat="49.06118" lon="2.09874">
        <ele>71.27</ele>
        <time>2013-12-15T09:25:58Z</time>
      </trkpt>
      <trkpt lat="49.06137" lon="2.09873">
        <ele>71.27</ele>
        <time>2013-12-15T09:26:14Z</time>
      </trkpt>
      <trkpt lat="49.06146" lon="2.09878">
        <ele>70.79</ele>
        <time>2013-12-15T09:26:27Z</time>
      </trkpt>
      <trkpt lat="49.06159" lon="2.09881">
        <ele>70.31</ele>
        <time>2013-12-15T09:26:36Z</time>
      </trkpt>
      <trkpt lat="49.0618" lon="2.09882">
        <ele>69.83</ele>
        <time>2013-12-15T09:26:53Z</time>
      </trkpt>
      <trkpt lat="49.06197" lon="2.09882">
        <ele>69.83</ele>
        <time>2013-12-15T09:27:08Z</time>
      </trkpt>
      <trkpt lat="49.06201" lon="2.09883">
        <ele>69.83</ele>
        <time>2013-12-15T09:27:13Z</time>
      </trkpt>
      <trkpt lat="49.06208" lon="2.09883">
        <ele>69.35</ele>
        <time>2013-12-15T09:27:18Z</time>
      </trkpt>
      <trkpt lat="49.06225" lon="2.09882">
        <ele>69.35</ele>
        <time>2013-12-15T09:27:32Z</time>
      </trkpt>
      <trkpt lat="49.06234" lon="2.09882">
        <ele>69.35</ele>
        <time>2013-12-15T09:27:41Z</time>
      </trkpt>
      <trkpt lat="49.06241" lon="2.09882">
        <ele>69.35</ele>
        <time>2013-12-15T09:27:48Z</time>
      </trkpt>
      <trkpt lat="49.06256" lon="2.09887">
        <ele>69.83</ele>
        <time>2013-12-15T09:28:03Z</time>
      </trkpt>
      <trkpt lat="49.06276" lon="2.0989">
        <ele>69.83</ele>
        <time>2013-12-15T09:28:22Z</time>
      </trkpt>
      <trkpt lat="49.06282" lon="2.0989">
        <ele>69.83</ele>
        <time>2013-12-15T09:28:28Z</time>
      </trkpt>
      <trkpt lat="49.06285" lon="2.0989">
        <ele>69.83</ele>
        <time>2013-12-15T09:28:30Z</time>
      </trkpt>
      <trkpt lat="49.06306" lon="2.09892">
        <ele>69.83</ele>
        <time>2013-12-15T09:28:49Z</time>
      </trkpt>
      <trkpt lat="49.06309" lon="2.09892">
        <ele>69.83</ele>
        <time>2013-12-15T09:28:52Z</time>
      </trkpt>
      <trkpt lat="49.06324" lon="2.09893">
        <ele>69.83</ele>
        <time>2013-12-15T09:29:05Z</time>
      </trkpt>
      <trkpt lat="49.06339" lon="2.09891">
        <ele>70.31</ele>
        <time>2013-12-15T09:29:19Z</time>
      </trkpt>
      <trkpt lat="49.06342" lon="2.09891">
        <ele>70.31</ele>
        <time>2013-12-15T09:29:22Z</time>
      </trkpt>
      <trkpt lat="49.06362" lon="2.09894">
        <ele>70.79</ele>
        <time>2013-12-15T09:29:39Z</time>
      </trkpt>
      <trkpt lat="49.06383" lon="2.09895">
        <ele>71.27</ele>
        <time>2013-12-15T09:29:58Z</time>
      </trkpt>
      <trkpt lat="49.06396" lon="2.09898">
        <ele>71.27</ele>
        <time>2013-12-15T09:30:11Z</time>
      </trkpt>
      <trkpt lat="49.06412" lon="2.09899">
        <ele>72.24</ele>
        <time>2013-12-15T09:30:26Z</time>
      </trkpt>
      <trkpt lat="49.06416" lon="2.09899">
        <ele>71.76</ele>
        <time>2013-12-15T09:30:30Z</time>
      </trkpt>
      <trkpt lat="49.06418" lon="2.09898">
        <ele>71.76</ele>
        <time>2013-12-15T09:30:32Z</time>
      </trkpt>
      <trkpt lat="49.06433" lon="2.09897">
        <ele>72.24</ele>
        <time>2013-12-15T09:30:46Z</time>
      </trkpt>
      <trkpt lat="49.06445" lon="2.09896">
        <ele>72.72</ele>
        <time>2013-12-15T09:30:56Z</time>
      </trkpt>
      <trkpt lat="49.06449" lon="2.09896">
        <ele>72.72</ele>
        <time>2013-12-15T09:31:01Z</time>
      </trkpt>
      <trkpt lat="49.06451" lon="2.09895">
        <ele>72.72</ele>
        <time>2013-12-15T09:31:03Z</time>
      </trkpt>
      <trkpt lat="49.06468" lon="2.09896">
        <ele>72.72</ele>
        <time>2013-12-15T09:31:18Z</time>
      </trkpt>
      <trkpt lat="49.06483" lon="2.09894">
        <ele>73.68</ele>
        <time>2013-12-15T09:31:32Z</time>
      </trkpt>
      <trkpt lat="49.06497" lon="2.09892">
        <ele>74.16</ele>
        <time>2013-12-15T09:31:46Z</time>
      </trkpt>
      <trkpt lat="49.06514" lon="2.09892">
        <ele>74.16</ele>
        <time>2013-12-15T09:32:01Z</time>
      </trkpt>
      <trkpt lat="49.06527" lon="2.09891">
        <ele>75.12</ele>
        <time>2013-12-15T09:32:15Z</time>
      </trkpt>
      <trkpt lat="49.0654" lon="2.09889">
        <ele>75.12</ele>
        <time>2013-12-15T09:32:27Z</time>
      </trkpt>
      <trkpt lat="49.06553" lon="2.09887">
        <ele>75.6</ele>
        <time>2013-12-15T09:32:42Z</time>
      </trkpt>
      <trkpt lat="49.06573" lon="2.09886">
        <ele>75.6</ele>
        <time>2013-12-15T09:33:01Z</time>
      </trkpt>
      <trkpt lat="49.06593" lon="2.09884">
        <ele>75.6</ele>
        <time>2013-12-15T09:33:18Z</time>
      </trkpt>
      <trkpt lat="49.06615" lon="2.0988">
        <ele>76.08</ele>
        <time>2013-12-15T09:33:37Z</time>
      </trkpt>
      <trkpt lat="49.06627" lon="2.09881">
        <ele>75.6</ele>
        <time>2013-12-15T09:33:49Z</time>
      </trkpt>
      <trkpt lat="49.06638" lon="2.09879">
        <ele>75.6</ele>
        <time>2013-12-15T09:34:01Z</time>
      </trkpt>
      <trkpt lat="49.06656" lon="2.09879">
        <ele>75.6</ele>
        <time>2013-12-15T09:34:18Z</time>
      </trkpt>
      <trkpt lat="49.06663" lon="2.09878">
        <ele>75.12</ele>
        <time>2013-12-15T09:34:27Z</time>
      </trkpt>
      <trkpt lat="49.06666" lon="2.09879">
        <ele>75.12</ele>
        <time>2013-12-15T09:34:31Z</time>
      </trkpt>
      <trkpt lat="49.06682" lon="2.09877">
        <ele>75.12</ele>
        <time>2013-12-15T09:34:44Z</time>
      </trkpt>
      <trkpt lat="49.06702" lon="2.09876">
        <ele>75.12</ele>
        <time>2013-12-15T09:35:01Z</time>
      </trkpt>
      <trkpt lat="49.06706" lon="2.09876">
        <ele>75.12</ele>
        <time>2013-12-15T09:35:04Z</time>
      </trkpt>
      <trkpt lat="49.06726" lon="2.0987">
        <ele>74.64</ele>
        <time>2013-12-15T09:35:23Z</time>
      </trkpt>
      <trkpt lat="49.06728" lon="2.0987">
        <ele>74.64</ele>
        <time>2013-12-15T09:35:25Z</time>
      </trkpt>
      <trkpt lat="49.06735" lon="2.0987">
        <ele>74.16</ele>
        <time>2013-12-15T09:35:36Z</time>
      </trkpt>
      <trkpt lat="49.06747" lon="2.09875">
        <ele>73.2</ele>
        <time>2013-12-15T09:35:50Z</time>
      </trkpt>
      <trkpt lat="49.0675" lon="2.09882">
        <ele>72.72</ele>
        <time>2013-12-15T09:36:03Z</time>
      </trkpt>
      <trkpt lat="49.06758" lon="2.0989">
        <ele>72.72</ele>
        <time>2013-12-15T09:36:07Z</time>
      </trkpt>
      <trkpt lat="49.06763" lon="2.09893">
        <ele>72.24</ele>
        <time>2013-12-15T09:38:06Z</time>
      </trkpt>
      <trkpt lat="49.0677" lon="2.09896">
        <ele>72.24</ele>
        <time>2013-12-15T09:38:20Z</time>
      </trkpt>
      <trkpt lat="49.06776" lon="2.09896">
        <ele>71.27</ele>
        <time>2013-12-15T09:38:44Z</time>
      </trkpt>
      <trkpt lat="49.06782" lon="2.09901">
        <ele>70.31</ele>
        <time>2013-12-15T09:39:12Z</time>
      </trkpt>
      <trkpt lat="49.06787" lon="2.099">
        <ele>69.83</ele>
        <time>2013-12-15T09:39:35Z</time>
      </trkpt>
      <trkpt lat="49.06792" lon="2.09903">
        <ele>69.83</ele>
        <time>2013-12-15T09:39:40Z</time>
      </trkpt>
      <trkpt lat="49.06801" lon="2.09903">
        <ele>68.39</ele>
        <time>2013-12-15T09:39:52Z</time>
      </trkpt>
      <trkpt lat="49.06812" lon="2.09905">
        <ele>66.95</ele>
        <time>2013-12-15T09:40:08Z</time>
      </trkpt>
      <trkpt lat="49.06823" lon="2.09903">
        <ele>65.51</ele>
        <time>2013-12-15T09:40:22Z</time>
      </trkpt>
      <trkpt lat="49.06829" lon="2.09906">
        <ele>64.07</ele>
        <time>2013-12-15T09:40:37Z</time>
      </trkpt>
      <trkpt lat="49.0684" lon="2.09902">
        <ele>61.66</ele>
        <time>2013-12-15T09:40:50Z</time>
      </trkpt>
      <trkpt lat="49.06845" lon="2.09906">
        <ele>60.22</ele>
        <time>2013-12-15T09:41:01Z</time>
      </trkpt>
      <trkpt lat="49.06856" lon="2.09909">
        <ele>57.34</ele>
        <time>2013-12-15T09:41:10Z</time>
      </trkpt>
      <trkpt lat="49.06864" lon="2.09911">
        <ele>54.45</ele>
        <time>2013-12-15T09:41:22Z</time>
      </trkpt>
      <trkpt lat="49.06872" lon="2.09916">
        <ele>52.53</ele>
        <time>2013-12-15T09:41:35Z</time>
      </trkpt>
      <trkpt lat="49.06876" lon="2.09917">
        <ele>52.05</ele>
        <time>2013-12-15T09:41:56Z</time>
      </trkpt>
      <trkpt lat="49.06879" lon="2.09917">
        <ele>52.05</ele>
        <time>2013-12-15T09:42:09Z</time>
      </trkpt>
      <trkpt lat="49.06889" lon="2.0992">
        <ele>52.05</ele>
        <time>2013-12-15T09:42:24Z</time>
      </trkpt>
      <trkpt lat="49.06897" lon="2.09921">
        <ele>51.09</ele>
        <time>2013-12-15T09:42:35Z</time>
      </trkpt>
      <trkpt lat="49.06901" lon="2.0992">
        <ele>50.61</ele>
        <time>2013-12-15T09:42:58Z</time>
      </trkpt>
      <trkpt lat="49.06906" lon="2.09921">
        <ele>50.13</ele>
        <time>2013-12-15T09:43:12Z</time>
      </trkpt>
      <trkpt lat="49.06912" lon="2.09922">
        <ele>49.65</ele>
        <time>2013-12-15T09:43:28Z</time>
      </trkpt>
      <trkpt lat="49.06915" lon="2.09922">
        <ele>49.16</ele>
        <time>2013-12-15T09:43:44Z</time>
      </trkpt>
      <trkpt lat="49.06933" lon="2.0992">
        <ele>47.72</ele>
        <time>2013-12-15T09:43:58Z</time>
      </trkpt>
      <trkpt lat="49.06941" lon="2.09915">
        <ele>48.68</ele>
        <time>2013-12-15T09:44:11Z</time>
      </trkpt>
      <trkpt lat="49.06944" lon="2.09914">
        <ele>48.68</ele>
        <time>2013-12-15T09:44:14Z</time>
      </trkpt>
      <trkpt lat="49.06946" lon="2.09915">
        <ele>48.2</ele>
        <time>2013-12-15T09:44:30Z</time>
      </trkpt>
      <trkpt lat="49.0695" lon="2.09913">
        <ele>47.72</ele>
        <time>2013-12-15T09:44:42Z</time>
      </trkpt>
      <trkpt lat="49.06958" lon="2.09905">
        <ele>46.28</ele>
        <time>2013-12-15T09:44:57Z</time>
      </trkpt>
      <trkpt lat="49.06963" lon="2.09902">
        <ele>45.8</ele>
        <time>2013-12-15T09:45:09Z</time>
      </trkpt>
      <trkpt lat="49.06971" lon="2.09898">
        <ele>45.32</ele>
        <time>2013-12-15T09:45:24Z</time>
      </trkpt>
      <trkpt lat="49.06975" lon="2.09893">
        <ele>45.8</ele>
        <time>2013-12-15T09:51:13Z</time>
      </trkpt>
      <trkpt lat="49.06977" lon="2.09887">
        <ele>45.8</ele>
        <time>2013-12-15T09:52:07Z</time>
      </trkpt>
      <trkpt lat="49.06995" lon="2.09875">
        <ele>45.32</ele>
        <time>2013-12-15T09:52:35Z</time>
      </trkpt>
      <trkpt lat="49.0701" lon="2.09891">
        <ele>43.4</ele>
        <time>2013-12-15T09:52:53Z</time>
      </trkpt>
      <trkpt lat="49.07018" lon="2.09888">
        <ele>42.92</ele>
        <time>2013-12-15T09:53:09Z</time>
      </trkpt>
      <trkpt lat="49.0702" lon="2.09884">
        <ele>43.4</ele>
        <time>2013-12-15T09:53:24Z</time>
      </trkpt>
      <trkpt lat="49.07025" lon="2.09879">
        <ele>43.88</ele>
        <time>2013-12-15T09:53:36Z</time>
      </trkpt>
      <trkpt lat="49.07031" lon="2.09875">
        <ele>43.4</ele>
        <time>2013-12-15T09:53:50Z</time>
      </trkpt>
      <trkpt lat="49.07039" lon="2.09859">
        <ele>43.4</ele>
        <time>2013-12-15T09:54:06Z</time>
      </trkpt>
      <trkpt lat="49.07049" lon="2.09849">
        <ele>43.4</ele>
        <time>2013-12-15T09:54:24Z</time>
      </trkpt>
      <trkpt lat="49.07064" lon="2.09838">
        <ele>43.4</ele>
        <time>2013-12-15T09:54:43Z</time>
      </trkpt>
      <trkpt lat="49.07085" lon="2.0983">
        <ele>43.4</ele>
        <time>2013-12-15T09:55:01Z</time>
      </trkpt>
      <trkpt lat="49.07103" lon="2.09815">
        <ele>43.4</ele>
        <time>2013-12-15T09:55:21Z</time>
      </trkpt>
      <trkpt lat="49.07112" lon="2.09784">
        <ele>43.4</ele>
        <time>2013-12-15T09:55:37Z</time>
      </trkpt>
      <trkpt lat="49.07116" lon="2.09757">
        <ele>43.88</ele>
        <time>2013-12-15T09:55:54Z</time>
      </trkpt>
      <trkpt lat="49.0712" lon="2.09743">
        <ele>43.88</ele>
        <time>2013-12-15T09:56:08Z</time>
      </trkpt>
      <trkpt lat="49.07129" lon="2.09715">
        <ele>44.84</ele>
        <time>2013-12-15T09:56:26Z</time>
      </trkpt>
      <trkpt lat="49.07134" lon="2.09699">
        <ele>44.84</ele>
        <time>2013-12-15T09:56:41Z</time>
      </trkpt>
      <trkpt lat="49.07145" lon="2.09676">
        <ele>45.32</ele>
        <time>2013-12-15T09:56:59Z</time>
      </trkpt>
      <trkpt lat="49.07158" lon="2.09648">
        <ele>45.32</ele>
        <time>2013-12-15T09:57:18Z</time>
      </trkpt>
      <trkpt lat="49.07167" lon="2.09633">
        <ele>45.8</ele>
        <time>2013-12-15T09:57:35Z</time>
      </trkpt>
      <trkpt lat="49.07185" lon="2.09618">
        <ele>45.8</ele>
        <time>2013-12-15T09:57:56Z</time>
      </trkpt>
      <trkpt lat="49.07206" lon="2.09602">
        <ele>46.28</ele>
        <time>2013-12-15T09:58:15Z</time>
      </trkpt>
      <trkpt lat="49.0722" lon="2.09582">
        <ele>46.28</ele>
        <time>2013-12-15T09:58:34Z</time>
      </trkpt>
      <trkpt lat="49.07237" lon="2.09553">
        <ele>46.28</ele>
        <time>2013-12-15T09:58:55Z</time>
      </trkpt>
      <trkpt lat="49.07241" lon="2.09548">
        <ele>46.28</ele>
        <time>2013-12-15T09:58:59Z</time>
      </trkpt>
      <trkpt lat="49.07252" lon="2.0953">
        <ele>46.76</ele>
        <time>2013-12-15T09:59:17Z</time>
      </trkpt>
      <trkpt lat="49.0726" lon="2.09494">
        <ele>47.24</ele>
        <time>2013-12-15T09:59:38Z</time>
      </trkpt>
      <trkpt lat="49.07268" lon="2.09477">
        <ele>47.24</ele>
        <time>2013-12-15T09:59:51Z</time>
      </trkpt>
      <trkpt lat="49.07276" lon="2.09447">
        <ele>48.2</ele>
        <time>2013-12-15T10:00:10Z</time>
      </trkpt>
      <trkpt lat="49.07281" lon="2.09422">
        <ele>49.16</ele>
        <time>2013-12-15T10:00:27Z</time>
      </trkpt>
      <trkpt lat="49.07281" lon="2.09413">
        <ele>48.68</ele>
        <time>2013-12-15T10:00:33Z</time>
      </trkpt>
      <trkpt lat="49.07275" lon="2.09395">
        <ele>49.16</ele>
        <time>2013-12-15T10:00:48Z</time>
      </trkpt>
      <trkpt lat="49.0727" lon="2.09374">
        <ele>49.65</ele>
        <time>2013-12-15T10:01:04Z</time>
      </trkpt>
      <trkpt lat="49.07275" lon="2.09344">
        <ele>49.65</ele>
        <time>2013-12-15T10:01:24Z</time>
      </trkpt>
      <trkpt lat="49.07287" lon="2.0931">
        <ele>49.65</ele>
        <time>2013-12-15T10:01:48Z</time>
      </trkpt>
      <trkpt lat="49.0729" lon="2.09299">
        <ele>50.13</ele>
        <time>2013-12-15T10:01:55Z</time>
      </trkpt>
      <trkpt lat="49.07308" lon="2.09275">
        <ele>50.13</ele>
        <time>2013-12-15T10:02:13Z</time>
      </trkpt>
      <trkpt lat="49.07326" lon="2.09262">
        <ele>50.61</ele>
        <time>2013-12-15T10:02:34Z</time>
      </trkpt>
      <trkpt lat="49.07338" lon="2.09241">
        <ele>50.61</ele>
        <time>2013-12-15T10:02:52Z</time>
      </trkpt>
      <trkpt lat="49.07344" lon="2.09217">
        <ele>51.09</ele>
        <time>2013-12-15T10:03:08Z</time>
      </trkpt>
      <trkpt lat="49.07342" lon="2.09191">
        <ele>50.61</ele>
        <time>2013-12-15T10:03:25Z</time>
      </trkpt>
      <trkpt lat="49.07347" lon="2.09165">
        <ele>51.57</ele>
        <time>2013-12-15T10:03:42Z</time>
      </trkpt>
      <trkpt lat="49.07358" lon="2.09151">
        <ele>52.05</ele>
        <time>2013-12-15T10:03:57Z</time>
      </trkpt>
      <trkpt lat="49.07375" lon="2.09135">
        <ele>53.01</ele>
        <time>2013-12-15T10:04:14Z</time>
      </trkpt>
      <trkpt lat="49.07379" lon="2.09133">
        <ele>53.97</ele>
        <time>2013-12-15T10:04:19Z</time>
      </trkpt>
      <trkpt lat="49.07383" lon="2.09135">
        <ele>54.45</ele>
        <time>2013-12-15T10:04:34Z</time>
      </trkpt>
      <trkpt lat="49.07383" lon="2.09136">
        <ele>53.97</ele>
        <time>2013-12-15T10:04:47Z</time>
      </trkpt>
      <trkpt lat="49.07381" lon="2.09134">
        <ele>54.45</ele>
        <time>2013-12-15T10:05:01Z</time>
      </trkpt>
      <trkpt lat="49.07381" lon="2.09134">
        <ele>54.45</ele>
        <time>2013-12-15T10:05:03Z</time>
      </trkpt>
      <trkpt lat="49.07384" lon="2.09159">
        <ele>54.45</ele>
        <time>2013-12-15T10:05:13Z</time>
      </trkpt>
      <trkpt lat="49.07389" lon="2.09159">
        <ele>53.97</ele>
        <time>2013-12-15T10:05:29Z</time>
      </trkpt>
      <trkpt lat="49.07391" lon="2.09149">
        <ele>56.37</ele>
        <time>2013-12-15T10:05:42Z</time>
      </trkpt>
      <trkpt lat="49.0739" lon="2.09141">
        <ele>56.86</ele>
        <time>2013-12-15T10:08:20Z</time>
      </trkpt>
      <trkpt lat="49.07387" lon="2.09131">
        <ele>56.37</ele>
        <time>2013-12-15T10:08:27Z</time>
      </trkpt>
      <trkpt lat="49.0739" lon="2.09116">
        <ele>54.45</ele>
        <time>2013-12-15T10:08:40Z</time>
      </trkpt>
      <trkpt lat="49.07395" lon="2.09108">
        <ele>53.97</ele>
        <time>2013-12-15T10:08:54Z</time>
      </trkpt>
      <trkpt lat="49.07408" lon="2.09104">
        <ele>53.01</ele>
        <time>2013-12-15T10:09:04Z</time>
      </trkpt>
      <trkpt lat="49.07412" lon="2.09098">
        <ele>53.01</ele>
        <time>2013-12-15T10:09:13Z</time>
      </trkpt>
      <trkpt lat="49.0742" lon="2.09089">
        <ele>52.53</ele>
        <time>2013-12-15T10:09:27Z</time>
      </trkpt>
      <trkpt lat="49.0743" lon="2.09079">
        <ele>53.01</ele>
        <time>2013-12-15T10:09:38Z</time>
      </trkpt>
      <trkpt lat="49.07443" lon="2.09063">
        <ele>53.49</ele>
        <time>2013-12-15T10:09:48Z</time>
      </trkpt>
      <trkpt lat="49.07446" lon="2.09062">
        <ele>53.49</ele>
        <time>2013-12-15T10:09:51Z</time>
      </trkpt>
      <trkpt lat="49.07449" lon="2.09058">
        <ele>53.97</ele>
        <time>2013-12-15T10:09:54Z</time>
      </trkpt>
      <trkpt lat="49.07455" lon="2.09052">
        <ele>53.49</ele>
        <time>2013-12-15T10:10:01Z</time>
      </trkpt>
      <trkpt lat="49.0746" lon="2.09043">
        <ele>53.97</ele>
        <time>2013-12-15T10:10:07Z</time>
      </trkpt>
      <trkpt lat="49.07461" lon="2.09041">
        <ele>53.97</ele>
        <time>2013-12-15T10:10:08Z</time>
      </trkpt>
      <trkpt lat="49.07462" lon="2.0904">
        <ele>53.97</ele>
        <time>2013-12-15T10:10:09Z</time>
      </trkpt>
      <trkpt lat="49.07471" lon="2.09027">
        <ele>53.97</ele>
        <time>2013-12-15T10:10:21Z</time>
      </trkpt>
      <trkpt lat="49.07473" lon="2.09021">
        <ele>53.97</ele>
        <time>2013-12-15T10:10:25Z</time>
      </trkpt>
      <trkpt lat="49.0748" lon="2.08999">
        <ele>54.45</ele>
        <time>2013-12-15T10:10:40Z</time>
      </trkpt>
      <trkpt lat="49.07484" lon="2.08983">
        <ele>54.45</ele>
        <time>2013-12-15T10:10:52Z</time>
      </trkpt>
      <trkpt lat="49.07486" lon="2.08983">
        <ele>54.45</ele>
        <time>2013-12-15T10:11:10Z</time>
      </trkpt>
      <trkpt lat="49.07493" lon="2.08956">
        <ele>54.93</ele>
        <time>2013-12-15T10:11:23Z</time>
      </trkpt>
      <trkpt lat="49.07499" lon="2.08948">
        <ele>55.41</ele>
        <time>2013-12-15T10:11:37Z</time>
      </trkpt>
      <trkpt lat="49.07509" lon="2.08935">
        <ele>55.89</ele>
        <time>2013-12-15T10:11:46Z</time>
      </trkpt>
      <trkpt lat="49.0751" lon="2.08934">
        <ele>55.89</ele>
        <time>2013-12-15T10:11:47Z</time>
      </trkpt>
      <trkpt lat="49.07518" lon="2.08924">
        <ele>56.37</ele>
        <time>2013-12-15T10:11:56Z</time>
      </trkpt>
      <trkpt lat="49.07532" lon="2.08903">
        <ele>57.34</ele>
        <time>2013-12-15T10:12:13Z</time>
      </trkpt>
      <trkpt lat="49.07545" lon="2.08883">
        <ele>57.34</ele>
        <time>2013-12-15T10:12:32Z</time>
      </trkpt>
      <trkpt lat="49.07551" lon="2.08876">
        <ele>57.34</ele>
        <time>2013-12-15T10:12:39Z</time>
      </trkpt>
      <trkpt lat="49.07558" lon="2.0886">
        <ele>57.34</ele>
        <time>2013-12-15T10:12:51Z</time>
      </trkpt>
      <trkpt lat="49.07564" lon="2.08853">
        <ele>57.34</ele>
        <time>2013-12-15T10:13:00Z</time>
      </trkpt>
      <trkpt lat="49.07568" lon="2.08853">
        <ele>57.82</ele>
        <time>2013-12-15T10:13:13Z</time>
      </trkpt>
      <trkpt lat="49.07567" lon="2.08854">
        <ele>57.34</ele>
        <time>2013-12-15T10:13:31Z</time>
      </trkpt>
      <trkpt lat="49.07566" lon="2.08855">
        <ele>57.82</ele>
        <time>2013-12-15T10:13:49Z</time>
      </trkpt>
      <trkpt lat="49.07567" lon="2.08853">
        <ele>57.34</ele>
        <time>2013-12-15T10:14:03Z</time>
      </trkpt>
      <trkpt lat="49.07566" lon="2.08855">
        <ele>57.34</ele>
        <time>2013-12-15T10:14:23Z</time>
      </trkpt>
      <trkpt lat="49.07566" lon="2.08853">
        <ele>57.82</ele>
        <time>2013-12-15T10:14:48Z</time>
      </trkpt>
      <trkpt lat="49.07565" lon="2.08855">
        <ele>57.82</ele>
        <time>2013-12-15T10:15:19Z</time>
      </trkpt>
      <trkpt lat="49.07565" lon="2.08851">
        <ele>57.82</ele>
        <time>2013-12-15T10:15:47Z</time>
      </trkpt>
      <trkpt lat="49.07569" lon="2.08851">
        <ele>57.82</ele>
        <time>2013-12-15T10:16:10Z</time>
      </trkpt>
      <trkpt lat="49.07573" lon="2.0885">
        <ele>58.3</ele>
        <time>2013-12-15T10:16:42Z</time>
      </trkpt>
      <trkpt lat="49.07572" lon="2.08852">
        <ele>58.78</ele>
        <time>2013-12-15T10:17:03Z</time>
      </trkpt>
      <trkpt lat="49.07572" lon="2.0885">
        <ele>58.78</ele>
        <time>2013-12-15T10:17:28Z</time>
      </trkpt>
      <trkpt lat="49.07571" lon="2.08852">
        <ele>58.78</ele>
        <time>2013-12-15T10:17:57Z</time>
      </trkpt>
      <trkpt lat="49.0757" lon="2.08853">
        <ele>58.78</ele>
        <time>2013-12-15T10:18:17Z</time>
      </trkpt>
      <trkpt lat="49.07572" lon="2.08852">
        <ele>59.26</ele>
        <time>2013-12-15T10:18:37Z</time>
      </trkpt>
      <trkpt lat="49.07571" lon="2.08853">
        <ele>59.26</ele>
        <time>2013-12-15T10:18:55Z</time>
      </trkpt>
      <trkpt lat="49.07572" lon="2.08851">
        <ele>59.26</ele>
        <time>2013-12-15T10:19:10Z</time>
      </trkpt>
      <trkpt lat="49.07583" lon="2.08838">
        <ele>59.74</ele>
        <time>2013-12-15T10:19:26Z</time>
      </trkpt>
      <trkpt lat="49.07594" lon="2.08834">
        <ele>59.26</ele>
        <time>2013-12-15T10:19:38Z</time>
      </trkpt>
      <trkpt lat="49.07609" lon="2.08825">
        <ele>59.74</ele>
        <time>2013-12-15T10:19:54Z</time>
      </trkpt>
      <trkpt lat="49.07624" lon="2.08819">
        <ele>59.74</ele>
        <time>2013-12-15T10:20:10Z</time>
      </trkpt>
      <trkpt lat="49.07637" lon="2.08815">
        <ele>59.26</ele>
        <time>2013-12-15T10:20:24Z</time>
      </trkpt>
      <trkpt lat="49.07645" lon="2.0881">
        <ele>59.74</ele>
        <time>2013-12-15T10:20:35Z</time>
      </trkpt>
      <trkpt lat="49.07656" lon="2.08806">
        <ele>59.74</ele>
        <time>2013-12-15T10:20:47Z</time>
      </trkpt>
      <trkpt lat="49.07672" lon="2.088">
        <ele>59.74</ele>
        <time>2013-12-15T10:21:03Z</time>
      </trkpt>
      <trkpt lat="49.07684" lon="2.08795">
        <ele>59.74</ele>
        <time>2013-12-15T10:21:17Z</time>
      </trkpt>
      <trkpt lat="49.077" lon="2.08789">
        <ele>59.74</ele>
        <time>2013-12-15T10:21:31Z</time>
      </trkpt>
      <trkpt lat="49.07705" lon="2.08786">
        <ele>59.74</ele>
        <time>2013-12-15T10:21:41Z</time>
      </trkpt>
      <trkpt lat="49.07719" lon="2.08779">
        <ele>59.74</ele>
        <time>2013-12-15T10:21:55Z</time>
      </trkpt>
      <trkpt lat="49.07733" lon="2.08769">
        <ele>59.74</ele>
        <time>2013-12-15T10:22:08Z</time>
      </trkpt>
      <trkpt lat="49.07734" lon="2.08768">
        <ele>59.74</ele>
        <time>2013-12-15T10:22:09Z</time>
      </trkpt>
      <trkpt lat="49.07739" lon="2.08761">
        <ele>59.74</ele>
        <time>2013-12-15T10:22:17Z</time>
      </trkpt>
      <trkpt lat="49.07742" lon="2.08756">
        <ele>59.74</ele>
        <time>2013-12-15T10:22:24Z</time>
      </trkpt>
      <trkpt lat="49.07742" lon="2.08755">
        <ele>59.74</ele>
        <time>2013-12-15T10:22:25Z</time>
      </trkpt>
      <trkpt lat="49.07743" lon="2.08754">
        <ele>59.74</ele>
        <time>2013-12-15T10:22:26Z</time>
      </trkpt>
      <trkpt lat="49.07744" lon="2.0875">
        <ele>59.74</ele>
        <time>2013-12-15T10:22:29Z</time>
      </trkpt>
      <trkpt lat="49.07745" lon="2.08749">
        <ele>59.74</ele>
        <time>2013-12-15T10:22:30Z</time>
      </trkpt>
      <trkpt lat="49.07747" lon="2.08741">
        <ele>59.74</ele>
        <time>2013-12-15T10:22:35Z</time>
      </trkpt>
      <trkpt lat="49.07747" lon="2.08739">
        <ele>60.22</ele>
        <time>2013-12-15T10:22:36Z</time>
      </trkpt>
      <trkpt lat="49.07754" lon="2.08724">
        <ele>60.7</ele>
        <time>2013-12-15T10:22:48Z</time>
      </trkpt>
      <trkpt lat="49.07763" lon="2.08704">
        <ele>61.18</ele>
        <time>2013-12-15T10:23:03Z</time>
      </trkpt>
      <trkpt lat="49.07766" lon="2.08701">
        <ele>61.18</ele>
        <time>2013-12-15T10:23:06Z</time>
      </trkpt>
      <trkpt lat="49.07776" lon="2.08685">
        <ele>61.18</ele>
        <time>2013-12-15T10:23:21Z</time>
      </trkpt>
      <trkpt lat="49.07788" lon="2.08672">
        <ele>61.18</ele>
        <time>2013-12-15T10:23:35Z</time>
      </trkpt>
      <trkpt lat="49.07793" lon="2.08665">
        <ele>61.18</ele>
        <time>2013-12-15T10:23:41Z</time>
      </trkpt>
      <trkpt lat="49.07794" lon="2.08664">
        <ele>61.66</ele>
        <time>2013-12-15T10:23:42Z</time>
      </trkpt>
      <trkpt lat="49.07797" lon="2.08659">
        <ele>61.66</ele>
        <time>2013-12-15T10:23:48Z</time>
      </trkpt>
      <trkpt lat="49.07804" lon="2.08653">
        <ele>61.66</ele>
        <time>2013-12-15T10:23:56Z</time>
      </trkpt>
      <trkpt lat="49.07806" lon="2.08652">
        <ele>61.18</ele>
        <time>2013-12-15T10:23:57Z</time>
      </trkpt>
      <trkpt lat="49.07808" lon="2.08649">
        <ele>61.18</ele>
        <time>2013-12-15T10:24:00Z</time>
      </trkpt>
      <trkpt lat="49.07809" lon="2.08648">
        <ele>61.18</ele>
        <time>2013-12-15T10:24:01Z</time>
      </trkpt>
      <trkpt lat="49.07811" lon="2.08646">
        <ele>61.18</ele>
        <time>2013-12-15T10:24:02Z</time>
      </trkpt>
      <trkpt lat="49.07814" lon="2.08641">
        <ele>61.18</ele>
        <time>2013-12-15T10:24:11Z</time>
      </trkpt>
      <trkpt lat="49.07815" lon="2.0864">
        <ele>61.18</ele>
        <time>2013-12-15T10:24:12Z</time>
      </trkpt>
      <trkpt lat="49.07822" lon="2.08636">
        <ele>61.18</ele>
        <time>2013-12-15T10:24:20Z</time>
      </trkpt>
      <trkpt lat="49.07829" lon="2.08631">
        <ele>61.18</ele>
        <time>2013-12-15T10:24:27Z</time>
      </trkpt>
      <trkpt lat="49.0783" lon="2.0863">
        <ele>61.18</ele>
        <time>2013-12-15T10:24:28Z</time>
      </trkpt>
      <trkpt lat="49.07832" lon="2.08629">
        <ele>61.18</ele>
        <time>2013-12-15T10:24:29Z</time>
      </trkpt>
      <trkpt lat="49.07846" lon="2.08623">
        <ele>61.18</ele>
        <time>2013-12-15T10:24:43Z</time>
      </trkpt>
      <trkpt lat="49.07853" lon="2.08621">
        <ele>61.66</ele>
        <time>2013-12-15T10:24:50Z</time>
      </trkpt>
      <trkpt lat="49.07854" lon="2.0862">
        <ele>61.66</ele>
        <time>2013-12-15T10:24:51Z</time>
      </trkpt>
      <trkpt lat="49.07868" lon="2.08616">
        <ele>62.14</ele>
        <time>2013-12-15T10:25:04Z</time>
      </trkpt>
      <trkpt lat="49.07883" lon="2.08618">
        <ele>61.66</ele>
        <time>2013-12-15T10:25:20Z</time>
      </trkpt>
      <trkpt lat="49.07899" lon="2.08617">
        <ele>62.14</ele>
        <time>2013-12-15T10:25:36Z</time>
      </trkpt>
      <trkpt lat="49.07907" lon="2.08619">
        <ele>62.14</ele>
        <time>2013-12-15T10:25:45Z</time>
      </trkpt>
      <trkpt lat="49.07917" lon="2.08624">
        <ele>62.14</ele>
        <time>2013-12-15T10:25:55Z</time>
      </trkpt>
      <trkpt lat="49.07932" lon="2.08628">
        <ele>61.66</ele>
        <time>2013-12-15T10:26:10Z</time>
      </trkpt>
      <trkpt lat="49.07934" lon="2.08628">
        <ele>61.66</ele>
        <time>2013-12-15T10:26:12Z</time>
      </trkpt>
      <trkpt lat="49.07945" lon="2.0863">
        <ele>61.66</ele>
        <time>2013-12-15T10:26:24Z</time>
      </trkpt>
      <trkpt lat="49.07954" lon="2.08635">
        <ele>61.66</ele>
        <time>2013-12-15T10:26:34Z</time>
      </trkpt>
      <trkpt lat="49.07967" lon="2.08637">
        <ele>62.14</ele>
        <time>2013-12-15T10:26:46Z</time>
      </trkpt>
      <trkpt lat="49.07975" lon="2.08639">
        <ele>61.66</ele>
        <time>2013-12-15T10:26:55Z</time>
      </trkpt>
      <trkpt lat="49.07982" lon="2.0864">
        <ele>61.66</ele>
        <time>2013-12-15T10:27:02Z</time>
      </trkpt>
      <trkpt lat="49.07983" lon="2.08641">
        <ele>61.66</ele>
        <time>2013-12-15T10:27:03Z</time>
      </trkpt>
      <trkpt lat="49.07996" lon="2.08641">
        <ele>62.14</ele>
        <time>2013-12-15T10:27:17Z</time>
      </trkpt>
      <trkpt lat="49.08004" lon="2.08647">
        <ele>62.14</ele>
        <time>2013-12-15T10:27:30Z</time>
      </trkpt>
      <trkpt lat="49.08008" lon="2.08649">
        <ele>62.62</ele>
        <time>2013-12-15T10:27:45Z</time>
      </trkpt>
      <trkpt lat="49.08013" lon="2.08649">
        <ele>62.14</ele>
        <time>2013-12-15T10:28:09Z</time>
      </trkpt>
      <trkpt lat="49.08015" lon="2.0865">
        <ele>62.14</ele>
        <time>2013-12-15T10:28:11Z</time>
      </trkpt>
      <trkpt lat="49.08026" lon="2.08653">
        <ele>62.14</ele>
        <time>2013-12-15T10:28:20Z</time>
      </trkpt>
      <trkpt lat="49.08039" lon="2.08655">
        <ele>62.14</ele>
        <time>2013-12-15T10:28:36Z</time>
      </trkpt>
      <trkpt lat="49.08043" lon="2.08658">
        <ele>62.14</ele>
        <time>2013-12-15T10:28:39Z</time>
      </trkpt>
      <trkpt lat="49.08062" lon="2.08656">
        <ele>62.14</ele>
        <time>2013-12-15T10:28:56Z</time>
      </trkpt>
      <trkpt lat="49.08065" lon="2.08655">
        <ele>62.14</ele>
        <time>2013-12-15T10:28:59Z</time>
      </trkpt>
      <trkpt lat="49.08075" lon="2.0865">
        <ele>62.14</ele>
        <time>2013-12-15T10:29:11Z</time>
      </trkpt>
      <trkpt lat="49.08078" lon="2.08649">
        <ele>62.14</ele>
        <time>2013-12-15T10:29:14Z</time>
      </trkpt>
      <trkpt lat="49.08079" lon="2.08649">
        <ele>62.14</ele>
        <time>2013-12-15T10:29:15Z</time>
      </trkpt>
      <trkpt lat="49.08093" lon="2.08658">
        <ele>62.14</ele>
        <time>2013-12-15T10:29:30Z</time>
      </trkpt>
      <trkpt lat="49.08098" lon="2.08661">
        <ele>62.14</ele>
        <time>2013-12-15T10:29:40Z</time>
      </trkpt>
      <trkpt lat="49.08111" lon="2.0866">
        <ele>62.14</ele>
        <time>2013-12-15T10:29:55Z</time>
      </trkpt>
      <trkpt lat="49.08124" lon="2.08665">
        <ele>62.14</ele>
        <time>2013-12-15T10:30:12Z</time>
      </trkpt>
      <trkpt lat="49.08139" lon="2.08667">
        <ele>62.62</ele>
        <time>2013-12-15T10:30:29Z</time>
      </trkpt>
      <trkpt lat="49.08154" lon="2.08665">
        <ele>63.1</ele>
        <time>2013-12-15T10:30:44Z</time>
      </trkpt>
      <trkpt lat="49.08178" lon="2.08663">
        <ele>64.07</ele>
        <time>2013-12-15T10:31:05Z</time>
      </trkpt>
      <trkpt lat="49.08194" lon="2.08656">
        <ele>64.07</ele>
        <time>2013-12-15T10:31:23Z</time>
      </trkpt>
      <trkpt lat="49.0821" lon="2.08647">
        <ele>64.55</ele>
        <time>2013-12-15T10:31:38Z</time>
      </trkpt>
      <trkpt lat="49.08224" lon="2.08633">
        <ele>65.51</ele>
        <time>2013-12-15T10:31:55Z</time>
      </trkpt>
      <trkpt lat="49.08238" lon="2.08622">
        <ele>66.47</ele>
        <time>2013-12-15T10:32:12Z</time>
      </trkpt>
      <trkpt lat="49.08252" lon="2.08617">
        <ele>67.43</ele>
        <time>2013-12-15T10:32:29Z</time>
      </trkpt>
      <trkpt lat="49.08266" lon="2.08617">
        <ele>68.87</ele>
        <time>2013-12-15T10:32:44Z</time>
      </trkpt>
      <trkpt lat="49.08286" lon="2.0862">
        <ele>70.79</ele>
        <time>2013-12-15T10:33:05Z</time>
      </trkpt>
      <trkpt lat="49.08304" lon="2.0861">
        <ele>71.76</ele>
        <time>2013-12-15T10:33:23Z</time>
      </trkpt>
      <trkpt lat="49.08307" lon="2.08613">
        <ele>72.24</ele>
        <time>2013-12-15T10:33:44Z</time>
      </trkpt>
      <trkpt lat="49.08319" lon="2.08616">
        <ele>73.2</ele>
        <time>2013-12-15T10:34:00Z</time>
      </trkpt>
      <trkpt lat="49.08326" lon="2.08617">
        <ele>73.2</ele>
        <time>2013-12-15T10:34:07Z</time>
      </trkpt>
      <trkpt lat="49.08327" lon="2.08617">
        <ele>73.68</ele>
        <time>2013-12-15T10:34:08Z</time>
      </trkpt>
      <trkpt lat="49.08343" lon="2.08617">
        <ele>73.68</ele>
        <time>2013-12-15T10:34:22Z</time>
      </trkpt>
      <trkpt lat="49.08353" lon="2.08617">
        <ele>74.64</ele>
        <time>2013-12-15T10:34:35Z</time>
      </trkpt>
      <trkpt lat="49.08365" lon="2.08618">
        <ele>74.16</ele>
        <time>2013-12-15T10:34:49Z</time>
      </trkpt>
      <trkpt lat="49.08382" lon="2.08618">
        <ele>75.6</ele>
        <time>2013-12-15T10:35:05Z</time>
      </trkpt>
      <trkpt lat="49.08396" lon="2.08611">
        <ele>75.6</ele>
        <time>2013-12-15T10:35:20Z</time>
      </trkpt>
      <trkpt lat="49.08407" lon="2.08616">
        <ele>75.6</ele>
        <time>2013-12-15T10:35:32Z</time>
      </trkpt>
      <trkpt lat="49.08408" lon="2.08617">
        <ele>76.08</ele>
        <time>2013-12-15T10:35:33Z</time>
      </trkpt>
      <trkpt lat="49.0842" lon="2.08622">
        <ele>76.56</ele>
        <time>2013-12-15T10:35:45Z</time>
      </trkpt>
      <trkpt lat="49.08435" lon="2.08624">
        <ele>77.04</ele>
        <time>2013-12-15T10:36:01Z</time>
      </trkpt>
      <trkpt lat="49.08439" lon="2.08623">
        <ele>77.04</ele>
        <time>2013-12-15T10:36:05Z</time>
      </trkpt>
      <trkpt lat="49.08444" lon="2.08624">
        <ele>77.04</ele>
        <time>2013-12-15T10:36:10Z</time>
      </trkpt>
      <trkpt lat="49.08458" lon="2.08625">
        <ele>77.52</ele>
        <time>2013-12-15T10:36:21Z</time>
      </trkpt>
      <trkpt lat="49.08474" lon="2.08627">
        <ele>77.04</ele>
        <time>2013-12-15T10:36:35Z</time>
      </trkpt>
      <trkpt lat="49.0849" lon="2.08625">
        <ele>78</ele>
        <time>2013-12-15T10:36:49Z</time>
      </trkpt>
      <trkpt lat="49.08503" lon="2.0862">
        <ele>77.52</ele>
        <time>2013-12-15T10:37:02Z</time>
      </trkpt>
      <trkpt lat="49.0852" lon="2.08618">
        <ele>78</ele>
        <time>2013-12-15T10:37:19Z</time>
      </trkpt>
      <trkpt lat="49.08538" lon="2.08617">
        <ele>78.48</ele>
        <time>2013-12-15T10:37:34Z</time>
      </trkpt>
      <trkpt lat="49.08556" lon="2.0862">
        <ele>78.97</ele>
        <time>2013-12-15T10:37:49Z</time>
      </trkpt>
      <trkpt lat="49.08573" lon="2.08623">
        <ele>79.45</ele>
        <time>2013-12-15T10:38:06Z</time>
      </trkpt>
      <trkpt lat="49.08589" lon="2.08629">
        <ele>79.93</ele>
        <time>2013-12-15T10:38:22Z</time>
      </trkpt>
      <trkpt lat="49.08605" lon="2.08636">
        <ele>80.41</ele>
        <time>2013-12-15T10:38:39Z</time>
      </trkpt>
      <trkpt lat="49.08625" lon="2.08646">
        <ele>80.41</ele>
        <time>2013-12-15T10:38:57Z</time>
      </trkpt>
      <trkpt lat="49.08644" lon="2.08653">
        <ele>80.89</ele>
        <time>2013-12-15T10:39:14Z</time>
      </trkpt>
      <trkpt lat="49.08657" lon="2.0866">
        <ele>80.89</ele>
        <time>2013-12-15T10:39:29Z</time>
      </trkpt>
      <trkpt lat="49.08671" lon="2.08669">
        <ele>80.89</ele>
        <time>2013-12-15T10:39:44Z</time>
      </trkpt>
      <trkpt lat="49.08685" lon="2.08681">
        <ele>81.37</ele>
        <time>2013-12-15T10:39:59Z</time>
      </trkpt>
      <trkpt lat="49.08686" lon="2.08682">
        <ele>81.37</ele>
        <time>2013-12-15T10:40:00Z</time>
      </trkpt>
      <trkpt lat="49.08687" lon="2.08684">
        <ele>81.37</ele>
        <time>2013-12-15T10:40:01Z</time>
      </trkpt>
      <trkpt lat="49.08689" lon="2.08685">
        <ele>81.37</ele>
        <time>2013-12-15T10:40:02Z</time>
      </trkpt>
      <trkpt lat="49.08701" lon="2.08695">
        <ele>81.37</ele>
        <time>2013-12-15T10:40:16Z</time>
      </trkpt>
      <trkpt lat="49.08713" lon="2.08706">
        <ele>81.85</ele>
        <time>2013-12-15T10:40:29Z</time>
      </trkpt>
      <trkpt lat="49.08714" lon="2.08707">
        <ele>81.85</ele>
        <time>2013-12-15T10:40:30Z</time>
      </trkpt>
      <trkpt lat="49.08727" lon="2.08717">
        <ele>81.85</ele>
        <time>2013-12-15T10:40:44Z</time>
      </trkpt>
      <trkpt lat="49.08736" lon="2.08731">
        <ele>82.33</ele>
        <time>2013-12-15T10:40:57Z</time>
      </trkpt>
      <trkpt lat="49.08746" lon="2.08741">
        <ele>82.33</ele>
        <time>2013-12-15T10:41:07Z</time>
      </trkpt>
      <trkpt lat="49.08749" lon="2.08744">
        <ele>82.33</ele>
        <time>2013-12-15T10:41:11Z</time>
      </trkpt>
      <trkpt lat="49.0875" lon="2.08745">
        <ele>82.33</ele>
        <time>2013-12-15T10:41:12Z</time>
      </trkpt>
      <trkpt lat="49.08764" lon="2.08764">
        <ele>82.81</ele>
        <time>2013-12-15T10:41:28Z</time>
      </trkpt>
      <trkpt lat="49.08765" lon="2.08765">
        <ele>82.81</ele>
        <time>2013-12-15T10:41:29Z</time>
      </trkpt>
      <trkpt lat="49.08766" lon="2.08766">
        <ele>82.81</ele>
        <time>2013-12-15T10:41:30Z</time>
      </trkpt>
      <trkpt lat="49.08775" lon="2.08781">
        <ele>83.29</ele>
        <time>2013-12-15T10:41:43Z</time>
      </trkpt>
      <trkpt lat="49.08786" lon="2.08798">
        <ele>82.81</ele>
        <time>2013-12-15T10:41:56Z</time>
      </trkpt>
      <trkpt lat="49.08797" lon="2.08816">
        <ele>82.33</ele>
        <time>2013-12-15T10:42:11Z</time>
      </trkpt>
      <trkpt lat="49.08807" lon="2.08832">
        <ele>82.81</ele>
        <time>2013-12-15T10:42:25Z</time>
      </trkpt>
      <trkpt lat="49.08817" lon="2.08847">
        <ele>83.29</ele>
        <time>2013-12-15T10:42:38Z</time>
      </trkpt>
      <trkpt lat="49.08826" lon="2.08863">
        <ele>83.29</ele>
        <time>2013-12-15T10:42:50Z</time>
      </trkpt>
      <trkpt lat="49.08834" lon="2.08878">
        <ele>83.29</ele>
        <time>2013-12-15T10:43:02Z</time>
      </trkpt>
      <trkpt lat="49.08846" lon="2.08894">
        <ele>83.29</ele>
        <time>2013-12-15T10:43:17Z</time>
      </trkpt>
      <trkpt lat="49.08855" lon="2.08909">
        <ele>83.77</ele>
        <time>2013-12-15T10:43:30Z</time>
      </trkpt>
      <trkpt lat="49.08861" lon="2.08919">
        <ele>83.77</ele>
        <time>2013-12-15T10:43:39Z</time>
      </trkpt>
      <trkpt lat="49.08863" lon="2.08921">
        <ele>83.77</ele>
        <time>2013-12-15T10:43:41Z</time>
      </trkpt>
      <trkpt lat="49.08864" lon="2.08923">
        <ele>83.77</ele>
        <time>2013-12-15T10:43:42Z</time>
      </trkpt>
      <trkpt lat="49.08876" lon="2.08942">
        <ele>83.29</ele>
        <time>2013-12-15T10:43:57Z</time>
      </trkpt>
      <trkpt lat="49.08892" lon="2.08957">
        <ele>83.77</ele>
        <time>2013-12-15T10:44:14Z</time>
      </trkpt>
      <trkpt lat="49.08897" lon="2.08961">
        <ele>83.29</ele>
        <time>2013-12-15T10:44:20Z</time>
      </trkpt>
      <trkpt lat="49.08913" lon="2.08966">
        <ele>83.29</ele>
        <time>2013-12-15T10:44:35Z</time>
      </trkpt>
      <trkpt lat="49.08928" lon="2.08971">
        <ele>83.77</ele>
        <time>2013-12-15T10:44:49Z</time>
      </trkpt>
      <trkpt lat="49.08942" lon="2.08976">
        <ele>84.25</ele>
        <time>2013-12-15T10:45:03Z</time>
      </trkpt>
      <trkpt lat="49.08956" lon="2.08982">
        <ele>84.25</ele>
        <time>2013-12-15T10:45:17Z</time>
      </trkpt>
      <trkpt lat="49.08973" lon="2.08987">
        <ele>84.73</ele>
        <time>2013-12-15T10:45:34Z</time>
      </trkpt>
      <trkpt lat="49.08986" lon="2.08992">
        <ele>85.69</ele>
        <time>2013-12-15T10:45:48Z</time>
      </trkpt>
      <trkpt lat="49.09" lon="2.08997">
        <ele>85.69</ele>
        <time>2013-12-15T10:46:02Z</time>
      </trkpt>
      <trkpt lat="49.09013" lon="2.09002">
        <ele>85.69</ele>
        <time>2013-12-15T10:46:16Z</time>
      </trkpt>
      <trkpt lat="49.09027" lon="2.09006">
        <ele>86.18</ele>
        <time>2013-12-15T10:46:29Z</time>
      </trkpt>
      <trkpt lat="49.0904" lon="2.09011">
        <ele>86.18</ele>
        <time>2013-12-15T10:46:42Z</time>
      </trkpt>
      <trkpt lat="49.09055" lon="2.09019">
        <ele>85.69</ele>
        <time>2013-12-15T10:46:57Z</time>
      </trkpt>
      <trkpt lat="49.09068" lon="2.09024">
        <ele>86.66</ele>
        <time>2013-12-15T10:47:11Z</time>
      </trkpt>
      <trkpt lat="49.09068" lon="2.09025">
        <ele>86.66</ele>
        <time>2013-12-15T10:47:12Z</time>
      </trkpt>
      <trkpt lat="49.09069" lon="2.09026">
        <ele>86.66</ele>
        <time>2013-12-15T10:47:13Z</time>
      </trkpt>
      <trkpt lat="49.09071" lon="2.09031">
        <ele>86.66</ele>
        <time>2013-12-15T10:47:19Z</time>
      </trkpt>
      <trkpt lat="49.09073" lon="2.09032">
        <ele>86.66</ele>
        <time>2013-12-15T10:47:20Z</time>
      </trkpt>
      <trkpt lat="49.09074" lon="2.09033">
        <ele>86.66</ele>
        <time>2013-12-15T10:47:21Z</time>
      </trkpt>
      <trkpt lat="49.09086" lon="2.09042">
        <ele>87.14</ele>
        <time>2013-12-15T10:47:33Z</time>
      </trkpt>
      <trkpt lat="49.091" lon="2.09055">
        <ele>87.14</ele>
        <time>2013-12-15T10:47:47Z</time>
      </trkpt>
      <trkpt lat="49.09115" lon="2.0907">
        <ele>87.14</ele>
        <time>2013-12-15T10:48:03Z</time>
      </trkpt>
      <trkpt lat="49.09117" lon="2.09072">
        <ele>88.1</ele>
        <time>2013-12-15T10:48:13Z</time>
      </trkpt>
      <trkpt lat="49.09115" lon="2.09066">
        <ele>88.1</ele>
        <time>2013-12-15T10:48:36Z</time>
      </trkpt>
      <trkpt lat="49.09125" lon="2.09079">
        <ele>87.62</ele>
        <time>2013-12-15T10:48:51Z</time>
      </trkpt>
      <trkpt lat="49.09141" lon="2.09092">
        <ele>87.62</ele>
        <time>2013-12-15T10:49:07Z</time>
      </trkpt>
      <trkpt lat="49.09144" lon="2.09095">
        <ele>88.1</ele>
        <time>2013-12-15T10:49:10Z</time>
      </trkpt>
      <trkpt lat="49.09144" lon="2.09097">
        <ele>87.62</ele>
        <time>2013-12-15T10:49:11Z</time>
      </trkpt>
      <trkpt lat="49.09145" lon="2.09098">
        <ele>88.1</ele>
        <time>2013-12-15T10:49:12Z</time>
      </trkpt>
      <trkpt lat="49.09147" lon="2.091">
        <ele>88.1</ele>
        <time>2013-12-15T10:49:15Z</time>
      </trkpt>
      <trkpt lat="49.09148" lon="2.09101">
        <ele>88.1</ele>
        <time>2013-12-15T10:49:16Z</time>
      </trkpt>
      <trkpt lat="49.09163" lon="2.09116">
        <ele>88.1</ele>
        <time>2013-12-15T10:49:33Z</time>
      </trkpt>
      <trkpt lat="49.09176" lon="2.09129">
        <ele>88.1</ele>
        <time>2013-12-15T10:49:48Z</time>
      </trkpt>
      <trkpt lat="49.09191" lon="2.0914">
        <ele>88.58</ele>
        <time>2013-12-15T10:50:03Z</time>
      </trkpt>
      <trkpt lat="49.09203" lon="2.09153">
        <ele>89.06</ele>
        <time>2013-12-15T10:50:18Z</time>
      </trkpt>
      <trkpt lat="49.09213" lon="2.09163">
        <ele>89.54</ele>
        <time>2013-12-15T10:50:30Z</time>
      </trkpt>
      <trkpt lat="49.09226" lon="2.09173">
        <ele>89.06</ele>
        <time>2013-12-15T10:50:42Z</time>
      </trkpt>
      <trkpt lat="49.09236" lon="2.09182">
        <ele>89.54</ele>
        <time>2013-12-15T10:50:54Z</time>
      </trkpt>
      <trkpt lat="49.09237" lon="2.09184">
        <ele>89.54</ele>
        <time>2013-12-15T10:50:55Z</time>
      </trkpt>
      <trkpt lat="49.09238" lon="2.09185">
        <ele>89.54</ele>
        <time>2013-12-15T10:50:56Z</time>
      </trkpt>
      <trkpt lat="49.09239" lon="2.09186">
        <ele>89.54</ele>
        <time>2013-12-15T10:50:57Z</time>
      </trkpt>
      <trkpt lat="49.0924" lon="2.09187">
        <ele>89.54</ele>
        <time>2013-12-15T10:50:58Z</time>
      </trkpt>
      <trkpt lat="49.09252" lon="2.09201">
        <ele>90.02</ele>
        <time>2013-12-15T10:51:12Z</time>
      </trkpt>
      <trkpt lat="49.09263" lon="2.09213">
        <ele>90.02</ele>
        <time>2013-12-15T10:51:26Z</time>
      </trkpt>
      <trkpt lat="49.09266" lon="2.09215">
        <ele>90.02</ele>
        <time>2013-12-15T10:51:30Z</time>
      </trkpt>
      <trkpt lat="49.09267" lon="2.09217">
        <ele>90.5</ele>
        <time>2013-12-15T10:51:31Z</time>
      </trkpt>
      <trkpt lat="49.09279" lon="2.09232">
        <ele>90.5</ele>
        <time>2013-12-15T10:51:45Z</time>
      </trkpt>
      <trkpt lat="49.09289" lon="2.09245">
        <ele>90.98</ele>
        <time>2013-12-15T10:51:58Z</time>
      </trkpt>
      <trkpt lat="49.09304" lon="2.0926">
        <ele>90.98</ele>
        <time>2013-12-15T10:52:14Z</time>
      </trkpt>
      <trkpt lat="49.09316" lon="2.09273">
        <ele>91.46</ele>
        <time>2013-12-15T10:52:28Z</time>
      </trkpt>
      <trkpt lat="49.09321" lon="2.0928">
        <ele>91.94</ele>
        <time>2013-12-15T10:52:35Z</time>
      </trkpt>
      <trkpt lat="49.09322" lon="2.0928">
        <ele>92.42</ele>
        <time>2013-12-15T10:52:36Z</time>
      </trkpt>
      <trkpt lat="49.09335" lon="2.09291">
        <ele>91.94</ele>
        <time>2013-12-15T10:52:50Z</time>
      </trkpt>
      <trkpt lat="49.09346" lon="2.09296">
        <ele>92.42</ele>
        <time>2013-12-15T10:53:05Z</time>
      </trkpt>
      <trkpt lat="49.09353" lon="2.09304">
        <ele>92.42</ele>
        <time>2013-12-15T10:53:17Z</time>
      </trkpt>
      <trkpt lat="49.09353" lon="2.09306">
        <ele>92.42</ele>
        <time>2013-12-15T10:53:20Z</time>
      </trkpt>
      <trkpt lat="49.09357" lon="2.09317">
        <ele>92.9</ele>
        <time>2013-12-15T10:53:33Z</time>
      </trkpt>
      <trkpt lat="49.09368" lon="2.0933">
        <ele>93.39</ele>
        <time>2013-12-15T10:53:48Z</time>
      </trkpt>
      <trkpt lat="49.09377" lon="2.09342">
        <ele>93.87</ele>
        <time>2013-12-15T10:54:05Z</time>
      </trkpt>
      <trkpt lat="49.09383" lon="2.0935">
        <ele>94.83</ele>
        <time>2013-12-15T10:54:21Z</time>
      </trkpt>
      <trkpt lat="49.09396" lon="2.09364">
        <ele>94.83</ele>
        <time>2013-12-15T10:54:36Z</time>
      </trkpt>
      <trkpt lat="49.09407" lon="2.09381">
        <ele>95.79</ele>
        <time>2013-12-15T10:54:52Z</time>
      </trkpt>
      <trkpt lat="49.0942" lon="2.09398">
        <ele>97.71</ele>
        <time>2013-12-15T10:55:08Z</time>
      </trkpt>
      <trkpt lat="49.09423" lon="2.09408">
        <ele>97.23</ele>
        <time>2013-12-15T10:55:24Z</time>
      </trkpt>
      <trkpt lat="49.09436" lon="2.09434">
        <ele>98.67</ele>
        <time>2013-12-15T10:55:46Z</time>
      </trkpt>
      <trkpt lat="49.09454" lon="2.09464">
        <ele>100.11</ele>
        <time>2013-12-15T10:56:09Z</time>
      </trkpt>
      <trkpt lat="49.09462" lon="2.09473">
        <ele>101.08</ele>
        <time>2013-12-15T10:56:26Z</time>
      </trkpt>
      <trkpt lat="49.09473" lon="2.09485">
        <ele>102.04</ele>
        <time>2013-12-15T10:56:44Z</time>
      </trkpt>
      <trkpt lat="49.09489" lon="2.09497">
        <ele>102.52</ele>
        <time>2013-12-15T10:57:16Z</time>
      </trkpt>
      <trkpt lat="49.09498" lon="2.09498">
        <ele>102.52</ele>
        <time>2013-12-15T10:57:34Z</time>
      </trkpt>
      <trkpt lat="49.09503" lon="2.09514">
        <ele>102.52</ele>
        <time>2013-12-15T10:58:11Z</time>
      </trkpt>
      <trkpt lat="49.09502" lon="2.09515">
        <ele>102.52</ele>
        <time>2013-12-15T10:58:33Z</time>
      </trkpt>
      <trkpt lat="49.09508" lon="2.09521">
        <ele>102.52</ele>
        <time>2013-12-15T11:01:37Z</time>
      </trkpt>
      <trkpt lat="49.09501" lon="2.09531">
        <ele>102.52</ele>
        <time>2013-12-15T11:01:49Z</time>
      </trkpt>
      <trkpt lat="49.09491" lon="2.09543">
        <ele>102.52</ele>
        <time>2013-12-15T11:01:52Z</time>
      </trkpt>
      <trkpt lat="49.09494" lon="2.09564">
        <ele>103.48</ele>
        <time>2013-12-15T11:02:09Z</time>
      </trkpt>
      <trkpt lat="49.09493" lon="2.09578">
        <ele>105.4</ele>
        <time>2013-12-15T11:02:27Z</time>
      </trkpt>
      <trkpt lat="49.09492" lon="2.09586">
        <ele>105.4</ele>
        <time>2013-12-15T11:02:51Z</time>
      </trkpt>
      <trkpt lat="49.09493" lon="2.09597">
        <ele>105.88</ele>
        <time>2013-12-15T11:03:09Z</time>
      </trkpt>
      <trkpt lat="49.09493" lon="2.09628">
        <ele>107.81</ele>
        <time>2013-12-15T11:03:32Z</time>
      </trkpt>
      <trkpt lat="49.09491" lon="2.0964">
        <ele>108.29</ele>
        <time>2013-12-15T11:03:44Z</time>
      </trkpt>
      <trkpt lat="49.09493" lon="2.09652">
        <ele>108.29</ele>
        <time>2013-12-15T11:03:57Z</time>
      </trkpt>
      <trkpt lat="49.09494" lon="2.09668">
        <ele>108.29</ele>
        <time>2013-12-15T11:04:08Z</time>
      </trkpt>
      <trkpt lat="49.09493" lon="2.09677">
        <ele>108.29</ele>
        <time>2013-12-15T11:04:14Z</time>
      </trkpt>
      <trkpt lat="49.09494" lon="2.09703">
        <ele>108.77</ele>
        <time>2013-12-15T11:04:30Z</time>
      </trkpt>
      <trkpt lat="49.09497" lon="2.09719">
        <ele>108.77</ele>
        <time>2013-12-15T11:04:41Z</time>
      </trkpt>
      <trkpt lat="49.09499" lon="2.09724">
        <ele>108.77</ele>
        <time>2013-12-15T11:04:43Z</time>
      </trkpt>
      <trkpt lat="49.09502" lon="2.09732">
        <ele>109.25</ele>
        <time>2013-12-15T11:04:50Z</time>
      </trkpt>
      <trkpt lat="49.09508" lon="2.09751">
        <ele>109.25</ele>
        <time>2013-12-15T11:05:01Z</time>
      </trkpt>
      <trkpt lat="49.09515" lon="2.09766">
        <ele>108.77</ele>
        <time>2013-12-15T11:05:12Z</time>
      </trkpt>
      <trkpt lat="49.09518" lon="2.09779">
        <ele>108.77</ele>
        <time>2013-12-15T11:05:25Z</time>
      </trkpt>
      <trkpt lat="49.0951" lon="2.09787">
        <ele>108.77</ele>
        <time>2013-12-15T11:05:37Z</time>
      </trkpt>
      <trkpt lat="49.09509" lon="2.09787">
        <ele>108.29</ele>
        <time>2013-12-15T11:05:38Z</time>
      </trkpt>
      <trkpt lat="49.09501" lon="2.09789">
        <ele>108.77</ele>
        <time>2013-12-15T11:05:47Z</time>
      </trkpt>
      <trkpt lat="49.09494" lon="2.0979">
        <ele>108.77</ele>
        <time>2013-12-15T11:05:53Z</time>
      </trkpt>
      <trkpt lat="49.09493" lon="2.09791">
        <ele>108.29</ele>
        <time>2013-12-15T11:05:54Z</time>
      </trkpt>
      <trkpt lat="49.09489" lon="2.09793">
        <ele>108.77</ele>
        <time>2013-12-15T11:05:58Z</time>
      </trkpt>
      <trkpt lat="49.09488" lon="2.09795">
        <ele>108.29</ele>
        <time>2013-12-15T11:06:01Z</time>
      </trkpt>
      <trkpt lat="49.09487" lon="2.09796">
        <ele>108.29</ele>
        <time>2013-12-15T11:06:02Z</time>
      </trkpt>
      <trkpt lat="49.09479" lon="2.098">
        <ele>108.29</ele>
        <time>2013-12-15T11:06:13Z</time>
      </trkpt>
      <trkpt lat="49.09473" lon="2.09804">
        <ele>108.29</ele>
        <time>2013-12-15T11:06:26Z</time>
      </trkpt>
      <trkpt lat="49.09472" lon="2.09805">
        <ele>108.29</ele>
        <time>2013-12-15T11:06:27Z</time>
      </trkpt>
      <trkpt lat="49.0947" lon="2.09808">
        <ele>108.29</ele>
        <time>2013-12-15T11:06:29Z</time>
      </trkpt>
      <trkpt lat="49.09462" lon="2.09815">
        <ele>107.81</ele>
        <time>2013-12-15T11:06:39Z</time>
      </trkpt>
      <trkpt lat="49.09451" lon="2.09821">
        <ele>107.81</ele>
        <time>2013-12-15T11:06:52Z</time>
      </trkpt>
      <trkpt lat="49.09435" lon="2.09831">
        <ele>107.32</ele>
        <time>2013-12-15T11:07:10Z</time>
      </trkpt>
      <trkpt lat="49.09417" lon="2.09842">
        <ele>107.32</ele>
        <time>2013-12-15T11:07:28Z</time>
      </trkpt>
      <trkpt lat="49.09395" lon="2.09858">
        <ele>106.84</ele>
        <time>2013-12-15T11:07:51Z</time>
      </trkpt>
      <trkpt lat="49.0937" lon="2.09863">
        <ele>106.36</ele>
        <time>2013-12-15T11:08:14Z</time>
      </trkpt>
      <trkpt lat="49.09369" lon="2.09863">
        <ele>106.36</ele>
        <time>2013-12-15T11:08:15Z</time>
      </trkpt>
      <trkpt lat="49.09352" lon="2.09866">
        <ele>105.4</ele>
        <time>2013-12-15T11:08:31Z</time>
      </trkpt>
      <trkpt lat="49.09336" lon="2.0987">
        <ele>105.4</ele>
        <time>2013-12-15T11:08:45Z</time>
      </trkpt>
      <trkpt lat="49.0932" lon="2.09872">
        <ele>105.4</ele>
        <time>2013-12-15T11:08:59Z</time>
      </trkpt>
      <trkpt lat="49.09311" lon="2.09874">
        <ele>105.4</ele>
        <time>2013-12-15T11:09:13Z</time>
      </trkpt>
      <trkpt lat="49.09306" lon="2.09875">
        <ele>105.4</ele>
        <time>2013-12-15T11:09:20Z</time>
      </trkpt>
      <trkpt lat="49.09305" lon="2.09875">
        <ele>105.4</ele>
        <time>2013-12-15T11:09:21Z</time>
      </trkpt>
      <trkpt lat="49.09303" lon="2.09875">
        <ele>105.4</ele>
        <time>2013-12-15T11:09:22Z</time>
      </trkpt>
      <trkpt lat="49.09302" lon="2.09876">
        <ele>105.4</ele>
        <time>2013-12-15T11:09:23Z</time>
      </trkpt>
      <trkpt lat="49.09294" lon="2.09877">
        <ele>104.44</ele>
        <time>2013-12-15T11:09:32Z</time>
      </trkpt>
      <trkpt lat="49.09293" lon="2.09878">
        <ele>105.4</ele>
        <time>2013-12-15T11:09:33Z</time>
      </trkpt>
      <trkpt lat="49.09292" lon="2.09879">
        <ele>105.4</ele>
        <time>2013-12-15T11:09:34Z</time>
      </trkpt>
      <trkpt lat="49.09291" lon="2.09879">
        <ele>105.4</ele>
        <time>2013-12-15T11:09:35Z</time>
      </trkpt>
      <trkpt lat="49.0929" lon="2.09879">
        <ele>105.4</ele>
        <time>2013-12-15T11:09:36Z</time>
      </trkpt>
      <trkpt lat="49.09288" lon="2.09879">
        <ele>104.92</ele>
        <time>2013-12-15T11:09:37Z</time>
      </trkpt>
      <trkpt lat="49.09287" lon="2.09879">
        <ele>105.4</ele>
        <time>2013-12-15T11:09:38Z</time>
      </trkpt>
      <trkpt lat="49.09286" lon="2.0988">
        <ele>105.4</ele>
        <time>2013-12-15T11:09:39Z</time>
      </trkpt>
      <trkpt lat="49.09282" lon="2.09882">
        <ele>105.4</ele>
        <time>2013-12-15T11:09:43Z</time>
      </trkpt>
      <trkpt lat="49.09273" lon="2.09886">
        <ele>104.92</ele>
        <time>2013-12-15T11:09:53Z</time>
      </trkpt>
      <trkpt lat="49.09261" lon="2.09887">
        <ele>104.92</ele>
        <time>2013-12-15T11:10:02Z</time>
      </trkpt>
      <trkpt lat="49.0926" lon="2.09887">
        <ele>104.92</ele>
        <time>2013-12-15T11:10:03Z</time>
      </trkpt>
      <trkpt lat="49.09259" lon="2.09888">
        <ele>105.4</ele>
        <time>2013-12-15T11:10:04Z</time>
      </trkpt>
      <trkpt lat="49.09258" lon="2.09888">
        <ele>104.92</ele>
        <time>2013-12-15T11:10:05Z</time>
      </trkpt>
      <trkpt lat="49.09247" lon="2.09891">
        <ele>104.92</ele>
        <time>2013-12-15T11:10:17Z</time>
      </trkpt>
      <trkpt lat="49.09236" lon="2.09894">
        <ele>104.44</ele>
        <time>2013-12-15T11:10:28Z</time>
      </trkpt>
      <trkpt lat="49.09235" lon="2.09894">
        <ele>104.92</ele>
        <time>2013-12-15T11:10:29Z</time>
      </trkpt>
      <trkpt lat="49.09234" lon="2.09895">
        <ele>104.92</ele>
        <time>2013-12-15T11:10:30Z</time>
      </trkpt>
      <trkpt lat="49.0923" lon="2.09897">
        <ele>104.44</ele>
        <time>2013-12-15T11:10:35Z</time>
      </trkpt>
      <trkpt lat="49.09229" lon="2.09897">
        <ele>104.44</ele>
        <time>2013-12-15T11:10:36Z</time>
      </trkpt>
      <trkpt lat="49.09209" lon="2.09903">
        <ele>104.92</ele>
        <time>2013-12-15T11:10:55Z</time>
      </trkpt>
      <trkpt lat="49.09207" lon="2.09905">
        <ele>104.92</ele>
        <time>2013-12-15T11:10:57Z</time>
      </trkpt>
      <trkpt lat="49.09206" lon="2.09906">
        <ele>104.92</ele>
        <time>2013-12-15T11:10:58Z</time>
      </trkpt>
      <trkpt lat="49.09191" lon="2.09911">
        <ele>104.44</ele>
        <time>2013-12-15T11:11:12Z</time>
      </trkpt>
      <trkpt lat="49.09181" lon="2.09912">
        <ele>104.44</ele>
        <time>2013-12-15T11:11:23Z</time>
      </trkpt>
      <trkpt lat="49.09179" lon="2.09911">
        <ele>104.44</ele>
        <time>2013-12-15T11:11:24Z</time>
      </trkpt>
      <trkpt lat="49.09178" lon="2.0991">
        <ele>104.44</ele>
        <time>2013-12-15T11:11:25Z</time>
      </trkpt>
      <trkpt lat="49.09177" lon="2.09909">
        <ele>104.44</ele>
        <time>2013-12-15T11:11:26Z</time>
      </trkpt>
      <trkpt lat="49.09176" lon="2.09909">
        <ele>104.44</ele>
        <time>2013-12-15T11:11:27Z</time>
      </trkpt>
      <trkpt lat="49.09166" lon="2.09908">
        <ele>104.44</ele>
        <time>2013-12-15T11:11:38Z</time>
      </trkpt>
      <trkpt lat="49.09164" lon="2.09904">
        <ele>104.44</ele>
        <time>2013-12-15T11:11:51Z</time>
      </trkpt>
      <trkpt lat="49.09165" lon="2.09904">
        <ele>104.92</ele>
        <time>2013-12-15T11:12:02Z</time>
      </trkpt>
      <trkpt lat="49.09164" lon="2.09906">
        <ele>104.44</ele>
        <time>2013-12-15T11:12:12Z</time>
      </trkpt>
      <trkpt lat="49.09165" lon="2.09907">
        <ele>104.44</ele>
        <time>2013-12-15T11:12:26Z</time>
      </trkpt>
      <trkpt lat="49.09157" lon="2.0991">
        <ele>104.92</ele>
        <time>2013-12-15T11:12:37Z</time>
      </trkpt>
      <trkpt lat="49.0915" lon="2.09912">
        <ele>104.44</ele>
        <time>2013-12-15T11:12:43Z</time>
      </trkpt>
      <trkpt lat="49.09149" lon="2.09913">
        <ele>104.44</ele>
        <time>2013-12-15T11:12:44Z</time>
      </trkpt>
      <trkpt lat="49.09148" lon="2.09914">
        <ele>104.44</ele>
        <time>2013-12-15T11:12:45Z</time>
      </trkpt>
      <trkpt lat="49.09146" lon="2.09914">
        <ele>104.44</ele>
        <time>2013-12-15T11:12:46Z</time>
      </trkpt>
      <trkpt lat="49.09145" lon="2.09915">
        <ele>104.44</ele>
        <time>2013-12-15T11:12:47Z</time>
      </trkpt>
      <trkpt lat="49.09144" lon="2.09915">
        <ele>104.92</ele>
        <time>2013-12-15T11:12:48Z</time>
      </trkpt>
      <trkpt lat="49.09143" lon="2.09916">
        <ele>104.44</ele>
        <time>2013-12-15T11:12:49Z</time>
      </trkpt>
      <trkpt lat="49.09117" lon="2.0993">
        <ele>104.44</ele>
        <time>2013-12-15T11:13:13Z</time>
      </trkpt>
      <trkpt lat="49.09095" lon="2.09939">
        <ele>104.44</ele>
        <time>2013-12-15T11:13:30Z</time>
      </trkpt>
      <trkpt lat="49.09084" lon="2.09947">
        <ele>104.44</ele>
        <time>2013-12-15T11:13:44Z</time>
      </trkpt>
      <trkpt lat="49.09076" lon="2.09953">
        <ele>103.96</ele>
        <time>2013-12-15T11:13:53Z</time>
      </trkpt>
      <trkpt lat="49.09066" lon="2.09959">
        <ele>103.96</ele>
        <time>2013-12-15T11:14:02Z</time>
      </trkpt>
      <trkpt lat="49.09065" lon="2.0996">
        <ele>103.96</ele>
        <time>2013-12-15T11:14:03Z</time>
      </trkpt>
      <trkpt lat="49.09052" lon="2.09972">
        <ele>103.48</ele>
        <time>2013-12-15T11:14:17Z</time>
      </trkpt>
      <trkpt lat="49.09039" lon="2.09984">
        <ele>102.52</ele>
        <time>2013-12-15T11:14:31Z</time>
      </trkpt>
      <trkpt lat="49.0902" lon="2.1">
        <ele>102.04</ele>
        <time>2013-12-15T11:14:50Z</time>
      </trkpt>
      <trkpt lat="49.0902" lon="2.10001">
        <ele>103.48</ele>
        <time>2013-12-15T11:14:56Z</time>
      </trkpt>
      <trkpt lat="49.09019" lon="2.10002">
        <ele>103</ele>
        <time>2013-12-15T11:14:57Z</time>
      </trkpt>
      <trkpt lat="49.0902" lon="2.10005">
        <ele>103.48</ele>
        <time>2013-12-15T11:15:06Z</time>
      </trkpt>
      <trkpt lat="49.09017" lon="2.10007">
        <ele>103</ele>
        <time>2013-12-15T11:15:18Z</time>
      </trkpt>
      <trkpt lat="49.09014" lon="2.10009">
        <ele>102.52</ele>
        <time>2013-12-15T11:15:20Z</time>
      </trkpt>
      <trkpt lat="49.09013" lon="2.1001">
        <ele>102.52</ele>
        <time>2013-12-15T11:15:21Z</time>
      </trkpt>
      <trkpt lat="49.09012" lon="2.10011">
        <ele>102.52</ele>
        <time>2013-12-15T11:15:22Z</time>
      </trkpt>
      <trkpt lat="49.09011" lon="2.10012">
        <ele>102.04</ele>
        <time>2013-12-15T11:15:23Z</time>
      </trkpt>
      <trkpt lat="49.0901" lon="2.10013">
        <ele>102.04</ele>
        <time>2013-12-15T11:15:24Z</time>
      </trkpt>
      <trkpt lat="49.08991" lon="2.10026">
        <ele>101.56</ele>
        <time>2013-12-15T11:15:41Z</time>
      </trkpt>
      <trkpt lat="49.08987" lon="2.10032">
        <ele>102.04</ele>
        <time>2013-12-15T11:15:46Z</time>
      </trkpt>
      <trkpt lat="49.08981" lon="2.10039">
        <ele>102.04</ele>
        <time>2013-12-15T11:15:59Z</time>
      </trkpt>
      <trkpt lat="49.08979" lon="2.10041">
        <ele>102.04</ele>
        <time>2013-12-15T11:16:01Z</time>
      </trkpt>
      <trkpt lat="49.08961" lon="2.10059">
        <ele>101.56</ele>
        <time>2013-12-15T11:16:19Z</time>
      </trkpt>
      <trkpt lat="49.08956" lon="2.10062">
        <ele>101.56</ele>
        <time>2013-12-15T11:16:34Z</time>
      </trkpt>
      <trkpt lat="49.08945" lon="2.10082">
        <ele>101.56</ele>
        <time>2013-12-15T11:16:50Z</time>
      </trkpt>
      <trkpt lat="49.08946" lon="2.10091">
        <ele>101.08</ele>
        <time>2013-12-15T11:17:04Z</time>
      </trkpt>
      <trkpt lat="49.08945" lon="2.1009">
        <ele>101.56</ele>
        <time>2013-12-15T11:17:25Z</time>
      </trkpt>
      <trkpt lat="49.0895" lon="2.10108">
        <ele>101.56</ele>
        <time>2013-12-15T11:17:46Z</time>
      </trkpt>
      <trkpt lat="49.08951" lon="2.10114">
        <ele>101.56</ele>
        <time>2013-12-15T11:17:51Z</time>
      </trkpt>
      <trkpt lat="49.0896" lon="2.10148">
        <ele>101.08</ele>
        <time>2013-12-15T11:18:14Z</time>
      </trkpt>
      <trkpt lat="49.08961" lon="2.10152">
        <ele>100.6</ele>
        <time>2013-12-15T11:18:17Z</time>
      </trkpt>
      <trkpt lat="49.08962" lon="2.10156">
        <ele>100.6</ele>
        <time>2013-12-15T11:18:20Z</time>
      </trkpt>
      <trkpt lat="49.08963" lon="2.10158">
        <ele>100.6</ele>
        <time>2013-12-15T11:18:21Z</time>
      </trkpt>
      <trkpt lat="49.08971" lon="2.10183">
        <ele>100.6</ele>
        <time>2013-12-15T11:18:37Z</time>
      </trkpt>
      <trkpt lat="49.08976" lon="2.10206">
        <ele>100.6</ele>
        <time>2013-12-15T11:18:55Z</time>
      </trkpt>
      <trkpt lat="49.08982" lon="2.10229">
        <ele>100.11</ele>
        <time>2013-12-15T11:19:08Z</time>
      </trkpt>
      <trkpt lat="49.08984" lon="2.10236">
        <ele>100.11</ele>
        <time>2013-12-15T11:19:12Z</time>
      </trkpt>
      <trkpt lat="49.08985" lon="2.10241">
        <ele>100.11</ele>
        <time>2013-12-15T11:19:15Z</time>
      </trkpt>
      <trkpt lat="49.08985" lon="2.10243">
        <ele>100.11</ele>
        <time>2013-12-15T11:19:16Z</time>
      </trkpt>
      <trkpt lat="49.08988" lon="2.10253">
        <ele>100.11</ele>
        <time>2013-12-15T11:19:23Z</time>
      </trkpt>
      <trkpt lat="49.08989" lon="2.10255">
        <ele>100.11</ele>
        <time>2013-12-15T11:19:24Z</time>
      </trkpt>
      <trkpt lat="49.08989" lon="2.10257">
        <ele>99.63</ele>
        <time>2013-12-15T11:19:25Z</time>
      </trkpt>
      <trkpt lat="49.08994" lon="2.10278">
        <ele>99.63</ele>
        <time>2013-12-15T11:19:38Z</time>
      </trkpt>
      <trkpt lat="49.08999" lon="2.10287">
        <ele>100.11</ele>
        <time>2013-12-15T11:19:50Z</time>
      </trkpt>
      <trkpt lat="49.09003" lon="2.10307">
        <ele>99.63</ele>
        <time>2013-12-15T11:20:03Z</time>
      </trkpt>
      <trkpt lat="49.09005" lon="2.10316">
        <ele>99.63</ele>
        <time>2013-12-15T11:20:08Z</time>
      </trkpt>
      <trkpt lat="49.09005" lon="2.10318">
        <ele>99.15</ele>
        <time>2013-12-15T11:20:09Z</time>
      </trkpt>
      <trkpt lat="49.09008" lon="2.10325">
        <ele>99.15</ele>
        <time>2013-12-15T11:20:14Z</time>
      </trkpt>
      <trkpt lat="49.09009" lon="2.10326">
        <ele>99.15</ele>
        <time>2013-12-15T11:20:15Z</time>
      </trkpt>
      <trkpt lat="49.09009" lon="2.10328">
        <ele>99.15</ele>
        <time>2013-12-15T11:20:16Z</time>
      </trkpt>
      <trkpt lat="49.09009" lon="2.1033">
        <ele>99.15</ele>
        <time>2013-12-15T11:20:17Z</time>
      </trkpt>
      <trkpt lat="49.09011" lon="2.10333">
        <ele>99.63</ele>
        <time>2013-12-15T11:20:20Z</time>
      </trkpt>
      <trkpt lat="49.09012" lon="2.10335">
        <ele>99.63</ele>
        <time>2013-12-15T11:20:21Z</time>
      </trkpt>
      <trkpt lat="49.09012" lon="2.10337">
        <ele>99.15</ele>
        <time>2013-12-15T11:20:22Z</time>
      </trkpt>
      <trkpt lat="49.09015" lon="2.10351">
        <ele>99.15</ele>
        <time>2013-12-15T11:20:34Z</time>
      </trkpt>
      <trkpt lat="49.09019" lon="2.10363">
        <ele>99.15</ele>
        <time>2013-12-15T11:20:47Z</time>
      </trkpt>
      <trkpt lat="49.09022" lon="2.10378">
        <ele>98.67</ele>
        <time>2013-12-15T11:20:57Z</time>
      </trkpt>
      <trkpt lat="49.09022" lon="2.10379">
        <ele>99.63</ele>
        <time>2013-12-15T11:20:58Z</time>
      </trkpt>
      <trkpt lat="49.09022" lon="2.10381">
        <ele>99.63</ele>
        <time>2013-12-15T11:20:59Z</time>
      </trkpt>
      <trkpt lat="49.09023" lon="2.10382">
        <ele>99.15</ele>
        <time>2013-12-15T11:21:00Z</time>
      </trkpt>
      <trkpt lat="49.09027" lon="2.10396">
        <ele>98.67</ele>
        <time>2013-12-15T11:21:12Z</time>
      </trkpt>
      <trkpt lat="49.09028" lon="2.10395">
        <ele>98.67</ele>
        <time>2013-12-15T11:21:31Z</time>
      </trkpt>
      <trkpt lat="49.09029" lon="2.10393">
        <ele>99.15</ele>
        <time>2013-12-15T11:21:45Z</time>
      </trkpt>
      <trkpt lat="49.0903" lon="2.10395">
        <ele>98.67</ele>
        <time>2013-12-15T11:21:57Z</time>
      </trkpt>
      <trkpt lat="49.0903" lon="2.10396">
        <ele>98.19</ele>
        <time>2013-12-15T11:21:59Z</time>
      </trkpt>
      <trkpt lat="49.09033" lon="2.10403">
        <ele>98.19</ele>
        <time>2013-12-15T11:22:10Z</time>
      </trkpt>
      <trkpt lat="49.09033" lon="2.10406">
        <ele>98.67</ele>
        <time>2013-12-15T11:22:11Z</time>
      </trkpt>
      <trkpt lat="49.09034" lon="2.10412">
        <ele>98.67</ele>
        <time>2013-12-15T11:22:17Z</time>
      </trkpt>
      <trkpt lat="49.09035" lon="2.10414">
        <ele>98.67</ele>
        <time>2013-12-15T11:22:18Z</time>
      </trkpt>
      <trkpt lat="49.09041" lon="2.10438">
        <ele>98.19</ele>
        <time>2013-12-15T11:22:32Z</time>
      </trkpt>
      <trkpt lat="49.09045" lon="2.1045">
        <ele>98.67</ele>
        <time>2013-12-15T11:22:41Z</time>
      </trkpt>
      <trkpt lat="49.09046" lon="2.10456">
        <ele>98.19</ele>
        <time>2013-12-15T11:22:47Z</time>
      </trkpt>
      <trkpt lat="49.0905" lon="2.10477">
        <ele>98.19</ele>
        <time>2013-12-15T11:23:00Z</time>
      </trkpt>
      <trkpt lat="49.0905" lon="2.10486">
        <ele>98.19</ele>
        <time>2013-12-15T11:23:08Z</time>
      </trkpt>
      <trkpt lat="49.09051" lon="2.10488">
        <ele>97.71</ele>
        <time>2013-12-15T11:23:09Z</time>
      </trkpt>
      <trkpt lat="49.09056" lon="2.10512">
        <ele>97.71</ele>
        <time>2013-12-15T11:23:22Z</time>
      </trkpt>
      <trkpt lat="49.09061" lon="2.10528">
        <ele>97.71</ele>
        <time>2013-12-15T11:23:34Z</time>
      </trkpt>
      <trkpt lat="49.09063" lon="2.10535">
        <ele>97.23</ele>
        <time>2013-12-15T11:23:40Z</time>
      </trkpt>
      <trkpt lat="49.09064" lon="2.10537">
        <ele>97.23</ele>
        <time>2013-12-15T11:23:41Z</time>
      </trkpt>
      <trkpt lat="49.09065" lon="2.10539">
        <ele>97.23</ele>
        <time>2013-12-15T11:23:42Z</time>
      </trkpt>
      <trkpt lat="49.09065" lon="2.10541">
        <ele>97.23</ele>
        <time>2013-12-15T11:23:43Z</time>
      </trkpt>
      <trkpt lat="49.09066" lon="2.10543">
        <ele>97.23</ele>
        <time>2013-12-15T11:23:44Z</time>
      </trkpt>
      <trkpt lat="49.09066" lon="2.10544">
        <ele>96.75</ele>
        <time>2013-12-15T11:23:45Z</time>
      </trkpt>
      <trkpt lat="49.09071" lon="2.10564">
        <ele>96.75</ele>
        <time>2013-12-15T11:23:58Z</time>
      </trkpt>
      <trkpt lat="49.09076" lon="2.10584">
        <ele>96.27</ele>
        <time>2013-12-15T11:24:10Z</time>
      </trkpt>
      <trkpt lat="49.09084" lon="2.10608">
        <ele>95.79</ele>
        <time>2013-12-15T11:24:24Z</time>
      </trkpt>
      <trkpt lat="49.09088" lon="2.10628">
        <ele>94.83</ele>
        <time>2013-12-15T11:24:37Z</time>
      </trkpt>
      <trkpt lat="49.09095" lon="2.10652">
        <ele>94.35</ele>
        <time>2013-12-15T11:24:52Z</time>
      </trkpt>
      <trkpt lat="49.09102" lon="2.10676">
        <ele>93.87</ele>
        <time>2013-12-15T11:25:06Z</time>
      </trkpt>
      <trkpt lat="49.09105" lon="2.10684">
        <ele>93.39</ele>
        <time>2013-12-15T11:25:12Z</time>
      </trkpt>
      <trkpt lat="49.09105" lon="2.10686">
        <ele>93.87</ele>
        <time>2013-12-15T11:25:13Z</time>
      </trkpt>
      <trkpt lat="49.09106" lon="2.10688">
        <ele>93.39</ele>
        <time>2013-12-15T11:25:14Z</time>
      </trkpt>
      <trkpt lat="49.09106" lon="2.1069">
        <ele>93.87</ele>
        <time>2013-12-15T11:25:15Z</time>
      </trkpt>
      <trkpt lat="49.09107" lon="2.10692">
        <ele>93.39</ele>
        <time>2013-12-15T11:25:16Z</time>
      </trkpt>
      <trkpt lat="49.09113" lon="2.10711">
        <ele>93.39</ele>
        <time>2013-12-15T11:25:30Z</time>
      </trkpt>
      <trkpt lat="49.09117" lon="2.10729">
        <ele>92.9</ele>
        <time>2013-12-15T11:25:42Z</time>
      </trkpt>
      <trkpt lat="49.09117" lon="2.10734">
        <ele>92.9</ele>
        <time>2013-12-15T11:25:46Z</time>
      </trkpt>
      <trkpt lat="49.09118" lon="2.10735">
        <ele>92.9</ele>
        <time>2013-12-15T11:25:47Z</time>
      </trkpt>
      <trkpt lat="49.09118" lon="2.10737">
        <ele>92.9</ele>
        <time>2013-12-15T11:25:48Z</time>
      </trkpt>
      <trkpt lat="49.09119" lon="2.10738">
        <ele>92.9</ele>
        <time>2013-12-15T11:25:49Z</time>
      </trkpt>
      <trkpt lat="49.09119" lon="2.1074">
        <ele>92.9</ele>
        <time>2013-12-15T11:25:50Z</time>
      </trkpt>
      <trkpt lat="49.09125" lon="2.10763">
        <ele>92.42</ele>
        <time>2013-12-15T11:26:04Z</time>
      </trkpt>
      <trkpt lat="49.09129" lon="2.10784">
        <ele>91.46</ele>
        <time>2013-12-15T11:26:18Z</time>
      </trkpt>
      <trkpt lat="49.0913" lon="2.10786">
        <ele>91.46</ele>
        <time>2013-12-15T11:26:19Z</time>
      </trkpt>
      <trkpt lat="49.09137" lon="2.10814">
        <ele>90.98</ele>
        <time>2013-12-15T11:26:35Z</time>
      </trkpt>
      <trkpt lat="49.09143" lon="2.10837">
        <ele>90.5</ele>
        <time>2013-12-15T11:26:49Z</time>
      </trkpt>
      <trkpt lat="49.09144" lon="2.1084">
        <ele>90.5</ele>
        <time>2013-12-15T11:26:52Z</time>
      </trkpt>
      <trkpt lat="49.09145" lon="2.10842">
        <ele>90.5</ele>
        <time>2013-12-15T11:26:53Z</time>
      </trkpt>
      <trkpt lat="49.09149" lon="2.10856">
        <ele>90.02</ele>
        <time>2013-12-15T11:27:02Z</time>
      </trkpt>
      <trkpt lat="49.09156" lon="2.10881">
        <ele>89.54</ele>
        <time>2013-12-15T11:27:16Z</time>
      </trkpt>
      <trkpt lat="49.09162" lon="2.10904">
        <ele>88.58</ele>
        <time>2013-12-15T11:27:30Z</time>
      </trkpt>
      <trkpt lat="49.09167" lon="2.10925">
        <ele>88.1</ele>
        <time>2013-12-15T11:27:43Z</time>
      </trkpt>
      <trkpt lat="49.09174" lon="2.10946">
        <ele>87.62</ele>
        <time>2013-12-15T11:27:55Z</time>
      </trkpt>
      <trkpt lat="49.09176" lon="2.10963">
        <ele>87.62</ele>
        <time>2013-12-15T11:28:08Z</time>
      </trkpt>
      <trkpt lat="49.09183" lon="2.10988">
        <ele>88.1</ele>
        <time>2013-12-15T11:28:23Z</time>
      </trkpt>
      <trkpt lat="49.09186" lon="2.11">
        <ele>88.58</ele>
        <time>2013-12-15T11:28:34Z</time>
      </trkpt>
      <trkpt lat="49.09187" lon="2.10994">
        <ele>88.58</ele>
        <time>2013-12-15T11:28:51Z</time>
      </trkpt>
      <trkpt lat="49.09186" lon="2.10996">
        <ele>88.58</ele>
        <time>2013-12-15T11:29:05Z</time>
      </trkpt>
      <trkpt lat="49.09188" lon="2.11004">
        <ele>88.1</ele>
        <time>2013-12-15T11:29:16Z</time>
      </trkpt>
      <trkpt lat="49.09191" lon="2.11015">
        <ele>88.58</ele>
        <time>2013-12-15T11:29:23Z</time>
      </trkpt>
      <trkpt lat="49.09191" lon="2.11016">
        <ele>88.58</ele>
        <time>2013-12-15T11:29:24Z</time>
      </trkpt>
      <trkpt lat="49.09192" lon="2.11018">
        <ele>88.58</ele>
        <time>2013-12-15T11:29:25Z</time>
      </trkpt>
      <trkpt lat="49.09197" lon="2.1104">
        <ele>89.06</ele>
        <time>2013-12-15T11:29:39Z</time>
      </trkpt>
      <trkpt lat="49.09203" lon="2.1106">
        <ele>90.02</ele>
        <time>2013-12-15T11:29:53Z</time>
      </trkpt>
      <trkpt lat="49.09205" lon="2.11069">
        <ele>90.5</ele>
        <time>2013-12-15T11:30:03Z</time>
      </trkpt>
      <trkpt lat="49.09208" lon="2.11085">
        <ele>91.46</ele>
        <time>2013-12-15T11:30:14Z</time>
      </trkpt>
      <trkpt lat="49.09214" lon="2.11109">
        <ele>92.42</ele>
        <time>2013-12-15T11:30:27Z</time>
      </trkpt>
      <trkpt lat="49.09216" lon="2.11114">
        <ele>92.9</ele>
        <time>2013-12-15T11:30:37Z</time>
      </trkpt>
      <trkpt lat="49.09216" lon="2.11116">
        <ele>92.42</ele>
        <time>2013-12-15T11:30:38Z</time>
      </trkpt>
      <trkpt lat="49.0922" lon="2.11128">
        <ele>92.9</ele>
        <time>2013-12-15T11:30:48Z</time>
      </trkpt>
      <trkpt lat="49.09226" lon="2.11145">
        <ele>93.87</ele>
        <time>2013-12-15T11:31:01Z</time>
      </trkpt>
      <trkpt lat="49.09228" lon="2.11153">
        <ele>93.39</ele>
        <time>2013-12-15T11:31:15Z</time>
      </trkpt>
      <trkpt lat="49.09228" lon="2.11156">
        <ele>93.87</ele>
        <time>2013-12-15T11:31:16Z</time>
      </trkpt>
      <trkpt lat="49.0923" lon="2.11164">
        <ele>93.87</ele>
        <time>2013-12-15T11:31:21Z</time>
      </trkpt>
      <trkpt lat="49.0923" lon="2.11166">
        <ele>93.87</ele>
        <time>2013-12-15T11:31:22Z</time>
      </trkpt>
      <trkpt lat="49.0923" lon="2.11168">
        <ele>93.87</ele>
        <time>2013-12-15T11:31:23Z</time>
      </trkpt>
      <trkpt lat="49.09234" lon="2.11184">
        <ele>95.31</ele>
        <time>2013-12-15T11:31:32Z</time>
      </trkpt>
      <trkpt lat="49.09234" lon="2.11185">
        <ele>95.31</ele>
        <time>2013-12-15T11:31:33Z</time>
      </trkpt>
      <trkpt lat="49.09234" lon="2.11187">
        <ele>95.31</ele>
        <time>2013-12-15T11:31:34Z</time>
      </trkpt>
      <trkpt lat="49.09235" lon="2.11189">
        <ele>95.31</ele>
        <time>2013-12-15T11:31:35Z</time>
      </trkpt>
      <trkpt lat="49.09235" lon="2.11191">
        <ele>95.31</ele>
        <time>2013-12-15T11:31:36Z</time>
      </trkpt>
      <trkpt lat="49.0924" lon="2.11214">
        <ele>95.79</ele>
        <time>2013-12-15T11:31:52Z</time>
      </trkpt>
      <trkpt lat="49.09245" lon="2.11231">
        <ele>96.27</ele>
        <time>2013-12-15T11:32:06Z</time>
      </trkpt>
      <trkpt lat="49.09249" lon="2.11246">
        <ele>96.27</ele>
        <time>2013-12-15T11:32:17Z</time>
      </trkpt>
      <trkpt lat="49.09254" lon="2.11267">
        <ele>96.75</ele>
        <time>2013-12-15T11:32:33Z</time>
      </trkpt>
      <trkpt lat="49.0926" lon="2.11285">
        <ele>97.71</ele>
        <time>2013-12-15T11:32:48Z</time>
      </trkpt>
      <trkpt lat="49.09264" lon="2.11301">
        <ele>97.71</ele>
        <time>2013-12-15T11:33:01Z</time>
      </trkpt>
      <trkpt lat="49.09261" lon="2.11309">
        <ele>97.71</ele>
        <time>2013-12-15T11:33:08Z</time>
      </trkpt>
      <trkpt lat="49.0926" lon="2.11312">
        <ele>97.71</ele>
        <time>2013-12-15T11:33:11Z</time>
      </trkpt>
      <trkpt lat="49.09254" lon="2.1132">
        <ele>97.71</ele>
        <time>2013-12-15T11:33:21Z</time>
      </trkpt>
      <trkpt lat="49.09245" lon="2.11339">
        <ele>98.19</ele>
        <time>2013-12-15T11:33:37Z</time>
      </trkpt>
      <trkpt lat="49.09243" lon="2.11343">
        <ele>98.67</ele>
        <time>2013-12-15T11:33:42Z</time>
      </trkpt>
      <trkpt lat="49.09242" lon="2.11345">
        <ele>99.15</ele>
        <time>2013-12-15T11:33:43Z</time>
      </trkpt>
      <trkpt lat="49.09234" lon="2.11365">
        <ele>99.15</ele>
        <time>2013-12-15T11:33:57Z</time>
      </trkpt>
      <trkpt lat="49.09233" lon="2.1137">
        <ele>99.63</ele>
        <time>2013-12-15T11:34:01Z</time>
      </trkpt>
      <trkpt lat="49.09232" lon="2.11371">
        <ele>99.63</ele>
        <time>2013-12-15T11:34:02Z</time>
      </trkpt>
      <trkpt lat="49.09231" lon="2.11375">
        <ele>99.63</ele>
        <time>2013-12-15T11:34:06Z</time>
      </trkpt>
      <trkpt lat="49.0923" lon="2.11377">
        <ele>99.63</ele>
        <time>2013-12-15T11:34:07Z</time>
      </trkpt>
      <trkpt lat="49.09229" lon="2.11379">
        <ele>99.63</ele>
        <time>2013-12-15T11:34:08Z</time>
      </trkpt>
      <trkpt lat="49.09227" lon="2.11383">
        <ele>100.11</ele>
        <time>2013-12-15T11:34:12Z</time>
      </trkpt>
      <trkpt lat="49.09226" lon="2.11385">
        <ele>99.63</ele>
        <time>2013-12-15T11:34:13Z</time>
      </trkpt>
      <trkpt lat="49.09222" lon="2.11397">
        <ele>100.11</ele>
        <time>2013-12-15T11:34:21Z</time>
      </trkpt>
      <trkpt lat="49.09222" lon="2.11402">
        <ele>100.6</ele>
        <time>2013-12-15T11:34:26Z</time>
      </trkpt>
      <trkpt lat="49.09221" lon="2.11404">
        <ele>100.6</ele>
        <time>2013-12-15T11:34:27Z</time>
      </trkpt>
      <trkpt lat="49.0922" lon="2.11406">
        <ele>100.6</ele>
        <time>2013-12-15T11:34:28Z</time>
      </trkpt>
      <trkpt lat="49.09217" lon="2.11414">
        <ele>101.08</ele>
        <time>2013-12-15T11:34:34Z</time>
      </trkpt>
      <trkpt lat="49.09217" lon="2.11416">
        <ele>101.08</ele>
        <time>2013-12-15T11:34:35Z</time>
      </trkpt>
      <trkpt lat="49.09217" lon="2.11418">
        <ele>101.08</ele>
        <time>2013-12-15T11:34:36Z</time>
      </trkpt>
      <trkpt lat="49.09216" lon="2.1142">
        <ele>100.6</ele>
        <time>2013-12-15T11:34:37Z</time>
      </trkpt>
      <trkpt lat="49.09216" lon="2.11421">
        <ele>100.6</ele>
        <time>2013-12-15T11:34:38Z</time>
      </trkpt>
      <trkpt lat="49.09215" lon="2.11423">
        <ele>100.6</ele>
        <time>2013-12-15T11:34:39Z</time>
      </trkpt>
      <trkpt lat="49.09215" lon="2.11424">
        <ele>100.6</ele>
        <time>2013-12-15T11:34:40Z</time>
      </trkpt>
      <trkpt lat="49.09213" lon="2.11428">
        <ele>102.04</ele>
        <time>2013-12-15T11:34:43Z</time>
      </trkpt>
      <trkpt lat="49.09212" lon="2.1143">
        <ele>101.56</ele>
        <time>2013-12-15T11:34:44Z</time>
      </trkpt>
      <trkpt lat="49.09204" lon="2.11451">
        <ele>102.04</ele>
        <time>2013-12-15T11:34:57Z</time>
      </trkpt>
      <trkpt lat="49.09196" lon="2.1147">
        <ele>101.56</ele>
        <time>2013-12-15T11:35:10Z</time>
      </trkpt>
      <trkpt lat="49.09189" lon="2.11491">
        <ele>102.04</ele>
        <time>2013-12-15T11:35:23Z</time>
      </trkpt>
      <trkpt lat="49.09183" lon="2.11507">
        <ele>102.04</ele>
        <time>2013-12-15T11:35:35Z</time>
      </trkpt>
      <trkpt lat="49.09175" lon="2.11525">
        <ele>103</ele>
        <time>2013-12-15T11:35:49Z</time>
      </trkpt>
      <trkpt lat="49.09171" lon="2.11535">
        <ele>103</ele>
        <time>2013-12-15T11:35:56Z</time>
      </trkpt>
      <trkpt lat="49.09171" lon="2.11537">
        <ele>103</ele>
        <time>2013-12-15T11:35:57Z</time>
      </trkpt>
      <trkpt lat="49.0917" lon="2.11539">
        <ele>103</ele>
        <time>2013-12-15T11:35:58Z</time>
      </trkpt>
      <trkpt lat="49.0917" lon="2.11542">
        <ele>103</ele>
        <time>2013-12-15T11:35:59Z</time>
      </trkpt>
      <trkpt lat="49.09169" lon="2.11543">
        <ele>102.52</ele>
        <time>2013-12-15T11:36:00Z</time>
      </trkpt>
      <trkpt lat="49.09167" lon="2.11549">
        <ele>102.52</ele>
        <time>2013-12-15T11:36:04Z</time>
      </trkpt>
      <trkpt lat="49.09161" lon="2.11564">
        <ele>103</ele>
        <time>2013-12-15T11:36:15Z</time>
      </trkpt>
      <trkpt lat="49.09154" lon="2.11586">
        <ele>102.52</ele>
        <time>2013-12-15T11:36:28Z</time>
      </trkpt>
      <trkpt lat="49.09149" lon="2.11599">
        <ele>103</ele>
        <time>2013-12-15T11:36:37Z</time>
      </trkpt>
      <trkpt lat="49.09148" lon="2.116">
        <ele>103</ele>
        <time>2013-12-15T11:36:38Z</time>
      </trkpt>
      <trkpt lat="49.09148" lon="2.11601">
        <ele>103</ele>
        <time>2013-12-15T11:36:39Z</time>
      </trkpt>
      <trkpt lat="49.09147" lon="2.11602">
        <ele>103</ele>
        <time>2013-12-15T11:36:40Z</time>
      </trkpt>
      <trkpt lat="49.09147" lon="2.11604">
        <ele>102.52</ele>
        <time>2013-12-15T11:36:41Z</time>
      </trkpt>
      <trkpt lat="49.09138" lon="2.11625">
        <ele>102.04</ele>
        <time>2013-12-15T11:36:55Z</time>
      </trkpt>
      <trkpt lat="49.09132" lon="2.1164">
        <ele>103</ele>
        <time>2013-12-15T11:37:06Z</time>
      </trkpt>
      <trkpt lat="49.09125" lon="2.11663">
        <ele>103</ele>
        <time>2013-12-15T11:37:21Z</time>
      </trkpt>
      <trkpt lat="49.09118" lon="2.11683">
        <ele>102.52</ele>
        <time>2013-12-15T11:37:36Z</time>
      </trkpt>
      <trkpt lat="49.09109" lon="2.11705">
        <ele>102.04</ele>
        <time>2013-12-15T11:37:48Z</time>
      </trkpt>
      <trkpt lat="49.09099" lon="2.11729">
        <ele>102.04</ele>
        <time>2013-12-15T11:38:04Z</time>
      </trkpt>
      <trkpt lat="49.09092" lon="2.1174">
        <ele>102.52</ele>
        <time>2013-12-15T11:38:14Z</time>
      </trkpt>
      <trkpt lat="49.09092" lon="2.11742">
        <ele>102.52</ele>
        <time>2013-12-15T11:38:15Z</time>
      </trkpt>
      <trkpt lat="49.09095" lon="2.1174">
        <ele>102.52</ele>
        <time>2013-12-15T11:38:25Z</time>
      </trkpt>
      <trkpt lat="49.09096" lon="2.11739">
        <ele>102.52</ele>
        <time>2013-12-15T11:38:47Z</time>
      </trkpt>
      <trkpt lat="49.09094" lon="2.11739">
        <ele>102.04</ele>
        <time>2013-12-15T11:39:06Z</time>
      </trkpt>
      <trkpt lat="49.09093" lon="2.11745">
        <ele>102.04</ele>
        <time>2013-12-15T11:39:23Z</time>
      </trkpt>
      <trkpt lat="49.09092" lon="2.11747">
        <ele>102.04</ele>
        <time>2013-12-15T11:39:31Z</time>
      </trkpt>
      <trkpt lat="49.0909" lon="2.11752">
        <ele>102.04</ele>
        <time>2013-12-15T11:39:34Z</time>
      </trkpt>
      <trkpt lat="49.09089" lon="2.11754">
        <ele>102.04</ele>
        <time>2013-12-15T11:39:35Z</time>
      </trkpt>
      <trkpt lat="49.09089" lon="2.11756">
        <ele>102.04</ele>
        <time>2013-12-15T11:39:36Z</time>
      </trkpt>
      <trkpt lat="49.09088" lon="2.11757">
        <ele>102.04</ele>
        <time>2013-12-15T11:39:37Z</time>
      </trkpt>
      <trkpt lat="49.09086" lon="2.11759">
        <ele>102.52</ele>
        <time>2013-12-15T11:39:39Z</time>
      </trkpt>
      <trkpt lat="49.09084" lon="2.11759">
        <ele>102.52</ele>
        <time>2013-12-15T11:39:40Z</time>
      </trkpt>
      <trkpt lat="49.09083" lon="2.1176">
        <ele>102.04</ele>
        <time>2013-12-15T11:39:41Z</time>
      </trkpt>
      <trkpt lat="49.09082" lon="2.11762">
        <ele>101.56</ele>
        <time>2013-12-15T11:39:42Z</time>
      </trkpt>
      <trkpt lat="49.09081" lon="2.11767">
        <ele>102.04</ele>
        <time>2013-12-15T11:39:47Z</time>
      </trkpt>
      <trkpt lat="49.09081" lon="2.11768">
        <ele>101.56</ele>
        <time>2013-12-15T11:39:48Z</time>
      </trkpt>
      <trkpt lat="49.0908" lon="2.1177">
        <ele>102.04</ele>
        <time>2013-12-15T11:39:49Z</time>
      </trkpt>
      <trkpt lat="49.09079" lon="2.11773">
        <ele>101.56</ele>
        <time>2013-12-15T11:39:50Z</time>
      </trkpt>
      <trkpt lat="49.09078" lon="2.11775">
        <ele>101.56</ele>
        <time>2013-12-15T11:39:51Z</time>
      </trkpt>
      <trkpt lat="49.09078" lon="2.11777">
        <ele>101.56</ele>
        <time>2013-12-15T11:39:52Z</time>
      </trkpt>
      <trkpt lat="49.09077" lon="2.11778">
        <ele>101.56</ele>
        <time>2013-12-15T11:39:53Z</time>
      </trkpt>
      <trkpt lat="49.09076" lon="2.11779">
        <ele>101.56</ele>
        <time>2013-12-15T11:39:54Z</time>
      </trkpt>
      <trkpt lat="49.09074" lon="2.11782">
        <ele>101.56</ele>
        <time>2013-12-15T11:39:56Z</time>
      </trkpt>
      <trkpt lat="49.09074" lon="2.11783">
        <ele>101.08</ele>
        <time>2013-12-15T11:39:57Z</time>
      </trkpt>
      <trkpt lat="49.09073" lon="2.11785">
        <ele>101.08</ele>
        <time>2013-12-15T11:39:58Z</time>
      </trkpt>
      <trkpt lat="49.09073" lon="2.11787">
        <ele>101.08</ele>
        <time>2013-12-15T11:39:59Z</time>
      </trkpt>
      <trkpt lat="49.09072" lon="2.11788">
        <ele>101.08</ele>
        <time>2013-12-15T11:40:00Z</time>
      </trkpt>
      <trkpt lat="49.09072" lon="2.1179">
        <ele>101.08</ele>
        <time>2013-12-15T11:40:01Z</time>
      </trkpt>
      <trkpt lat="49.09071" lon="2.11791">
        <ele>101.08</ele>
        <time>2013-12-15T11:40:02Z</time>
      </trkpt>
      <trkpt lat="49.09067" lon="2.11807">
        <ele>100.6</ele>
        <time>2013-12-15T11:40:14Z</time>
      </trkpt>
      <trkpt lat="49.09062" lon="2.11816">
        <ele>101.08</ele>
        <time>2013-12-15T11:40:26Z</time>
      </trkpt>
      <trkpt lat="49.09053" lon="2.11836">
        <ele>101.08</ele>
        <time>2013-12-15T11:40:41Z</time>
      </trkpt>
      <trkpt lat="49.09043" lon="2.11853">
        <ele>100.6</ele>
        <time>2013-12-15T11:40:52Z</time>
      </trkpt>
      <trkpt lat="49.0904" lon="2.11858">
        <ele>100.6</ele>
        <time>2013-12-15T11:40:57Z</time>
      </trkpt>
      <trkpt lat="49.09031" lon="2.11877">
        <ele>100.6</ele>
        <time>2013-12-15T11:41:10Z</time>
      </trkpt>
      <trkpt lat="49.0902" lon="2.11902">
        <ele>100.11</ele>
        <time>2013-12-15T11:41:24Z</time>
      </trkpt>
      <trkpt lat="49.09013" lon="2.11919">
        <ele>100.11</ele>
        <time>2013-12-15T11:41:37Z</time>
      </trkpt>
      <trkpt lat="49.09003" lon="2.11942">
        <ele>100.11</ele>
        <time>2013-12-15T11:41:50Z</time>
      </trkpt>
      <trkpt lat="49.08999" lon="2.11951">
        <ele>100.11</ele>
        <time>2013-12-15T11:41:56Z</time>
      </trkpt>
      <trkpt lat="49.08999" lon="2.11952">
        <ele>99.63</ele>
        <time>2013-12-15T11:41:57Z</time>
      </trkpt>
      <trkpt lat="49.08997" lon="2.11958">
        <ele>99.63</ele>
        <time>2013-12-15T11:42:02Z</time>
      </trkpt>
      <trkpt lat="49.08996" lon="2.11959">
        <ele>100.11</ele>
        <time>2013-12-15T11:42:03Z</time>
      </trkpt>
      <trkpt lat="49.08995" lon="2.11961">
        <ele>100.11</ele>
        <time>2013-12-15T11:42:04Z</time>
      </trkpt>
      <trkpt lat="49.08987" lon="2.11978">
        <ele>100.11</ele>
        <time>2013-12-15T11:42:17Z</time>
      </trkpt>
      <trkpt lat="49.08978" lon="2.12003">
        <ele>99.63</ele>
        <time>2013-12-15T11:42:33Z</time>
      </trkpt>
      <trkpt lat="49.08977" lon="2.12006">
        <ele>99.63</ele>
        <time>2013-12-15T11:42:36Z</time>
      </trkpt>
      <trkpt lat="49.08975" lon="2.12008">
        <ele>99.15</ele>
        <time>2013-12-15T11:42:37Z</time>
      </trkpt>
      <trkpt lat="49.08967" lon="2.12023">
        <ele>99.15</ele>
        <time>2013-12-15T11:42:50Z</time>
      </trkpt>
      <trkpt lat="49.08966" lon="2.12024">
        <ele>99.63</ele>
        <time>2013-12-15T11:42:51Z</time>
      </trkpt>
      <trkpt lat="49.08965" lon="2.12026">
        <ele>99.63</ele>
        <time>2013-12-15T11:42:52Z</time>
      </trkpt>
      <trkpt lat="49.08964" lon="2.12028">
        <ele>99.15</ele>
        <time>2013-12-15T11:42:53Z</time>
      </trkpt>
      <trkpt lat="49.08963" lon="2.1203">
        <ele>99.63</ele>
        <time>2013-12-15T11:42:54Z</time>
      </trkpt>
      <trkpt lat="49.08963" lon="2.12033">
        <ele>99.15</ele>
        <time>2013-12-15T11:42:55Z</time>
      </trkpt>
      <trkpt lat="49.08962" lon="2.12036">
        <ele>99.15</ele>
        <time>2013-12-15T11:42:56Z</time>
      </trkpt>
      <trkpt lat="49.08961" lon="2.12038">
        <ele>99.15</ele>
        <time>2013-12-15T11:42:57Z</time>
      </trkpt>
      <trkpt lat="49.08961" lon="2.12039">
        <ele>99.15</ele>
        <time>2013-12-15T11:42:58Z</time>
      </trkpt>
      <trkpt lat="49.08959" lon="2.12041">
        <ele>99.15</ele>
        <time>2013-12-15T11:43:00Z</time>
      </trkpt>
      <trkpt lat="49.08958" lon="2.12042">
        <ele>99.63</ele>
        <time>2013-12-15T11:43:01Z</time>
      </trkpt>
      <trkpt lat="49.08956" lon="2.12047">
        <ele>98.67</ele>
        <time>2013-12-15T11:43:05Z</time>
      </trkpt>
      <trkpt lat="49.08956" lon="2.12049">
        <ele>99.15</ele>
        <time>2013-12-15T11:43:06Z</time>
      </trkpt>
      <trkpt lat="49.08955" lon="2.12051">
        <ele>98.67</ele>
        <time>2013-12-15T11:43:07Z</time>
      </trkpt>
      <trkpt lat="49.08955" lon="2.12052">
        <ele>98.67</ele>
        <time>2013-12-15T11:43:08Z</time>
      </trkpt>
      <trkpt lat="49.08954" lon="2.12054">
        <ele>99.15</ele>
        <time>2013-12-15T11:43:09Z</time>
      </trkpt>
      <trkpt lat="49.08953" lon="2.12055">
        <ele>99.15</ele>
        <time>2013-12-15T11:43:10Z</time>
      </trkpt>
      <trkpt lat="49.08951" lon="2.12061">
        <ele>98.67</ele>
        <time>2013-12-15T11:43:15Z</time>
      </trkpt>
      <trkpt lat="49.0895" lon="2.12063">
        <ele>98.67</ele>
        <time>2013-12-15T11:43:16Z</time>
      </trkpt>
      <trkpt lat="49.08949" lon="2.12065">
        <ele>99.15</ele>
        <time>2013-12-15T11:43:17Z</time>
      </trkpt>
      <trkpt lat="49.08948" lon="2.12067">
        <ele>98.67</ele>
        <time>2013-12-15T11:43:18Z</time>
      </trkpt>
      <trkpt lat="49.08948" lon="2.12069">
        <ele>98.67</ele>
        <time>2013-12-15T11:43:19Z</time>
      </trkpt>
      <trkpt lat="49.08947" lon="2.12071">
        <ele>98.67</ele>
        <time>2013-12-15T11:43:20Z</time>
      </trkpt>
      <trkpt lat="49.08947" lon="2.12072">
        <ele>98.67</ele>
        <time>2013-12-15T11:43:21Z</time>
      </trkpt>
      <trkpt lat="49.08944" lon="2.12079">
        <ele>98.67</ele>
        <time>2013-12-15T11:43:26Z</time>
      </trkpt>
      <trkpt lat="49.08943" lon="2.1208">
        <ele>98.67</ele>
        <time>2013-12-15T11:43:27Z</time>
      </trkpt>
      <trkpt lat="49.08935" lon="2.12101">
        <ele>98.67</ele>
        <time>2013-12-15T11:43:39Z</time>
      </trkpt>
      <trkpt lat="49.08929" lon="2.12111">
        <ele>98.19</ele>
        <time>2013-12-15T11:43:50Z</time>
      </trkpt>
      <trkpt lat="49.08919" lon="2.12133">
        <ele>98.19</ele>
        <time>2013-12-15T11:44:05Z</time>
      </trkpt>
      <trkpt lat="49.08908" lon="2.12154">
        <ele>98.67</ele>
        <time>2013-12-15T11:44:20Z</time>
      </trkpt>
      <trkpt lat="49.089" lon="2.12171">
        <ele>98.67</ele>
        <time>2013-12-15T11:44:32Z</time>
      </trkpt>
      <trkpt lat="49.08899" lon="2.1217">
        <ele>99.15</ele>
        <time>2013-12-15T11:44:34Z</time>
      </trkpt>
      <trkpt lat="49.08897" lon="2.1217">
        <ele>98.67</ele>
        <time>2013-12-15T11:44:35Z</time>
      </trkpt>
      <trkpt lat="49.08896" lon="2.12169">
        <ele>98.67</ele>
        <time>2013-12-15T11:44:36Z</time>
      </trkpt>
      <trkpt lat="49.08894" lon="2.12169">
        <ele>98.67</ele>
        <time>2013-12-15T11:44:37Z</time>
      </trkpt>
      <trkpt lat="49.08893" lon="2.12169">
        <ele>98.67</ele>
        <time>2013-12-15T11:44:38Z</time>
      </trkpt>
      <trkpt lat="49.08893" lon="2.1217">
        <ele>98.67</ele>
        <time>2013-12-15T11:44:47Z</time>
      </trkpt>
      <trkpt lat="49.08892" lon="2.12168">
        <ele>98.67</ele>
        <time>2013-12-15T11:44:49Z</time>
      </trkpt>
      <trkpt lat="49.08891" lon="2.12166">
        <ele>98.67</ele>
        <time>2013-12-15T11:44:50Z</time>
      </trkpt>
      <trkpt lat="49.0889" lon="2.12165">
        <ele>98.19</ele>
        <time>2013-12-15T11:44:51Z</time>
      </trkpt>
      <trkpt lat="49.08889" lon="2.12164">
        <ele>98.67</ele>
        <time>2013-12-15T11:44:52Z</time>
      </trkpt>
      <trkpt lat="49.08888" lon="2.12164">
        <ele>98.67</ele>
        <time>2013-12-15T11:45:01Z</time>
      </trkpt>
      <trkpt lat="49.08887" lon="2.12163">
        <ele>98.67</ele>
        <time>2013-12-15T11:45:02Z</time>
      </trkpt>
      <trkpt lat="49.08886" lon="2.12161">
        <ele>98.67</ele>
        <time>2013-12-15T11:45:03Z</time>
      </trkpt>
      <trkpt lat="49.08885" lon="2.1216">
        <ele>98.67</ele>
        <time>2013-12-15T11:45:04Z</time>
      </trkpt>
      <trkpt lat="49.08883" lon="2.12158">
        <ele>98.67</ele>
        <time>2013-12-15T11:45:05Z</time>
      </trkpt>
      <trkpt lat="49.08882" lon="2.12157">
        <ele>98.19</ele>
        <time>2013-12-15T11:45:07Z</time>
      </trkpt>
      <trkpt lat="49.08881" lon="2.12154">
        <ele>98.67</ele>
        <time>2013-12-15T11:45:09Z</time>
      </trkpt>
      <trkpt lat="49.08864" lon="2.12136">
        <ele>98.19</ele>
        <time>2013-12-15T11:45:22Z</time>
      </trkpt>
      <trkpt lat="49.08862" lon="2.12133">
        <ele>98.19</ele>
        <time>2013-12-15T11:45:24Z</time>
      </trkpt>
      <trkpt lat="49.0886" lon="2.12127">
        <ele>98.19</ele>
        <time>2013-12-15T11:45:27Z</time>
      </trkpt>
      <trkpt lat="49.08856" lon="2.12125">
        <ele>97.71</ele>
        <time>2013-12-15T11:45:33Z</time>
      </trkpt>
      <trkpt lat="49.08855" lon="2.12124">
        <ele>97.71</ele>
        <time>2013-12-15T11:45:34Z</time>
      </trkpt>
      <trkpt lat="49.08853" lon="2.12123">
        <ele>97.71</ele>
        <time>2013-12-15T11:45:35Z</time>
      </trkpt>
      <trkpt lat="49.08852" lon="2.12122">
        <ele>97.71</ele>
        <time>2013-12-15T11:45:36Z</time>
      </trkpt>
      <trkpt lat="49.08851" lon="2.12121">
        <ele>97.71</ele>
        <time>2013-12-15T11:45:37Z</time>
      </trkpt>
      <trkpt lat="49.0885" lon="2.1212">
        <ele>97.71</ele>
        <time>2013-12-15T11:45:38Z</time>
      </trkpt>
      <trkpt lat="49.08849" lon="2.12119">
        <ele>97.71</ele>
        <time>2013-12-15T11:45:39Z</time>
      </trkpt>
      <trkpt lat="49.08845" lon="2.12115">
        <ele>97.71</ele>
        <time>2013-12-15T11:45:44Z</time>
      </trkpt>
      <trkpt lat="49.08843" lon="2.12114">
        <ele>97.71</ele>
        <time>2013-12-15T11:45:45Z</time>
      </trkpt>
      <trkpt lat="49.08827" lon="2.12096">
        <ele>97.23</ele>
        <time>2013-12-15T11:46:01Z</time>
      </trkpt>
      <trkpt lat="49.08824" lon="2.12093">
        <ele>97.23</ele>
        <time>2013-12-15T11:46:05Z</time>
      </trkpt>
      <trkpt lat="49.08823" lon="2.12091">
        <ele>97.23</ele>
        <time>2013-12-15T11:46:06Z</time>
      </trkpt>
      <trkpt lat="49.08814" lon="2.12085">
        <ele>97.23</ele>
        <time>2013-12-15T11:46:18Z</time>
      </trkpt>
      <trkpt lat="49.08813" lon="2.12084">
        <ele>97.23</ele>
        <time>2013-12-15T11:46:19Z</time>
      </trkpt>
      <trkpt lat="49.08812" lon="2.12082">
        <ele>97.23</ele>
        <time>2013-12-15T11:46:20Z</time>
      </trkpt>
      <trkpt lat="49.08803" lon="2.1207">
        <ele>97.23</ele>
        <time>2013-12-15T11:46:30Z</time>
      </trkpt>
      <trkpt lat="49.08795" lon="2.12061">
        <ele>97.71</ele>
        <time>2013-12-15T11:46:39Z</time>
      </trkpt>
      <trkpt lat="49.08794" lon="2.12059">
        <ele>97.23</ele>
        <time>2013-12-15T11:46:40Z</time>
      </trkpt>
      <trkpt lat="49.08791" lon="2.12056">
        <ele>97.23</ele>
        <time>2013-12-15T11:46:44Z</time>
      </trkpt>
      <trkpt lat="49.08789" lon="2.12055">
        <ele>97.23</ele>
        <time>2013-12-15T11:46:47Z</time>
      </trkpt>
      <trkpt lat="49.08788" lon="2.12053">
        <ele>97.71</ele>
        <time>2013-12-15T11:46:49Z</time>
      </trkpt>
      <trkpt lat="49.08773" lon="2.12037">
        <ele>97.71</ele>
        <time>2013-12-15T11:47:04Z</time>
      </trkpt>
      <trkpt lat="49.08757" lon="2.12019">
        <ele>97.71</ele>
        <time>2013-12-15T11:47:18Z</time>
      </trkpt>
      <trkpt lat="49.08744" lon="2.12005">
        <ele>97.23</ele>
        <time>2013-12-15T11:47:32Z</time>
      </trkpt>
      <trkpt lat="49.08743" lon="2.12003">
        <ele>97.71</ele>
        <time>2013-12-15T11:47:33Z</time>
      </trkpt>
      <trkpt lat="49.08742" lon="2.12002">
        <ele>97.71</ele>
        <time>2013-12-15T11:47:34Z</time>
      </trkpt>
      <trkpt lat="49.08739" lon="2.11999">
        <ele>97.71</ele>
        <time>2013-12-15T11:47:38Z</time>
      </trkpt>
      <trkpt lat="49.08738" lon="2.11998">
        <ele>97.71</ele>
        <time>2013-12-15T11:47:39Z</time>
      </trkpt>
      <trkpt lat="49.08737" lon="2.11997">
        <ele>97.23</ele>
        <time>2013-12-15T11:47:40Z</time>
      </trkpt>
      <trkpt lat="49.08736" lon="2.11996">
        <ele>97.71</ele>
        <time>2013-12-15T11:47:41Z</time>
      </trkpt>
      <trkpt lat="49.08735" lon="2.11995">
        <ele>97.23</ele>
        <time>2013-12-15T11:47:42Z</time>
      </trkpt>
      <trkpt lat="49.08733" lon="2.11991">
        <ele>97.23</ele>
        <time>2013-12-15T11:47:46Z</time>
      </trkpt>
      <trkpt lat="49.08732" lon="2.11989">
        <ele>97.23</ele>
        <time>2013-12-15T11:47:47Z</time>
      </trkpt>
      <trkpt lat="49.0872" lon="2.11969">
        <ele>97.71</ele>
        <time>2013-12-15T11:48:03Z</time>
      </trkpt>
      <trkpt lat="49.08712" lon="2.11953">
        <ele>97.23</ele>
        <time>2013-12-15T11:48:15Z</time>
      </trkpt>
      <trkpt lat="49.0871" lon="2.11952">
        <ele>97.23</ele>
        <time>2013-12-15T11:48:17Z</time>
      </trkpt>
      <trkpt lat="49.08709" lon="2.1195">
        <ele>97.23</ele>
        <time>2013-12-15T11:48:18Z</time>
      </trkpt>
      <trkpt lat="49.08708" lon="2.11948">
        <ele>97.23</ele>
        <time>2013-12-15T11:48:19Z</time>
      </trkpt>
      <trkpt lat="49.08707" lon="2.11945">
        <ele>97.23</ele>
        <time>2013-12-15T11:48:20Z</time>
      </trkpt>
      <trkpt lat="49.08706" lon="2.11944">
        <ele>97.23</ele>
        <time>2013-12-15T11:48:21Z</time>
      </trkpt>
      <trkpt lat="49.08705" lon="2.11942">
        <ele>97.23</ele>
        <time>2013-12-15T11:48:22Z</time>
      </trkpt>
      <trkpt lat="49.08705" lon="2.1194">
        <ele>97.23</ele>
        <time>2013-12-15T11:48:23Z</time>
      </trkpt>
      <trkpt lat="49.08702" lon="2.11936">
        <ele>97.23</ele>
        <time>2013-12-15T11:48:28Z</time>
      </trkpt>
      <trkpt lat="49.08694" lon="2.11917">
        <ele>97.23</ele>
        <time>2013-12-15T11:48:41Z</time>
      </trkpt>
      <trkpt lat="49.08682" lon="2.11892">
        <ele>97.71</ele>
        <time>2013-12-15T11:48:56Z</time>
      </trkpt>
      <trkpt lat="49.08675" lon="2.1188">
        <ele>98.19</ele>
        <time>2013-12-15T11:49:07Z</time>
      </trkpt>
      <trkpt lat="49.08666" lon="2.11861">
        <ele>97.71</ele>
        <time>2013-12-15T11:49:20Z</time>
      </trkpt>
      <trkpt lat="49.08656" lon="2.11843">
        <ele>97.71</ele>
        <time>2013-12-15T11:49:33Z</time>
      </trkpt>
      <trkpt lat="49.08656" lon="2.1184">
        <ele>97.71</ele>
        <time>2013-12-15T11:49:37Z</time>
      </trkpt>
      <trkpt lat="49.08655" lon="2.11838">
        <ele>97.71</ele>
        <time>2013-12-15T11:49:38Z</time>
      </trkpt>
      <trkpt lat="49.08645" lon="2.11823">
        <ele>97.71</ele>
        <time>2013-12-15T11:49:52Z</time>
      </trkpt>
      <trkpt lat="49.08636" lon="2.11805">
        <ele>98.19</ele>
        <time>2013-12-15T11:50:06Z</time>
      </trkpt>
      <trkpt lat="49.08625" lon="2.11787">
        <ele>98.67</ele>
        <time>2013-12-15T11:50:19Z</time>
      </trkpt>
      <trkpt lat="49.08623" lon="2.11784">
        <ele>98.67</ele>
        <time>2013-12-15T11:50:22Z</time>
      </trkpt>
      <trkpt lat="49.08621" lon="2.11781">
        <ele>98.67</ele>
        <time>2013-12-15T11:50:26Z</time>
      </trkpt>
      <trkpt lat="49.0862" lon="2.11779">
        <ele>98.67</ele>
        <time>2013-12-15T11:50:27Z</time>
      </trkpt>
      <trkpt lat="49.08613" lon="2.11767">
        <ele>98.67</ele>
        <time>2013-12-15T11:50:40Z</time>
      </trkpt>
      <trkpt lat="49.08601" lon="2.11751">
        <ele>98.67</ele>
        <time>2013-12-15T11:50:52Z</time>
      </trkpt>
      <trkpt lat="49.08594" lon="2.11734">
        <ele>98.67</ele>
        <time>2013-12-15T11:51:02Z</time>
      </trkpt>
      <trkpt lat="49.08586" lon="2.11725">
        <ele>98.67</ele>
        <time>2013-12-15T11:51:15Z</time>
      </trkpt>
      <trkpt lat="49.08584" lon="2.11722">
        <ele>99.15</ele>
        <time>2013-12-15T11:51:18Z</time>
      </trkpt>
      <trkpt lat="49.08583" lon="2.11721">
        <ele>99.15</ele>
        <time>2013-12-15T11:51:19Z</time>
      </trkpt>
      <trkpt lat="49.08582" lon="2.1172">
        <ele>99.15</ele>
        <time>2013-12-15T11:51:20Z</time>
      </trkpt>
      <trkpt lat="49.08572" lon="2.11707">
        <ele>99.15</ele>
        <time>2013-12-15T11:51:33Z</time>
      </trkpt>
      <trkpt lat="49.08566" lon="2.11694">
        <ele>99.63</ele>
        <time>2013-12-15T11:51:44Z</time>
      </trkpt>
      <trkpt lat="49.08562" lon="2.11686">
        <ele>99.63</ele>
        <time>2013-12-15T11:51:49Z</time>
      </trkpt>
      <trkpt lat="49.08562" lon="2.11684">
        <ele>99.63</ele>
        <time>2013-12-15T11:51:50Z</time>
      </trkpt>
      <trkpt lat="49.08554" lon="2.11672">
        <ele>99.63</ele>
        <time>2013-12-15T11:52:02Z</time>
      </trkpt>
      <trkpt lat="49.08547" lon="2.11658">
        <ele>100.11</ele>
        <time>2013-12-15T11:52:12Z</time>
      </trkpt>
      <trkpt lat="49.08544" lon="2.11654">
        <ele>100.11</ele>
        <time>2013-12-15T11:52:16Z</time>
      </trkpt>
      <trkpt lat="49.08543" lon="2.11652">
        <ele>100.11</ele>
        <time>2013-12-15T11:52:17Z</time>
      </trkpt>
      <trkpt lat="49.08542" lon="2.11651">
        <ele>100.11</ele>
        <time>2013-12-15T11:52:18Z</time>
      </trkpt>
      <trkpt lat="49.08541" lon="2.11648">
        <ele>100.11</ele>
        <time>2013-12-15T11:52:19Z</time>
      </trkpt>
      <trkpt lat="49.08541" lon="2.11646">
        <ele>100.11</ele>
        <time>2013-12-15T11:52:20Z</time>
      </trkpt>
      <trkpt lat="49.0853" lon="2.11628">
        <ele>100.11</ele>
        <time>2013-12-15T11:52:34Z</time>
      </trkpt>
      <trkpt lat="49.08526" lon="2.11619">
        <ele>100.11</ele>
        <time>2013-12-15T11:52:47Z</time>
      </trkpt>
      <trkpt lat="49.08516" lon="2.11604">
        <ele>100.11</ele>
        <time>2013-12-15T11:53:01Z</time>
      </trkpt>
      <trkpt lat="49.08511" lon="2.11597">
        <ele>99.63</ele>
        <time>2013-12-15T11:53:11Z</time>
      </trkpt>
      <trkpt lat="49.08504" lon="2.11585">
        <ele>99.15</ele>
        <time>2013-12-15T11:53:20Z</time>
      </trkpt>
      <trkpt lat="49.08503" lon="2.11584">
        <ele>99.15</ele>
        <time>2013-12-15T11:53:21Z</time>
      </trkpt>
      <trkpt lat="49.08503" lon="2.11583">
        <ele>99.15</ele>
        <time>2013-12-15T11:53:22Z</time>
      </trkpt>
      <trkpt lat="49.08503" lon="2.11579">
        <ele>98.19</ele>
        <time>2013-12-15T11:53:34Z</time>
      </trkpt>
      <trkpt lat="49.08506" lon="2.11578">
        <ele>98.19</ele>
        <time>2013-12-15T11:53:52Z</time>
      </trkpt>
      <trkpt lat="49.08503" lon="2.11577">
        <ele>98.19</ele>
        <time>2013-12-15T11:54:11Z</time>
      </trkpt>
      <trkpt lat="49.08502" lon="2.11577">
        <ele>98.19</ele>
        <time>2013-12-15T11:54:36Z</time>
      </trkpt>
      <trkpt lat="49.085" lon="2.11583">
        <ele>98.19</ele>
        <time>2013-12-15T11:54:49Z</time>
      </trkpt>
      <trkpt lat="49.08499" lon="2.1158">
        <ele>98.19</ele>
        <time>2013-12-15T11:54:56Z</time>
      </trkpt>
      <trkpt lat="49.08498" lon="2.11578">
        <ele>98.19</ele>
        <time>2013-12-15T11:54:57Z</time>
      </trkpt>
      <trkpt lat="49.08495" lon="2.11569">
        <ele>98.19</ele>
        <time>2013-12-15T11:55:06Z</time>
      </trkpt>
      <trkpt lat="49.08494" lon="2.11567">
        <ele>98.19</ele>
        <time>2013-12-15T11:55:08Z</time>
      </trkpt>
      <trkpt lat="49.08494" lon="2.11566">
        <ele>98.19</ele>
        <time>2013-12-15T11:55:09Z</time>
      </trkpt>
      <trkpt lat="49.08493" lon="2.11564">
        <ele>98.67</ele>
        <time>2013-12-15T11:55:10Z</time>
      </trkpt>
      <trkpt lat="49.08483" lon="2.11546">
        <ele>98.67</ele>
        <time>2013-12-15T11:55:23Z</time>
      </trkpt>
      <trkpt lat="49.08477" lon="2.11532">
        <ele>98.67</ele>
        <time>2013-12-15T11:55:35Z</time>
      </trkpt>
      <trkpt lat="49.08467" lon="2.11524">
        <ele>98.19</ele>
        <time>2013-12-15T11:55:47Z</time>
      </trkpt>
      <trkpt lat="49.08454" lon="2.11519">
        <ele>98.19</ele>
        <time>2013-12-15T11:56:00Z</time>
      </trkpt>
      <trkpt lat="49.08443" lon="2.11514">
        <ele>98.19</ele>
        <time>2013-12-15T11:56:13Z</time>
      </trkpt>
      <trkpt lat="49.0844" lon="2.11513">
        <ele>98.19</ele>
        <time>2013-12-15T11:56:20Z</time>
      </trkpt>
      <trkpt lat="49.08428" lon="2.11507">
        <ele>98.19</ele>
        <time>2013-12-15T11:56:31Z</time>
      </trkpt>
      <trkpt lat="49.08411" lon="2.11498">
        <ele>98.67</ele>
        <time>2013-12-15T11:56:47Z</time>
      </trkpt>
      <trkpt lat="49.08392" lon="2.11493">
        <ele>98.67</ele>
        <time>2013-12-15T11:57:04Z</time>
      </trkpt>
      <trkpt lat="49.08382" lon="2.11487">
        <ele>97.71</ele>
        <time>2013-12-15T11:57:18Z</time>
      </trkpt>
      <trkpt lat="49.08378" lon="2.11487">
        <ele>97.71</ele>
        <time>2013-12-15T11:57:35Z</time>
      </trkpt>
      <trkpt lat="49.08374" lon="2.11484">
        <ele>97.71</ele>
        <time>2013-12-15T11:57:50Z</time>
      </trkpt>
      <trkpt lat="49.08373" lon="2.11483">
        <ele>98.19</ele>
        <time>2013-12-15T11:57:51Z</time>
      </trkpt>
      <trkpt lat="49.08363" lon="2.11476">
        <ele>97.71</ele>
        <time>2013-12-15T11:58:03Z</time>
      </trkpt>
      <trkpt lat="49.08351" lon="2.1147">
        <ele>98.19</ele>
        <time>2013-12-15T11:58:15Z</time>
      </trkpt>
      <trkpt lat="49.08347" lon="2.11469">
        <ele>98.19</ele>
        <time>2013-12-15T11:58:20Z</time>
      </trkpt>
      <trkpt lat="49.08337" lon="2.11464">
        <ele>98.19</ele>
        <time>2013-12-15T11:58:31Z</time>
      </trkpt>
      <trkpt lat="49.08323" lon="2.11456">
        <ele>97.71</ele>
        <time>2013-12-15T11:58:45Z</time>
      </trkpt>
      <trkpt lat="49.08304" lon="2.11445">
        <ele>98.19</ele>
        <time>2013-12-15T11:59:01Z</time>
      </trkpt>
      <trkpt lat="49.08288" lon="2.11438">
        <ele>97.71</ele>
        <time>2013-12-15T11:59:17Z</time>
      </trkpt>
      <trkpt lat="49.08276" lon="2.11431">
        <ele>97.71</ele>
        <time>2013-12-15T11:59:28Z</time>
      </trkpt>
      <trkpt lat="49.08258" lon="2.11422">
        <ele>97.71</ele>
        <time>2013-12-15T11:59:43Z</time>
      </trkpt>
      <trkpt lat="49.08247" lon="2.11416">
        <ele>97.23</ele>
        <time>2013-12-15T11:59:55Z</time>
      </trkpt>
      <trkpt lat="49.08234" lon="2.11409">
        <ele>96.75</ele>
        <time>2013-12-15T12:00:08Z</time>
      </trkpt>
      <trkpt lat="49.08233" lon="2.1141">
        <ele>96.75</ele>
        <time>2013-12-15T12:00:10Z</time>
      </trkpt>
      <trkpt lat="49.08232" lon="2.1141">
        <ele>96.75</ele>
        <time>2013-12-15T12:00:11Z</time>
      </trkpt>
      <trkpt lat="49.08217" lon="2.11402">
        <ele>96.75</ele>
        <time>2013-12-15T12:00:26Z</time>
      </trkpt>
      <trkpt lat="49.08201" lon="2.11394">
        <ele>96.27</ele>
        <time>2013-12-15T12:00:42Z</time>
      </trkpt>
      <trkpt lat="49.08188" lon="2.11386">
        <ele>96.27</ele>
        <time>2013-12-15T12:00:54Z</time>
      </trkpt>
      <trkpt lat="49.08187" lon="2.11385">
        <ele>96.75</ele>
        <time>2013-12-15T12:00:55Z</time>
      </trkpt>
      <trkpt lat="49.08186" lon="2.11384">
        <ele>96.75</ele>
        <time>2013-12-15T12:00:56Z</time>
      </trkpt>
      <trkpt lat="49.08183" lon="2.11383">
        <ele>96.27</ele>
        <time>2013-12-15T12:01:00Z</time>
      </trkpt>
      <trkpt lat="49.08182" lon="2.11382">
        <ele>96.75</ele>
        <time>2013-12-15T12:01:01Z</time>
      </trkpt>
      <trkpt lat="49.08168" lon="2.11375">
        <ele>96.27</ele>
        <time>2013-12-15T12:01:15Z</time>
      </trkpt>
      <trkpt lat="49.08154" lon="2.11371">
        <ele>96.27</ele>
        <time>2013-12-15T12:01:28Z</time>
      </trkpt>
      <trkpt lat="49.0814" lon="2.11365">
        <ele>96.27</ele>
        <time>2013-12-15T12:01:42Z</time>
      </trkpt>
      <trkpt lat="49.08139" lon="2.11365">
        <ele>96.27</ele>
        <time>2013-12-15T12:01:43Z</time>
      </trkpt>
      <trkpt lat="49.08123" lon="2.11359">
        <ele>95.79</ele>
        <time>2013-12-15T12:01:59Z</time>
      </trkpt>
      <trkpt lat="49.08107" lon="2.11354">
        <ele>96.27</ele>
        <time>2013-12-15T12:02:14Z</time>
      </trkpt>
      <trkpt lat="49.081" lon="2.11353">
        <ele>96.27</ele>
        <time>2013-12-15T12:02:20Z</time>
      </trkpt>
      <trkpt lat="49.08098" lon="2.11352">
        <ele>96.27</ele>
        <time>2013-12-15T12:02:21Z</time>
      </trkpt>
      <trkpt lat="49.08082" lon="2.11347">
        <ele>95.79</ele>
        <time>2013-12-15T12:02:36Z</time>
      </trkpt>
      <trkpt lat="49.08065" lon="2.11342">
        <ele>96.27</ele>
        <time>2013-12-15T12:02:52Z</time>
      </trkpt>
      <trkpt lat="49.08046" lon="2.11335">
        <ele>96.27</ele>
        <time>2013-12-15T12:03:08Z</time>
      </trkpt>
      <trkpt lat="49.08032" lon="2.11331">
        <ele>96.27</ele>
        <time>2013-12-15T12:03:22Z</time>
      </trkpt>
      <trkpt lat="49.0802" lon="2.11326">
        <ele>95.79</ele>
        <time>2013-12-15T12:03:33Z</time>
      </trkpt>
      <trkpt lat="49.08016" lon="2.11325">
        <ele>95.79</ele>
        <time>2013-12-15T12:03:39Z</time>
      </trkpt>
      <trkpt lat="49.0801" lon="2.11324">
        <ele>95.79</ele>
        <time>2013-12-15T12:03:46Z</time>
      </trkpt>
      <trkpt lat="49.08009" lon="2.11323">
        <ele>95.31</ele>
        <time>2013-12-15T12:03:47Z</time>
      </trkpt>
      <trkpt lat="49.07998" lon="2.11319">
        <ele>95.79</ele>
        <time>2013-12-15T12:03:59Z</time>
      </trkpt>
      <trkpt lat="49.07983" lon="2.11314">
        <ele>95.79</ele>
        <time>2013-12-15T12:04:13Z</time>
      </trkpt>
      <trkpt lat="49.07966" lon="2.11313">
        <ele>95.31</ele>
        <time>2013-12-15T12:04:28Z</time>
      </trkpt>
      <trkpt lat="49.07953" lon="2.11313">
        <ele>94.83</ele>
        <time>2013-12-15T12:04:41Z</time>
      </trkpt>
      <trkpt lat="49.07941" lon="2.1131">
        <ele>94.83</ele>
        <time>2013-12-15T12:04:52Z</time>
      </trkpt>
      <trkpt lat="49.07934" lon="2.11312">
        <ele>94.83</ele>
        <time>2013-12-15T12:05:08Z</time>
      </trkpt>
      <trkpt lat="49.07922" lon="2.11313">
        <ele>95.79</ele>
        <time>2013-12-15T12:05:19Z</time>
      </trkpt>
      <trkpt lat="49.07896" lon="2.11311">
        <ele>94.83</ele>
        <time>2013-12-15T12:05:41Z</time>
      </trkpt>
      <trkpt lat="49.07879" lon="2.11309">
        <ele>95.31</ele>
        <time>2013-12-15T12:05:56Z</time>
      </trkpt>
      <trkpt lat="49.07862" lon="2.1131">
        <ele>95.79</ele>
        <time>2013-12-15T12:06:13Z</time>
      </trkpt>
      <trkpt lat="49.07859" lon="2.11314">
        <ele>95.79</ele>
        <time>2013-12-15T12:06:25Z</time>
      </trkpt>
      <trkpt lat="49.07858" lon="2.11315">
        <ele>94.83</ele>
        <time>2013-12-15T12:06:52Z</time>
      </trkpt>
      <trkpt lat="49.07858" lon="2.11316">
        <ele>94.83</ele>
        <time>2013-12-15T12:07:15Z</time>
      </trkpt>
      <trkpt lat="49.07852" lon="2.1131">
        <ele>95.31</ele>
        <time>2013-12-15T12:07:38Z</time>
      </trkpt>
      <trkpt lat="49.07842" lon="2.11302">
        <ele>95.31</ele>
        <time>2013-12-15T12:07:52Z</time>
      </trkpt>
      <trkpt lat="49.07837" lon="2.11295">
        <ele>95.79</ele>
        <time>2013-12-15T12:08:03Z</time>
      </trkpt>
      <trkpt lat="49.07836" lon="2.11294">
        <ele>95.79</ele>
        <time>2013-12-15T12:08:04Z</time>
      </trkpt>
      <trkpt lat="49.07828" lon="2.11276">
        <ele>95.79</ele>
        <time>2013-12-15T12:08:18Z</time>
      </trkpt>
      <trkpt lat="49.07823" lon="2.1126">
        <ele>95.79</ele>
        <time>2013-12-15T12:08:30Z</time>
      </trkpt>
      <trkpt lat="49.07818" lon="2.1124">
        <ele>96.27</ele>
        <time>2013-12-15T12:08:44Z</time>
      </trkpt>
      <trkpt lat="49.07809" lon="2.11213">
        <ele>96.75</ele>
        <time>2013-12-15T12:09:00Z</time>
      </trkpt>
      <trkpt lat="49.07802" lon="2.11188">
        <ele>97.23</ele>
        <time>2013-12-15T12:09:15Z</time>
      </trkpt>
      <trkpt lat="49.07798" lon="2.11172">
        <ele>96.75</ele>
        <time>2013-12-15T12:09:26Z</time>
      </trkpt>
      <trkpt lat="49.07789" lon="2.11146">
        <ele>97.23</ele>
        <time>2013-12-15T12:09:42Z</time>
      </trkpt>
      <trkpt lat="49.07786" lon="2.1113">
        <ele>97.23</ele>
        <time>2013-12-15T12:09:53Z</time>
      </trkpt>
      <trkpt lat="49.07786" lon="2.11128">
        <ele>97.71</ele>
        <time>2013-12-15T12:09:54Z</time>
      </trkpt>
      <trkpt lat="49.07786" lon="2.11126">
        <ele>97.71</ele>
        <time>2013-12-15T12:09:55Z</time>
      </trkpt>
      <trkpt lat="49.07787" lon="2.11125">
        <ele>97.23</ele>
        <time>2013-12-15T12:09:56Z</time>
      </trkpt>
      <trkpt lat="49.07786" lon="2.11123">
        <ele>96.75</ele>
        <time>2013-12-15T12:09:57Z</time>
      </trkpt>
      <trkpt lat="49.07779" lon="2.11105">
        <ele>97.71</ele>
        <time>2013-12-15T12:10:15Z</time>
      </trkpt>
      <trkpt lat="49.07779" lon="2.11115">
        <ele>97.23</ele>
        <time>2013-12-15T12:10:29Z</time>
      </trkpt>
      <trkpt lat="49.07775" lon="2.11111">
        <ele>97.71</ele>
        <time>2013-12-15T12:10:42Z</time>
      </trkpt>
      <trkpt lat="49.07772" lon="2.11099">
        <ele>97.71</ele>
        <time>2013-12-15T12:10:51Z</time>
      </trkpt>
      <trkpt lat="49.07772" lon="2.11097">
        <ele>97.71</ele>
        <time>2013-12-15T12:10:52Z</time>
      </trkpt>
      <trkpt lat="49.07772" lon="2.11095">
        <ele>97.71</ele>
        <time>2013-12-15T12:10:53Z</time>
      </trkpt>
      <trkpt lat="49.07772" lon="2.11093">
        <ele>97.71</ele>
        <time>2013-12-15T12:10:54Z</time>
      </trkpt>
      <trkpt lat="49.07771" lon="2.11091">
        <ele>97.71</ele>
        <time>2013-12-15T12:10:55Z</time>
      </trkpt>
      <trkpt lat="49.07764" lon="2.11068">
        <ele>97.71</ele>
        <time>2013-12-15T12:11:09Z</time>
      </trkpt>
      <trkpt lat="49.07756" lon="2.11044">
        <ele>97.71</ele>
        <time>2013-12-15T12:11:25Z</time>
      </trkpt>
      <trkpt lat="49.07755" lon="2.11039">
        <ele>97.71</ele>
        <time>2013-12-15T12:11:29Z</time>
      </trkpt>
      <trkpt lat="49.07754" lon="2.11037">
        <ele>97.71</ele>
        <time>2013-12-15T12:11:30Z</time>
      </trkpt>
      <trkpt lat="49.07746" lon="2.11007">
        <ele>97.71</ele>
        <time>2013-12-15T12:11:48Z</time>
      </trkpt>
      <trkpt lat="49.0774" lon="2.10986">
        <ele>97.23</ele>
        <time>2013-12-15T12:12:02Z</time>
      </trkpt>
      <trkpt lat="49.07737" lon="2.10977">
        <ele>97.23</ele>
        <time>2013-12-15T12:12:12Z</time>
      </trkpt>
      <trkpt lat="49.07738" lon="2.10963">
        <ele>97.71</ele>
        <time>2013-12-15T12:12:22Z</time>
      </trkpt>
      <trkpt lat="49.07739" lon="2.10942">
        <ele>97.23</ele>
        <time>2013-12-15T12:12:36Z</time>
      </trkpt>
      <trkpt lat="49.07738" lon="2.10932">
        <ele>97.23</ele>
        <time>2013-12-15T12:12:42Z</time>
      </trkpt>
      <trkpt lat="49.07742" lon="2.10904">
        <ele>97.23</ele>
        <time>2013-12-15T12:12:57Z</time>
      </trkpt>
      <trkpt lat="49.07746" lon="2.10879">
        <ele>96.75</ele>
        <time>2013-12-15T12:13:10Z</time>
      </trkpt>
      <trkpt lat="49.07742" lon="2.10861">
        <ele>97.23</ele>
        <time>2013-12-15T12:13:21Z</time>
      </trkpt>
      <trkpt lat="49.07742" lon="2.10859">
        <ele>97.23</ele>
        <time>2013-12-15T12:13:22Z</time>
      </trkpt>
      <trkpt lat="49.07742" lon="2.10857">
        <ele>97.23</ele>
        <time>2013-12-15T12:13:23Z</time>
      </trkpt>
      <trkpt lat="49.07742" lon="2.10855">
        <ele>97.23</ele>
        <time>2013-12-15T12:13:24Z</time>
      </trkpt>
      <trkpt lat="49.07743" lon="2.10853">
        <ele>96.75</ele>
        <time>2013-12-15T12:13:25Z</time>
      </trkpt>
      <trkpt lat="49.0774" lon="2.10843">
        <ele>97.23</ele>
        <time>2013-12-15T12:13:38Z</time>
      </trkpt>
      <trkpt lat="49.07737" lon="2.10844">
        <ele>97.23</ele>
        <time>2013-12-15T12:13:40Z</time>
      </trkpt>
      <trkpt lat="49.0773" lon="2.10844">
        <ele>96.75</ele>
        <time>2013-12-15T12:13:45Z</time>
      </trkpt>
      <trkpt lat="49.07729" lon="2.10844">
        <ele>96.75</ele>
        <time>2013-12-15T12:13:46Z</time>
      </trkpt>
      <trkpt lat="49.07727" lon="2.10844">
        <ele>97.23</ele>
        <time>2013-12-15T12:13:47Z</time>
      </trkpt>
      <trkpt lat="49.07726" lon="2.10844">
        <ele>97.23</ele>
        <time>2013-12-15T12:13:48Z</time>
      </trkpt>
      <trkpt lat="49.07725" lon="2.10844">
        <ele>96.75</ele>
        <time>2013-12-15T12:13:49Z</time>
      </trkpt>
      <trkpt lat="49.07713" lon="2.10843">
        <ele>96.27</ele>
        <time>2013-12-15T12:14:03Z</time>
      </trkpt>
      <trkpt lat="49.07697" lon="2.10843">
        <ele>96.75</ele>
        <time>2013-12-15T12:14:16Z</time>
      </trkpt>
      <trkpt lat="49.077" lon="2.10843">
        <ele>96.75</ele>
        <time>2013-12-15T12:14:28Z</time>
      </trkpt>
      <trkpt lat="49.07695" lon="2.10845">
        <ele>96.75</ele>
        <time>2013-12-15T12:14:38Z</time>
      </trkpt>
      <trkpt lat="49.07696" lon="2.10843">
        <ele>96.27</ele>
        <time>2013-12-15T12:14:53Z</time>
      </trkpt>
      <trkpt lat="49.07686" lon="2.10842">
        <ele>96.27</ele>
        <time>2013-12-15T12:15:09Z</time>
      </trkpt>
      <trkpt lat="49.07691" lon="2.10843">
        <ele>96.27</ele>
        <time>2013-12-15T12:15:44Z</time>
      </trkpt>
      <trkpt lat="49.07697" lon="2.10842">
        <ele>96.27</ele>
        <time>2013-12-15T12:16:07Z</time>
      </trkpt>
      <trkpt lat="49.07693" lon="2.10841">
        <ele>96.27</ele>
        <time>2013-12-15T12:16:28Z</time>
      </trkpt>
      <trkpt lat="49.07695" lon="2.10846">
        <ele>101.56</ele>
        <time>2013-12-15T13:00:31Z</time>
      </trkpt>
      <trkpt lat="49.07695" lon="2.10846">
        <ele>102.04</ele>
        <time>2013-12-15T13:00:49Z</time>
      </trkpt>
      <trkpt lat="49.07705" lon="2.10843">
        <ele>102.04</ele>
        <time>2013-12-15T13:01:32Z</time>
      </trkpt>
      <trkpt lat="49.07713" lon="2.10843">
        <ele>102.04</ele>
        <time>2013-12-15T13:01:44Z</time>
      </trkpt>
      <trkpt lat="49.0772" lon="2.10839">
        <ele>102.04</ele>
        <time>2013-12-15T13:02:01Z</time>
      </trkpt>
      <trkpt lat="49.07729" lon="2.10842">
        <ele>102.04</ele>
        <time>2013-12-15T13:02:10Z</time>
      </trkpt>
      <trkpt lat="49.07739" lon="2.1084">
        <ele>102.04</ele>
        <time>2013-12-15T13:02:23Z</time>
      </trkpt>
      <trkpt lat="49.0774" lon="2.10834">
        <ele>102.04</ele>
        <time>2013-12-15T13:02:27Z</time>
      </trkpt>
      <trkpt lat="49.07742" lon="2.10823">
        <ele>102.04</ele>
        <time>2013-12-15T13:02:40Z</time>
      </trkpt>
      <trkpt lat="49.07744" lon="2.10819">
        <ele>102.04</ele>
        <time>2013-12-15T13:02:54Z</time>
      </trkpt>
      <trkpt lat="49.07748" lon="2.10807">
        <ele>102.04</ele>
        <time>2013-12-15T13:03:14Z</time>
      </trkpt>
      <trkpt lat="49.0775" lon="2.10792">
        <ele>102.04</ele>
        <time>2013-12-15T13:03:33Z</time>
      </trkpt>
      <trkpt lat="49.07753" lon="2.10771">
        <ele>102.04</ele>
        <time>2013-12-15T13:03:48Z</time>
      </trkpt>
      <trkpt lat="49.07753" lon="2.10758">
        <ele>102.04</ele>
        <time>2013-12-15T13:03:59Z</time>
      </trkpt>
      <trkpt lat="49.07757" lon="2.10739">
        <ele>102.04</ele>
        <time>2013-12-15T13:04:12Z</time>
      </trkpt>
      <trkpt lat="49.07758" lon="2.10732">
        <ele>97.71</ele>
        <time>2013-12-15T13:04:22Z</time>
      </trkpt>
      <trkpt lat="49.07758" lon="2.10731">
        <ele>101.56</ele>
        <time>2013-12-15T13:04:23Z</time>
      </trkpt>
      <trkpt lat="49.07758" lon="2.1073">
        <ele>107.81</ele>
        <time>2013-12-15T13:04:24Z</time>
      </trkpt>
      <trkpt lat="49.07758" lon="2.10728">
        <ele>103</ele>
        <time>2013-12-15T13:04:25Z</time>
      </trkpt>
      <trkpt lat="49.07758" lon="2.10726">
        <ele>102.04</ele>
        <time>2013-12-15T13:04:27Z</time>
      </trkpt>
      <trkpt lat="49.07752" lon="2.10704">
        <ele>102.04</ele>
        <time>2013-12-15T13:04:42Z</time>
      </trkpt>
      <trkpt lat="49.0775" lon="2.10684">
        <ele>101.56</ele>
        <time>2013-12-15T13:04:55Z</time>
      </trkpt>
      <trkpt lat="49.07737" lon="2.10668">
        <ele>101.56</ele>
        <time>2013-12-15T13:05:11Z</time>
      </trkpt>
      <trkpt lat="49.07721" lon="2.10654">
        <ele>101.08</ele>
        <time>2013-12-15T13:05:30Z</time>
      </trkpt>
      <trkpt lat="49.07706" lon="2.10637">
        <ele>101.08</ele>
        <time>2013-12-15T13:05:47Z</time>
      </trkpt>
      <trkpt lat="49.07686" lon="2.1061">
        <ele>100.6</ele>
        <time>2013-12-15T13:06:05Z</time>
      </trkpt>
      <trkpt lat="49.07677" lon="2.10597">
        <ele>100.11</ele>
        <time>2013-12-15T13:06:12Z</time>
      </trkpt>
      <trkpt lat="49.07666" lon="2.10577">
        <ele>99.63</ele>
        <time>2013-12-15T13:06:29Z</time>
      </trkpt>
      <trkpt lat="49.07654" lon="2.10553">
        <ele>99.15</ele>
        <time>2013-12-15T13:06:46Z</time>
      </trkpt>
      <trkpt lat="49.07653" lon="2.10548">
        <ele>100.11</ele>
        <time>2013-12-15T13:07:08Z</time>
      </trkpt>
      <trkpt lat="49.07652" lon="2.10562">
        <ele>99.15</ele>
        <time>2013-12-15T13:07:20Z</time>
      </trkpt>
      <trkpt lat="49.07648" lon="2.10551">
        <ele>98.67</ele>
        <time>2013-12-15T13:07:33Z</time>
      </trkpt>
      <trkpt lat="49.07652" lon="2.10548">
        <ele>98.67</ele>
        <time>2013-12-15T13:07:53Z</time>
      </trkpt>
      <trkpt lat="49.07649" lon="2.10543">
        <ele>98.67</ele>
        <time>2013-12-15T13:08:14Z</time>
      </trkpt>
      <trkpt lat="49.07647" lon="2.10542">
        <ele>98.19</ele>
        <time>2013-12-15T13:08:33Z</time>
      </trkpt>
      <trkpt lat="49.0764" lon="2.10539">
        <ele>98.19</ele>
        <time>2013-12-15T13:08:43Z</time>
      </trkpt>
      <trkpt lat="49.07638" lon="2.10539">
        <ele>97.71</ele>
        <time>2013-12-15T13:08:45Z</time>
      </trkpt>
      <trkpt lat="49.07635" lon="2.10535">
        <ele>97.71</ele>
        <time>2013-12-15T13:08:51Z</time>
      </trkpt>
      <trkpt lat="49.07632" lon="2.10532">
        <ele>97.23</ele>
        <time>2013-12-15T13:09:03Z</time>
      </trkpt>
      <trkpt lat="49.07625" lon="2.1052">
        <ele>97.23</ele>
        <time>2013-12-15T13:09:14Z</time>
      </trkpt>
      <trkpt lat="49.07612" lon="2.10504">
        <ele>96.27</ele>
        <time>2013-12-15T13:09:33Z</time>
      </trkpt>
      <trkpt lat="49.07611" lon="2.10503">
        <ele>96.27</ele>
        <time>2013-12-15T13:09:34Z</time>
      </trkpt>
      <trkpt lat="49.07608" lon="2.10497">
        <ele>96.27</ele>
        <time>2013-12-15T13:09:38Z</time>
      </trkpt>
      <trkpt lat="49.07592" lon="2.10479">
        <ele>94.83</ele>
        <time>2013-12-15T13:09:57Z</time>
      </trkpt>
      <trkpt lat="49.07585" lon="2.10469">
        <ele>94.83</ele>
        <time>2013-12-15T13:10:05Z</time>
      </trkpt>
      <trkpt lat="49.07577" lon="2.10454">
        <ele>94.35</ele>
        <time>2013-12-15T13:10:17Z</time>
      </trkpt>
      <trkpt lat="49.07578" lon="2.10441">
        <ele>93.87</ele>
        <time>2013-12-15T13:10:31Z</time>
      </trkpt>
      <trkpt lat="49.07578" lon="2.10447">
        <ele>93.87</ele>
        <time>2013-12-15T13:10:45Z</time>
      </trkpt>
      <trkpt lat="49.07566" lon="2.10465">
        <ele>94.35</ele>
        <time>2013-12-15T13:10:58Z</time>
      </trkpt>
      <trkpt lat="49.07565" lon="2.10466">
        <ele>94.35</ele>
        <time>2013-12-15T13:10:59Z</time>
      </trkpt>
      <trkpt lat="49.07561" lon="2.10468">
        <ele>94.35</ele>
        <time>2013-12-15T13:11:03Z</time>
      </trkpt>
      <trkpt lat="49.07557" lon="2.10467">
        <ele>94.83</ele>
        <time>2013-12-15T13:11:06Z</time>
      </trkpt>
      <trkpt lat="49.07542" lon="2.10474">
        <ele>94.83</ele>
        <time>2013-12-15T13:11:22Z</time>
      </trkpt>
      <trkpt lat="49.07526" lon="2.10482">
        <ele>94.83</ele>
        <time>2013-12-15T13:11:38Z</time>
      </trkpt>
      <trkpt lat="49.07507" lon="2.10488">
        <ele>94.83</ele>
        <time>2013-12-15T13:11:53Z</time>
      </trkpt>
      <trkpt lat="49.07491" lon="2.10493">
        <ele>94.35</ele>
        <time>2013-12-15T13:12:09Z</time>
      </trkpt>
      <trkpt lat="49.07488" lon="2.10492">
        <ele>94.35</ele>
        <time>2013-12-15T13:12:16Z</time>
      </trkpt>
      <trkpt lat="49.07473" lon="2.10489">
        <ele>93.39</ele>
        <time>2013-12-15T13:12:29Z</time>
      </trkpt>
      <trkpt lat="49.07473" lon="2.10492">
        <ele>93.39</ele>
        <time>2013-12-15T13:12:48Z</time>
      </trkpt>
      <trkpt lat="49.07473" lon="2.10492">
        <ele>93.39</ele>
        <time>2013-12-15T13:12:49Z</time>
      </trkpt>
      <trkpt lat="49.07473" lon="2.10492">
        <ele>93.39</ele>
        <time>2013-12-15T13:12:56Z</time>
      </trkpt>
      <trkpt lat="49.07463" lon="2.10507">
        <ele>93.39</ele>
        <time>2013-12-15T13:13:09Z</time>
      </trkpt>
      <trkpt lat="49.07461" lon="2.10508">
        <ele>93.39</ele>
        <time>2013-12-15T13:13:11Z</time>
      </trkpt>
      <trkpt lat="49.07451" lon="2.10521">
        <ele>93.39</ele>
        <time>2013-12-15T13:13:22Z</time>
      </trkpt>
      <trkpt lat="49.07445" lon="2.10526">
        <ele>93.39</ele>
        <time>2013-12-15T13:13:27Z</time>
      </trkpt>
      <trkpt lat="49.07434" lon="2.10542">
        <ele>93.87</ele>
        <time>2013-12-15T13:13:42Z</time>
      </trkpt>
      <trkpt lat="49.07421" lon="2.10556">
        <ele>93.87</ele>
        <time>2013-12-15T13:13:58Z</time>
      </trkpt>
      <trkpt lat="49.07417" lon="2.10559">
        <ele>93.87</ele>
        <time>2013-12-15T13:14:02Z</time>
      </trkpt>
      <trkpt lat="49.07418" lon="2.10582">
        <ele>93.87</ele>
        <time>2013-12-15T13:14:15Z</time>
      </trkpt>
      <trkpt lat="49.0742" lon="2.10586">
        <ele>93.87</ele>
        <time>2013-12-15T13:14:18Z</time>
      </trkpt>
      <trkpt lat="49.07423" lon="2.10593">
        <ele>93.87</ele>
        <time>2013-12-15T13:14:26Z</time>
      </trkpt>
      <trkpt lat="49.07438" lon="2.10609">
        <ele>94.35</ele>
        <time>2013-12-15T13:14:41Z</time>
      </trkpt>
      <trkpt lat="49.07451" lon="2.1062">
        <ele>94.35</ele>
        <time>2013-12-15T13:14:56Z</time>
      </trkpt>
      <trkpt lat="49.07464" lon="2.10637">
        <ele>94.35</ele>
        <time>2013-12-15T13:15:12Z</time>
      </trkpt>
      <trkpt lat="49.07474" lon="2.1066">
        <ele>94.35</ele>
        <time>2013-12-15T13:15:28Z</time>
      </trkpt>
      <trkpt lat="49.07484" lon="2.10681">
        <ele>93.87</ele>
        <time>2013-12-15T13:15:43Z</time>
      </trkpt>
      <trkpt lat="49.07494" lon="2.10701">
        <ele>93.87</ele>
        <time>2013-12-15T13:15:57Z</time>
      </trkpt>
      <trkpt lat="49.07501" lon="2.10716">
        <ele>93.87</ele>
        <time>2013-12-15T13:16:11Z</time>
      </trkpt>
      <trkpt lat="49.07506" lon="2.10726">
        <ele>94.35</ele>
        <time>2013-12-15T13:16:17Z</time>
      </trkpt>
      <trkpt lat="49.07507" lon="2.10728">
        <ele>94.35</ele>
        <time>2013-12-15T13:16:19Z</time>
      </trkpt>
      <trkpt lat="49.07508" lon="2.10731">
        <ele>94.35</ele>
        <time>2013-12-15T13:16:21Z</time>
      </trkpt>
      <trkpt lat="49.07515" lon="2.10752">
        <ele>94.35</ele>
        <time>2013-12-15T13:16:36Z</time>
      </trkpt>
      <trkpt lat="49.07517" lon="2.10765">
        <ele>94.35</ele>
        <time>2013-12-15T13:16:50Z</time>
      </trkpt>
      <trkpt lat="49.07519" lon="2.1076">
        <ele>93.87</ele>
        <time>2013-12-15T13:17:06Z</time>
      </trkpt>
      <trkpt lat="49.07519" lon="2.10776">
        <ele>93.39</ele>
        <time>2013-12-15T13:17:22Z</time>
      </trkpt>
      <trkpt lat="49.0752" lon="2.10799">
        <ele>93.39</ele>
        <time>2013-12-15T13:17:40Z</time>
      </trkpt>
      <trkpt lat="49.07518" lon="2.10817">
        <ele>93.39</ele>
        <time>2013-12-15T13:17:53Z</time>
      </trkpt>
      <trkpt lat="49.07513" lon="2.10839">
        <ele>92.9</ele>
        <time>2013-12-15T13:18:07Z</time>
      </trkpt>
      <trkpt lat="49.07509" lon="2.10859">
        <ele>92.9</ele>
        <time>2013-12-15T13:18:20Z</time>
      </trkpt>
      <trkpt lat="49.07506" lon="2.10876">
        <ele>92.42</ele>
        <time>2013-12-15T13:18:34Z</time>
      </trkpt>
      <trkpt lat="49.07505" lon="2.10877">
        <ele>92.42</ele>
        <time>2013-12-15T13:18:36Z</time>
      </trkpt>
      <trkpt lat="49.075" lon="2.10882">
        <ele>92.42</ele>
        <time>2013-12-15T13:18:48Z</time>
      </trkpt>
      <trkpt lat="49.07499" lon="2.10882">
        <ele>92.42</ele>
        <time>2013-12-15T13:18:50Z</time>
      </trkpt>
      <trkpt lat="49.07489" lon="2.10885">
        <ele>92.42</ele>
        <time>2013-12-15T13:19:03Z</time>
      </trkpt>
      <trkpt lat="49.07478" lon="2.10888">
        <ele>91.94</ele>
        <time>2013-12-15T13:19:14Z</time>
      </trkpt>
      <trkpt lat="49.07466" lon="2.1089">
        <ele>91.94</ele>
        <time>2013-12-15T13:19:25Z</time>
      </trkpt>
      <trkpt lat="49.07464" lon="2.1089">
        <ele>91.46</ele>
        <time>2013-12-15T13:19:27Z</time>
      </trkpt>
      <trkpt lat="49.07457" lon="2.10891">
        <ele>91.46</ele>
        <time>2013-12-15T13:19:35Z</time>
      </trkpt>
      <trkpt lat="49.07443" lon="2.10898">
        <ele>91.46</ele>
        <time>2013-12-15T13:19:49Z</time>
      </trkpt>
      <trkpt lat="49.07426" lon="2.10899">
        <ele>90.5</ele>
        <time>2013-12-15T13:20:06Z</time>
      </trkpt>
      <trkpt lat="49.07409" lon="2.10905">
        <ele>90.02</ele>
        <time>2013-12-15T13:20:21Z</time>
      </trkpt>
      <trkpt lat="49.07395" lon="2.10909">
        <ele>90.5</ele>
        <time>2013-12-15T13:20:36Z</time>
      </trkpt>
      <trkpt lat="49.07379" lon="2.10915">
        <ele>89.54</ele>
        <time>2013-12-15T13:20:51Z</time>
      </trkpt>
      <trkpt lat="49.07366" lon="2.1092">
        <ele>89.54</ele>
        <time>2013-12-15T13:21:03Z</time>
      </trkpt>
      <trkpt lat="49.07356" lon="2.10926">
        <ele>89.06</ele>
        <time>2013-12-15T13:21:14Z</time>
      </trkpt>
      <trkpt lat="49.07352" lon="2.10927">
        <ele>89.06</ele>
        <time>2013-12-15T13:21:18Z</time>
      </trkpt>
      <trkpt lat="49.07347" lon="2.10928">
        <ele>88.1</ele>
        <time>2013-12-15T13:21:22Z</time>
      </trkpt>
      <trkpt lat="49.0734" lon="2.10932">
        <ele>88.58</ele>
        <time>2013-12-15T13:21:30Z</time>
      </trkpt>
      <trkpt lat="49.07329" lon="2.10934">
        <ele>88.1</ele>
        <time>2013-12-15T13:21:38Z</time>
      </trkpt>
      <trkpt lat="49.07316" lon="2.10943">
        <ele>87.62</ele>
        <time>2013-12-15T13:21:53Z</time>
      </trkpt>
      <trkpt lat="49.07309" lon="2.10947">
        <ele>87.14</ele>
        <time>2013-12-15T13:21:58Z</time>
      </trkpt>
      <trkpt lat="49.07305" lon="2.10949">
        <ele>87.14</ele>
        <time>2013-12-15T13:22:03Z</time>
      </trkpt>
      <trkpt lat="49.07288" lon="2.10958">
        <ele>86.66</ele>
        <time>2013-12-15T13:22:17Z</time>
      </trkpt>
      <trkpt lat="49.07286" lon="2.1096">
        <ele>86.18</ele>
        <time>2013-12-15T13:22:19Z</time>
      </trkpt>
      <trkpt lat="49.07273" lon="2.10965">
        <ele>85.69</ele>
        <time>2013-12-15T13:22:32Z</time>
      </trkpt>
      <trkpt lat="49.07268" lon="2.10969">
        <ele>85.21</ele>
        <time>2013-12-15T13:22:37Z</time>
      </trkpt>
      <trkpt lat="49.07255" lon="2.10977">
        <ele>84.73</ele>
        <time>2013-12-15T13:22:51Z</time>
      </trkpt>
      <trkpt lat="49.0724" lon="2.1098">
        <ele>84.25</ele>
        <time>2013-12-15T13:23:07Z</time>
      </trkpt>
      <trkpt lat="49.07237" lon="2.10979">
        <ele>84.25</ele>
        <time>2013-12-15T13:23:12Z</time>
      </trkpt>
      <trkpt lat="49.07233" lon="2.10974">
        <ele>84.25</ele>
        <time>2013-12-15T13:23:16Z</time>
      </trkpt>
      <trkpt lat="49.07223" lon="2.10961">
        <ele>83.29</ele>
        <time>2013-12-15T13:23:28Z</time>
      </trkpt>
      <trkpt lat="49.07211" lon="2.10944">
        <ele>81.85</ele>
        <time>2013-12-15T13:23:44Z</time>
      </trkpt>
      <trkpt lat="49.07198" lon="2.1093">
        <ele>81.37</ele>
        <time>2013-12-15T13:23:58Z</time>
      </trkpt>
      <trkpt lat="49.07186" lon="2.10918">
        <ele>80.41</ele>
        <time>2013-12-15T13:24:12Z</time>
      </trkpt>
      <trkpt lat="49.07175" lon="2.10908">
        <ele>79.93</ele>
        <time>2013-12-15T13:24:24Z</time>
      </trkpt>
      <trkpt lat="49.07161" lon="2.10897">
        <ele>79.45</ele>
        <time>2013-12-15T13:24:38Z</time>
      </trkpt>
      <trkpt lat="49.07159" lon="2.10895">
        <ele>79.45</ele>
        <time>2013-12-15T13:24:41Z</time>
      </trkpt>
      <trkpt lat="49.07148" lon="2.10889">
        <ele>78.97</ele>
        <time>2013-12-15T13:24:53Z</time>
      </trkpt>
      <trkpt lat="49.07133" lon="2.10883">
        <ele>78.48</ele>
        <time>2013-12-15T13:25:07Z</time>
      </trkpt>
      <trkpt lat="49.07123" lon="2.10877">
        <ele>78.48</ele>
        <time>2013-12-15T13:25:17Z</time>
      </trkpt>
      <trkpt lat="49.0712" lon="2.10874">
        <ele>78.48</ele>
        <time>2013-12-15T13:25:21Z</time>
      </trkpt>
      <trkpt lat="49.07109" lon="2.10868">
        <ele>78</ele>
        <time>2013-12-15T13:25:32Z</time>
      </trkpt>
      <trkpt lat="49.07104" lon="2.10866">
        <ele>78</ele>
        <time>2013-12-15T13:25:36Z</time>
      </trkpt>
      <trkpt lat="49.07088" lon="2.10859">
        <ele>77.52</ele>
        <time>2013-12-15T13:25:51Z</time>
      </trkpt>
      <trkpt lat="49.07072" lon="2.10855">
        <ele>77.04</ele>
        <time>2013-12-15T13:26:05Z</time>
      </trkpt>
      <trkpt lat="49.07055" lon="2.10852">
        <ele>76.56</ele>
        <time>2013-12-15T13:26:21Z</time>
      </trkpt>
      <trkpt lat="49.07041" lon="2.10849">
        <ele>76.08</ele>
        <time>2013-12-15T13:26:35Z</time>
      </trkpt>
      <trkpt lat="49.0703" lon="2.10846">
        <ele>75.6</ele>
        <time>2013-12-15T13:26:46Z</time>
      </trkpt>
      <trkpt lat="49.07013" lon="2.10842">
        <ele>74.64</ele>
        <time>2013-12-15T13:27:02Z</time>
      </trkpt>
      <trkpt lat="49.06998" lon="2.10837">
        <ele>74.64</ele>
        <time>2013-12-15T13:27:16Z</time>
      </trkpt>
      <trkpt lat="49.06983" lon="2.10832">
        <ele>74.64</ele>
        <time>2013-12-15T13:27:29Z</time>
      </trkpt>
      <trkpt lat="49.06978" lon="2.1083">
        <ele>75.12</ele>
        <time>2013-12-15T13:27:35Z</time>
      </trkpt>
      <trkpt lat="49.06972" lon="2.10829">
        <ele>74.64</ele>
        <time>2013-12-15T13:27:39Z</time>
      </trkpt>
      <trkpt lat="49.06956" lon="2.10824">
        <ele>74.16</ele>
        <time>2013-12-15T13:27:54Z</time>
      </trkpt>
      <trkpt lat="49.06943" lon="2.1082">
        <ele>73.68</ele>
        <time>2013-12-15T13:28:07Z</time>
      </trkpt>
      <trkpt lat="49.06927" lon="2.10816">
        <ele>73.2</ele>
        <time>2013-12-15T13:28:22Z</time>
      </trkpt>
      <trkpt lat="49.0692" lon="2.10818">
        <ele>72.72</ele>
        <time>2013-12-15T13:28:32Z</time>
      </trkpt>
      <trkpt lat="49.06922" lon="2.10823">
        <ele>72.72</ele>
        <time>2013-12-15T13:28:48Z</time>
      </trkpt>
      <trkpt lat="49.06917" lon="2.10825">
        <ele>72.72</ele>
        <time>2013-12-15T13:29:00Z</time>
      </trkpt>
      <trkpt lat="49.06916" lon="2.10824">
        <ele>72.24</ele>
        <time>2013-12-15T13:29:14Z</time>
      </trkpt>
      <trkpt lat="49.06913" lon="2.10824">
        <ele>72.24</ele>
        <time>2013-12-15T13:29:31Z</time>
      </trkpt>
      <trkpt lat="49.06905" lon="2.10827">
        <ele>72.24</ele>
        <time>2013-12-15T13:29:47Z</time>
      </trkpt>
      <trkpt lat="49.06907" lon="2.10829">
        <ele>72.24</ele>
        <time>2013-12-15T13:30:01Z</time>
      </trkpt>
      <trkpt lat="49.06907" lon="2.10828">
        <ele>72.72</ele>
        <time>2013-12-15T13:30:13Z</time>
      </trkpt>
      <trkpt lat="49.06903" lon="2.10828">
        <ele>71.76</ele>
        <time>2013-12-15T13:30:18Z</time>
      </trkpt>
      <trkpt lat="49.0688" lon="2.10838">
        <ele>70.31</ele>
        <time>2013-12-15T13:30:38Z</time>
      </trkpt>
      <trkpt lat="49.06862" lon="2.10849">
        <ele>70.31</ele>
        <time>2013-12-15T13:30:53Z</time>
      </trkpt>
      <trkpt lat="49.06859" lon="2.1085">
        <ele>70.31</ele>
        <time>2013-12-15T13:30:57Z</time>
      </trkpt>
      <trkpt lat="49.06851" lon="2.10853">
        <ele>69.83</ele>
        <time>2013-12-15T13:31:06Z</time>
      </trkpt>
      <trkpt lat="49.06838" lon="2.10858">
        <ele>69.83</ele>
        <time>2013-12-15T13:31:18Z</time>
      </trkpt>
      <trkpt lat="49.06834" lon="2.10858">
        <ele>69.35</ele>
        <time>2013-12-15T13:31:22Z</time>
      </trkpt>
      <trkpt lat="49.06832" lon="2.1086">
        <ele>69.35</ele>
        <time>2013-12-15T13:31:24Z</time>
      </trkpt>
      <trkpt lat="49.06814" lon="2.10868">
        <ele>68.87</ele>
        <time>2013-12-15T13:31:40Z</time>
      </trkpt>
      <trkpt lat="49.06799" lon="2.10874">
        <ele>68.39</ele>
        <time>2013-12-15T13:31:54Z</time>
      </trkpt>
      <trkpt lat="49.06797" lon="2.10876">
        <ele>68.39</ele>
        <time>2013-12-15T13:31:57Z</time>
      </trkpt>
      <trkpt lat="49.06782" lon="2.10884">
        <ele>66.47</ele>
        <time>2013-12-15T13:32:11Z</time>
      </trkpt>
      <trkpt lat="49.06779" lon="2.10888">
        <ele>66.47</ele>
        <time>2013-12-15T13:32:13Z</time>
      </trkpt>
      <trkpt lat="49.06768" lon="2.10892">
        <ele>65.03</ele>
        <time>2013-12-15T13:32:25Z</time>
      </trkpt>
      <trkpt lat="49.06752" lon="2.10899">
        <ele>64.07</ele>
        <time>2013-12-15T13:32:38Z</time>
      </trkpt>
      <trkpt lat="49.06737" lon="2.10906">
        <ele>62.14</ele>
        <time>2013-12-15T13:32:52Z</time>
      </trkpt>
      <trkpt lat="49.06735" lon="2.10907">
        <ele>61.66</ele>
        <time>2013-12-15T13:32:56Z</time>
      </trkpt>
      <trkpt lat="49.06733" lon="2.10908">
        <ele>61.66</ele>
        <time>2013-12-15T13:32:57Z</time>
      </trkpt>
      <trkpt lat="49.06723" lon="2.10914">
        <ele>61.18</ele>
        <time>2013-12-15T13:33:06Z</time>
      </trkpt>
      <trkpt lat="49.06719" lon="2.10915">
        <ele>60.7</ele>
        <time>2013-12-15T13:33:12Z</time>
      </trkpt>
      <trkpt lat="49.06717" lon="2.10916">
        <ele>60.22</ele>
        <time>2013-12-15T13:33:13Z</time>
      </trkpt>
      <trkpt lat="49.067" lon="2.10922">
        <ele>59.74</ele>
        <time>2013-12-15T13:33:27Z</time>
      </trkpt>
      <trkpt lat="49.06699" lon="2.10922">
        <ele>60.22</ele>
        <time>2013-12-15T13:33:28Z</time>
      </trkpt>
      <trkpt lat="49.06698" lon="2.10921">
        <ele>60.22</ele>
        <time>2013-12-15T13:33:29Z</time>
      </trkpt>
      <trkpt lat="49.06691" lon="2.10918">
        <ele>59.74</ele>
        <time>2013-12-15T13:33:35Z</time>
      </trkpt>
      <trkpt lat="49.0669" lon="2.10915">
        <ele>60.22</ele>
        <time>2013-12-15T13:33:41Z</time>
      </trkpt>
      <trkpt lat="49.06686" lon="2.10907">
        <ele>59.74</ele>
        <time>2013-12-15T13:33:46Z</time>
      </trkpt>
      <trkpt lat="49.06685" lon="2.10906">
        <ele>59.74</ele>
        <time>2013-12-15T13:33:47Z</time>
      </trkpt>
      <trkpt lat="49.06685" lon="2.10904">
        <ele>59.74</ele>
        <time>2013-12-15T13:33:48Z</time>
      </trkpt>
      <trkpt lat="49.06684" lon="2.10903">
        <ele>59.74</ele>
        <time>2013-12-15T13:33:49Z</time>
      </trkpt>
      <trkpt lat="49.0668" lon="2.10895">
        <ele>59.74</ele>
        <time>2013-12-15T13:33:54Z</time>
      </trkpt>
      <trkpt lat="49.06679" lon="2.10894">
        <ele>59.74</ele>
        <time>2013-12-15T13:33:55Z</time>
      </trkpt>
      <trkpt lat="49.06669" lon="2.10876">
        <ele>58.3</ele>
        <time>2013-12-15T13:34:10Z</time>
      </trkpt>
      <trkpt lat="49.06665" lon="2.10867">
        <ele>58.3</ele>
        <time>2013-12-15T13:34:16Z</time>
      </trkpt>
      <trkpt lat="49.06665" lon="2.10865">
        <ele>57.82</ele>
        <time>2013-12-15T13:34:17Z</time>
      </trkpt>
      <trkpt lat="49.06665" lon="2.10863">
        <ele>57.34</ele>
        <time>2013-12-15T13:34:18Z</time>
      </trkpt>
      <trkpt lat="49.06658" lon="2.10851">
        <ele>56.37</ele>
        <time>2013-12-15T13:34:31Z</time>
      </trkpt>
      <trkpt lat="49.06652" lon="2.10837">
        <ele>55.89</ele>
        <time>2013-12-15T13:34:44Z</time>
      </trkpt>
      <trkpt lat="49.06646" lon="2.10839">
        <ele>55.41</ele>
        <time>2013-12-15T13:34:53Z</time>
      </trkpt>
      <trkpt lat="49.06645" lon="2.1084">
        <ele>55.41</ele>
        <time>2013-12-15T13:34:54Z</time>
      </trkpt>
      <trkpt lat="49.06644" lon="2.10841">
        <ele>55.41</ele>
        <time>2013-12-15T13:34:55Z</time>
      </trkpt>
      <trkpt lat="49.06643" lon="2.10842">
        <ele>55.89</ele>
        <time>2013-12-15T13:34:56Z</time>
      </trkpt>
      <trkpt lat="49.06642" lon="2.10843">
        <ele>55.89</ele>
        <time>2013-12-15T13:34:57Z</time>
      </trkpt>
      <trkpt lat="49.06629" lon="2.1086">
        <ele>57.34</ele>
        <time>2013-12-15T13:35:13Z</time>
      </trkpt>
      <trkpt lat="49.06623" lon="2.1086">
        <ele>58.3</ele>
        <time>2013-12-15T13:35:21Z</time>
      </trkpt>
      <trkpt lat="49.06616" lon="2.10847">
        <ele>59.26</ele>
        <time>2013-12-15T13:35:32Z</time>
      </trkpt>
      <trkpt lat="49.06605" lon="2.10831">
        <ele>59.74</ele>
        <time>2013-12-15T13:35:44Z</time>
      </trkpt>
      <trkpt lat="49.06597" lon="2.10825">
        <ele>59.74</ele>
        <time>2013-12-15T13:35:56Z</time>
      </trkpt>
      <trkpt lat="49.06594" lon="2.10824">
        <ele>59.74</ele>
        <time>2013-12-15T13:35:58Z</time>
      </trkpt>
      <trkpt lat="49.06576" lon="2.10815">
        <ele>60.22</ele>
        <time>2013-12-15T13:36:12Z</time>
      </trkpt>
      <trkpt lat="49.06562" lon="2.10815">
        <ele>60.7</ele>
        <time>2013-12-15T13:36:25Z</time>
      </trkpt>
      <trkpt lat="49.06545" lon="2.10819">
        <ele>61.18</ele>
        <time>2013-12-15T13:36:40Z</time>
      </trkpt>
      <trkpt lat="49.0653" lon="2.10815">
        <ele>62.14</ele>
        <time>2013-12-15T13:36:55Z</time>
      </trkpt>
      <trkpt lat="49.06516" lon="2.10817">
        <ele>62.62</ele>
        <time>2013-12-15T13:37:08Z</time>
      </trkpt>
      <trkpt lat="49.06504" lon="2.10812">
        <ele>62.62</ele>
        <time>2013-12-15T13:37:20Z</time>
      </trkpt>
      <trkpt lat="49.065" lon="2.1081">
        <ele>62.62</ele>
        <time>2013-12-15T13:37:23Z</time>
      </trkpt>
      <trkpt lat="49.06492" lon="2.10805">
        <ele>62.14</ele>
        <time>2013-12-15T13:37:31Z</time>
      </trkpt>
      <trkpt lat="49.06478" lon="2.10801">
        <ele>61.18</ele>
        <time>2013-12-15T13:37:47Z</time>
      </trkpt>
      <trkpt lat="49.06476" lon="2.108">
        <ele>61.18</ele>
        <time>2013-12-15T13:38:00Z</time>
      </trkpt>
      <trkpt lat="49.06466" lon="2.10792">
        <ele>59.74</ele>
        <time>2013-12-15T13:38:14Z</time>
      </trkpt>
      <trkpt lat="49.0645" lon="2.10785">
        <ele>58.78</ele>
        <time>2013-12-15T13:38:30Z</time>
      </trkpt>
      <trkpt lat="49.06449" lon="2.10785">
        <ele>58.3</ele>
        <time>2013-12-15T13:38:45Z</time>
      </trkpt>
      <trkpt lat="49.06447" lon="2.10786">
        <ele>58.3</ele>
        <time>2013-12-15T13:39:14Z</time>
      </trkpt>
      <trkpt lat="49.06449" lon="2.10786">
        <ele>57.34</ele>
        <time>2013-12-15T13:41:16Z</time>
      </trkpt>
      <trkpt lat="49.06457" lon="2.10786">
        <ele>57.82</ele>
        <time>2013-12-15T13:42:31Z</time>
      </trkpt>
      <trkpt lat="49.06453" lon="2.10785">
        <ele>57.82</ele>
        <time>2013-12-15T13:44:02Z</time>
      </trkpt>
      <trkpt lat="49.06446" lon="2.10787">
        <ele>57.82</ele>
        <time>2013-12-15T13:44:17Z</time>
      </trkpt>
      <trkpt lat="49.06443" lon="2.10786">
        <ele>58.3</ele>
        <time>2013-12-15T13:44:27Z</time>
      </trkpt>
      <trkpt lat="49.06438" lon="2.10781">
        <ele>58.3</ele>
        <time>2013-12-15T13:44:31Z</time>
      </trkpt>
      <trkpt lat="49.06429" lon="2.10777">
        <ele>57.82</ele>
        <time>2013-12-15T13:44:47Z</time>
      </trkpt>
      <trkpt lat="49.06419" lon="2.10766">
        <ele>58.3</ele>
        <time>2013-12-15T13:45:02Z</time>
      </trkpt>
      <trkpt lat="49.0641" lon="2.10761">
        <ele>58.3</ele>
        <time>2013-12-15T13:45:18Z</time>
      </trkpt>
      <trkpt lat="49.064" lon="2.1076">
        <ele>57.82</ele>
        <time>2013-12-15T13:45:30Z</time>
      </trkpt>
      <trkpt lat="49.06391" lon="2.10755">
        <ele>58.3</ele>
        <time>2013-12-15T13:45:48Z</time>
      </trkpt>
      <trkpt lat="49.06373" lon="2.10752">
        <ele>58.3</ele>
        <time>2013-12-15T13:46:04Z</time>
      </trkpt>
      <trkpt lat="49.06359" lon="2.10737">
        <ele>57.34</ele>
        <time>2013-12-15T13:46:17Z</time>
      </trkpt>
      <trkpt lat="49.06343" lon="2.10727">
        <ele>56.86</ele>
        <time>2013-12-15T13:46:30Z</time>
      </trkpt>
      <trkpt lat="49.0634" lon="2.10727">
        <ele>56.86</ele>
        <time>2013-12-15T13:46:34Z</time>
      </trkpt>
      <trkpt lat="49.06338" lon="2.10727">
        <ele>56.86</ele>
        <time>2013-12-15T13:46:35Z</time>
      </trkpt>
      <trkpt lat="49.06337" lon="2.10726">
        <ele>56.86</ele>
        <time>2013-12-15T13:46:36Z</time>
      </trkpt>
      <trkpt lat="49.06335" lon="2.10725">
        <ele>56.86</ele>
        <time>2013-12-15T13:46:37Z</time>
      </trkpt>
      <trkpt lat="49.06334" lon="2.10724">
        <ele>56.86</ele>
        <time>2013-12-15T13:46:38Z</time>
      </trkpt>
      <trkpt lat="49.06333" lon="2.10723">
        <ele>56.86</ele>
        <time>2013-12-15T13:46:39Z</time>
      </trkpt>
      <trkpt lat="49.06329" lon="2.10721">
        <ele>56.86</ele>
        <time>2013-12-15T13:46:44Z</time>
      </trkpt>
      <trkpt lat="49.06316" lon="2.1071">
        <ele>56.86</ele>
        <time>2013-12-15T13:46:59Z</time>
      </trkpt>
      <trkpt lat="49.06305" lon="2.107">
        <ele>56.86</ele>
        <time>2013-12-15T13:47:13Z</time>
      </trkpt>
      <trkpt lat="49.06293" lon="2.10687">
        <ele>57.34</ele>
        <time>2013-12-15T13:47:26Z</time>
      </trkpt>
      <trkpt lat="49.06279" lon="2.10675">
        <ele>57.34</ele>
        <time>2013-12-15T13:47:39Z</time>
      </trkpt>
      <trkpt lat="49.06276" lon="2.10673">
        <ele>57.82</ele>
        <time>2013-12-15T13:47:44Z</time>
      </trkpt>
      <trkpt lat="49.0627" lon="2.10665">
        <ele>57.34</ele>
        <time>2013-12-15T13:47:58Z</time>
      </trkpt>
      <trkpt lat="49.06271" lon="2.10663">
        <ele>57.34</ele>
        <time>2013-12-15T13:48:04Z</time>
      </trkpt>
      <trkpt lat="49.06266" lon="2.10662">
        <ele>57.34</ele>
        <time>2013-12-15T13:48:09Z</time>
      </trkpt>
      <trkpt lat="49.06251" lon="2.1066">
        <ele>57.82</ele>
        <time>2013-12-15T13:48:23Z</time>
      </trkpt>
      <trkpt lat="49.0624" lon="2.1066">
        <ele>57.82</ele>
        <time>2013-12-15T13:48:39Z</time>
      </trkpt>
      <trkpt lat="49.06238" lon="2.10659">
        <ele>57.82</ele>
        <time>2013-12-15T13:48:41Z</time>
      </trkpt>
      <trkpt lat="49.06222" lon="2.10663">
        <ele>57.82</ele>
        <time>2013-12-15T13:48:56Z</time>
      </trkpt>
      <trkpt lat="49.06209" lon="2.1067">
        <ele>56.86</ele>
        <time>2013-12-15T13:49:07Z</time>
      </trkpt>
      <trkpt lat="49.06202" lon="2.10674">
        <ele>56.86</ele>
        <time>2013-12-15T13:49:17Z</time>
      </trkpt>
      <trkpt lat="49.06189" lon="2.10677">
        <ele>56.37</ele>
        <time>2013-12-15T13:49:30Z</time>
      </trkpt>
      <trkpt lat="49.06184" lon="2.10683">
        <ele>56.37</ele>
        <time>2013-12-15T13:49:33Z</time>
      </trkpt>
      <trkpt lat="49.06176" lon="2.10683">
        <ele>55.41</ele>
        <time>2013-12-15T13:49:48Z</time>
      </trkpt>
      <trkpt lat="49.06164" lon="2.10694">
        <ele>56.37</ele>
        <time>2013-12-15T13:50:03Z</time>
      </trkpt>
      <trkpt lat="49.0616" lon="2.10697">
        <ele>55.89</ele>
        <time>2013-12-15T13:50:07Z</time>
      </trkpt>
      <trkpt lat="49.06144" lon="2.10705">
        <ele>55.41</ele>
        <time>2013-12-15T13:50:22Z</time>
      </trkpt>
      <trkpt lat="49.06131" lon="2.10717">
        <ele>54.93</ele>
        <time>2013-12-15T13:50:36Z</time>
      </trkpt>
      <trkpt lat="49.06121" lon="2.10726">
        <ele>54.93</ele>
        <time>2013-12-15T13:50:50Z</time>
      </trkpt>
      <trkpt lat="49.06108" lon="2.1074">
        <ele>54.93</ele>
        <time>2013-12-15T13:51:08Z</time>
      </trkpt>
      <trkpt lat="49.06098" lon="2.10747">
        <ele>54.45</ele>
        <time>2013-12-15T13:51:22Z</time>
      </trkpt>
      <trkpt lat="49.06086" lon="2.10769">
        <ele>53.01</ele>
        <time>2013-12-15T13:51:35Z</time>
      </trkpt>
      <trkpt lat="49.06076" lon="2.10774">
        <ele>52.53</ele>
        <time>2013-12-15T13:51:49Z</time>
      </trkpt>
      <trkpt lat="49.06071" lon="2.10792">
        <ele>52.53</ele>
        <time>2013-12-15T13:52:02Z</time>
      </trkpt>
      <trkpt lat="49.06059" lon="2.10804">
        <ele>52.05</ele>
        <time>2013-12-15T13:52:17Z</time>
      </trkpt>
      <trkpt lat="49.06049" lon="2.10809">
        <ele>53.01</ele>
        <time>2013-12-15T13:52:28Z</time>
      </trkpt>
      <trkpt lat="49.06042" lon="2.10813">
        <ele>53.01</ele>
        <time>2013-12-15T13:52:40Z</time>
      </trkpt>
      <trkpt lat="49.06027" lon="2.10825">
        <ele>53.01</ele>
        <time>2013-12-15T13:52:55Z</time>
      </trkpt>
      <trkpt lat="49.06011" lon="2.10829">
        <ele>51.09</ele>
        <time>2013-12-15T13:53:09Z</time>
      </trkpt>
      <trkpt lat="49.05986" lon="2.10831">
        <ele>51.57</ele>
        <time>2013-12-15T13:53:24Z</time>
      </trkpt>
      <trkpt lat="49.05991" lon="2.10851">
        <ele>53.01</ele>
        <time>2013-12-15T13:53:37Z</time>
      </trkpt>
      <trkpt lat="49.05992" lon="2.10854">
        <ele>53.01</ele>
        <time>2013-12-15T13:53:39Z</time>
      </trkpt>
      <trkpt lat="49.05987" lon="2.10884">
        <ele>55.41</ele>
        <time>2013-12-15T13:53:55Z</time>
      </trkpt>
      <trkpt lat="49.05989" lon="2.10898">
        <ele>57.82</ele>
        <time>2013-12-15T13:54:10Z</time>
      </trkpt>
      <trkpt lat="49.05993" lon="2.10907">
        <ele>59.26</ele>
        <time>2013-12-15T13:54:21Z</time>
      </trkpt>
      <trkpt lat="49.05989" lon="2.1091">
        <ele>59.26</ele>
        <time>2013-12-15T13:54:38Z</time>
      </trkpt>
      <trkpt lat="49.0599" lon="2.10909">
        <ele>59.26</ele>
        <time>2013-12-15T13:54:53Z</time>
      </trkpt>
      <trkpt lat="49.05994" lon="2.10909">
        <ele>59.26</ele>
        <time>2013-12-15T13:55:10Z</time>
      </trkpt>
      <trkpt lat="49.0599" lon="2.10908">
        <ele>59.26</ele>
        <time>2013-12-15T13:55:22Z</time>
      </trkpt>
      <trkpt lat="49.05986" lon="2.10908">
        <ele>58.78</ele>
        <time>2013-12-15T13:55:33Z</time>
      </trkpt>
      <trkpt lat="49.05984" lon="2.10906">
        <ele>58.78</ele>
        <time>2013-12-15T13:55:36Z</time>
      </trkpt>
      <trkpt lat="49.05976" lon="2.10906">
        <ele>59.26</ele>
        <time>2013-12-15T13:55:50Z</time>
      </trkpt>
      <trkpt lat="49.05979" lon="2.10908">
        <ele>58.78</ele>
        <time>2013-12-15T13:56:04Z</time>
      </trkpt>
      <trkpt lat="49.05974" lon="2.10917">
        <ele>58.78</ele>
        <time>2013-12-15T13:56:22Z</time>
      </trkpt>
      <trkpt lat="49.05969" lon="2.109">
        <ele>59.26</ele>
        <time>2013-12-15T13:56:37Z</time>
      </trkpt>
      <trkpt lat="49.05953" lon="2.10894">
        <ele>59.74</ele>
        <time>2013-12-15T13:56:55Z</time>
      </trkpt>
      <trkpt lat="49.05941" lon="2.10893">
        <ele>59.74</ele>
        <time>2013-12-15T13:57:08Z</time>
      </trkpt>
      <trkpt lat="49.0594" lon="2.10893">
        <ele>59.74</ele>
        <time>2013-12-15T13:57:09Z</time>
      </trkpt>
      <trkpt lat="49.05921" lon="2.10889">
        <ele>60.22</ele>
        <time>2013-12-15T13:57:24Z</time>
      </trkpt>
      <trkpt lat="49.05907" lon="2.10882">
        <ele>60.22</ele>
        <time>2013-12-15T13:57:38Z</time>
      </trkpt>
      <trkpt lat="49.05896" lon="2.10878">
        <ele>60.22</ele>
        <time>2013-12-15T13:57:50Z</time>
      </trkpt>
      <trkpt lat="49.05883" lon="2.10873">
        <ele>60.7</ele>
        <time>2013-12-15T13:58:02Z</time>
      </trkpt>
      <trkpt lat="49.05876" lon="2.10871">
        <ele>60.22</ele>
        <time>2013-12-15T13:58:08Z</time>
      </trkpt>
      <trkpt lat="49.0586" lon="2.10872">
        <ele>60.22</ele>
        <time>2013-12-15T13:58:21Z</time>
      </trkpt>
      <trkpt lat="49.05846" lon="2.10878">
        <ele>60.22</ele>
        <time>2013-12-15T13:58:34Z</time>
      </trkpt>
      <trkpt lat="49.05836" lon="2.10883">
        <ele>59.74</ele>
        <time>2013-12-15T13:58:44Z</time>
      </trkpt>
      <trkpt lat="49.05822" lon="2.10889">
        <ele>59.74</ele>
        <time>2013-12-15T13:58:57Z</time>
      </trkpt>
      <trkpt lat="49.05809" lon="2.10885">
        <ele>59.74</ele>
        <time>2013-12-15T13:59:08Z</time>
      </trkpt>
      <trkpt lat="49.05794" lon="2.10885">
        <ele>59.26</ele>
        <time>2013-12-15T13:59:21Z</time>
      </trkpt>
      <trkpt lat="49.05782" lon="2.10883">
        <ele>59.74</ele>
        <time>2013-12-15T13:59:34Z</time>
      </trkpt>
      <trkpt lat="49.05762" lon="2.10885">
        <ele>59.26</ele>
        <time>2013-12-15T13:59:52Z</time>
      </trkpt>
      <trkpt lat="49.05748" lon="2.1088">
        <ele>58.78</ele>
        <time>2013-12-15T14:00:05Z</time>
      </trkpt>
      <trkpt lat="49.05738" lon="2.10863">
        <ele>58.78</ele>
        <time>2013-12-15T14:00:19Z</time>
      </trkpt>
      <trkpt lat="49.05736" lon="2.10862">
        <ele>58.78</ele>
        <time>2013-12-15T14:00:22Z</time>
      </trkpt>
      <trkpt lat="49.05723" lon="2.10857">
        <ele>58.3</ele>
        <time>2013-12-15T14:00:34Z</time>
      </trkpt>
      <trkpt lat="49.057" lon="2.10851">
        <ele>58.3</ele>
        <time>2013-12-15T14:00:54Z</time>
      </trkpt>
      <trkpt lat="49.05695" lon="2.10854">
        <ele>57.34</ele>
        <time>2013-12-15T14:01:06Z</time>
      </trkpt>
      <trkpt lat="49.05689" lon="2.1085">
        <ele>56.86</ele>
        <time>2013-12-15T14:01:14Z</time>
      </trkpt>
      <trkpt lat="49.05682" lon="2.10847">
        <ele>56.86</ele>
        <time>2013-12-15T14:01:18Z</time>
      </trkpt>
      <trkpt lat="49.05674" lon="2.10844">
        <ele>56.37</ele>
        <time>2013-12-15T14:01:24Z</time>
      </trkpt>
      <trkpt lat="49.05652" lon="2.10837">
        <ele>55.41</ele>
        <time>2013-12-15T14:01:47Z</time>
      </trkpt>
      <trkpt lat="49.0565" lon="2.10836">
        <ele>55.41</ele>
        <time>2013-12-15T14:01:48Z</time>
      </trkpt>
      <trkpt lat="49.05625" lon="2.10836">
        <ele>53.49</ele>
        <time>2013-12-15T14:02:10Z</time>
      </trkpt>
      <trkpt lat="49.05601" lon="2.10821">
        <ele>51.57</ele>
        <time>2013-12-15T14:02:33Z</time>
      </trkpt>
      <trkpt lat="49.05582" lon="2.10818">
        <ele>50.13</ele>
        <time>2013-12-15T14:02:52Z</time>
      </trkpt>
      <trkpt lat="49.05565" lon="2.10817">
        <ele>48.68</ele>
        <time>2013-12-15T14:03:05Z</time>
      </trkpt>
      <trkpt lat="49.05551" lon="2.10813">
        <ele>47.24</ele>
        <time>2013-12-15T14:03:19Z</time>
      </trkpt>
      <trkpt lat="49.05535" lon="2.10808">
        <ele>45.8</ele>
        <time>2013-12-15T14:03:32Z</time>
      </trkpt>
      <trkpt lat="49.05524" lon="2.10802">
        <ele>44.36</ele>
        <time>2013-12-15T14:03:47Z</time>
      </trkpt>
      <trkpt lat="49.05525" lon="2.10801">
        <ele>44.36</ele>
        <time>2013-12-15T14:04:10Z</time>
      </trkpt>
      <trkpt lat="49.05523" lon="2.10799">
        <ele>44.36</ele>
        <time>2013-12-15T14:04:36Z</time>
      </trkpt>
      <trkpt lat="49.05522" lon="2.10798">
        <ele>43.88</ele>
        <time>2013-12-15T14:04:49Z</time>
      </trkpt>
      <trkpt lat="49.05521" lon="2.10798">
        <ele>43.88</ele>
        <time>2013-12-15T14:05:05Z</time>
      </trkpt>
      <trkpt lat="49.05521" lon="2.10797">
        <ele>44.36</ele>
        <time>2013-12-15T14:05:21Z</time>
      </trkpt>
      <trkpt lat="49.05521" lon="2.10797">
        <ele>43.88</ele>
        <time>2013-12-15T14:05:30Z</time>
      </trkpt>
      <trkpt lat="49.05515" lon="2.10797">
        <ele>43.4</ele>
        <time>2013-12-15T14:05:42Z</time>
      </trkpt>
      <trkpt lat="49.05501" lon="2.10792">
        <ele>42.44</ele>
        <time>2013-12-15T14:05:55Z</time>
      </trkpt>
      <trkpt lat="49.0549" lon="2.10782">
        <ele>40.99</ele>
        <time>2013-12-15T14:06:07Z</time>
      </trkpt>
      <trkpt lat="49.05488" lon="2.10781">
        <ele>40.99</ele>
        <time>2013-12-15T14:06:09Z</time>
      </trkpt>
      <trkpt lat="49.0548" lon="2.10774">
        <ele>39.55</ele>
        <time>2013-12-15T14:06:20Z</time>
      </trkpt>
      <trkpt lat="49.05474" lon="2.10773">
        <ele>39.07</ele>
        <time>2013-12-15T14:06:33Z</time>
      </trkpt>
      <trkpt lat="49.05474" lon="2.10769">
        <ele>39.07</ele>
        <time>2013-12-15T14:06:38Z</time>
      </trkpt>
      <trkpt lat="49.05472" lon="2.10766">
        <ele>38.11</ele>
        <time>2013-12-15T14:06:52Z</time>
      </trkpt>
      <trkpt lat="49.05471" lon="2.10766">
        <ele>38.11</ele>
        <time>2013-12-15T14:06:53Z</time>
      </trkpt>
      <trkpt lat="49.05456" lon="2.10753">
        <ele>36.67</ele>
        <time>2013-12-15T14:07:09Z</time>
      </trkpt>
      <trkpt lat="49.05453" lon="2.10749">
        <ele>36.19</ele>
        <time>2013-12-15T14:07:14Z</time>
      </trkpt>
      <trkpt lat="49.05436" lon="2.10731">
        <ele>33.78</ele>
        <time>2013-12-15T14:07:34Z</time>
      </trkpt>
      <trkpt lat="49.05424" lon="2.1072">
        <ele>32.34</ele>
        <time>2013-12-15T14:07:48Z</time>
      </trkpt>
      <trkpt lat="49.05408" lon="2.10711">
        <ele>30.42</ele>
        <time>2013-12-15T14:08:03Z</time>
      </trkpt>
      <trkpt lat="49.05398" lon="2.10704">
        <ele>28.98</ele>
        <time>2013-12-15T14:08:18Z</time>
      </trkpt>
      <trkpt lat="49.05396" lon="2.10703">
        <ele>28.5</ele>
        <time>2013-12-15T14:08:34Z</time>
      </trkpt>
      <trkpt lat="49.05389" lon="2.10702">
        <ele>28.02</ele>
        <time>2013-12-15T14:08:52Z</time>
      </trkpt>
      <trkpt lat="49.05399" lon="2.10702">
        <ele>28.02</ele>
        <time>2013-12-15T14:09:19Z</time>
      </trkpt>
      <trkpt lat="49.05391" lon="2.10705">
        <ele>28.5</ele>
        <time>2013-12-15T14:09:47Z</time>
      </trkpt>
      <trkpt lat="49.05392" lon="2.10698">
        <ele>28.5</ele>
        <time>2013-12-15T14:10:16Z</time>
      </trkpt>
      <trkpt lat="49.05388" lon="2.10697">
        <ele>28.02</ele>
        <time>2013-12-15T14:10:29Z</time>
      </trkpt>
      <trkpt lat="49.05384" lon="2.10689">
        <ele>27.05</ele>
        <time>2013-12-15T14:10:43Z</time>
      </trkpt>
      <trkpt lat="49.05379" lon="2.10671">
        <ele>26.09</ele>
        <time>2013-12-15T14:10:55Z</time>
      </trkpt>
      <trkpt lat="49.05378" lon="2.10664">
        <ele>25.13</ele>
        <time>2013-12-15T14:11:00Z</time>
      </trkpt>
      <trkpt lat="49.05374" lon="2.10668">
        <ele>25.13</ele>
        <time>2013-12-15T14:11:11Z</time>
      </trkpt>
      <trkpt lat="49.05377" lon="2.10663">
        <ele>25.13</ele>
        <time>2013-12-15T14:11:22Z</time>
      </trkpt>
      <trkpt lat="49.05377" lon="2.10649">
        <ele>24.17</ele>
        <time>2013-12-15T14:11:31Z</time>
      </trkpt>
      <trkpt lat="49.05377" lon="2.10644">
        <ele>24.17</ele>
        <time>2013-12-15T14:11:33Z</time>
      </trkpt>
      <trkpt lat="49.0537" lon="2.1063">
        <ele>22.73</ele>
        <time>2013-12-15T14:11:45Z</time>
      </trkpt>
      <trkpt lat="49.05363" lon="2.10608">
        <ele>21.29</ele>
        <time>2013-12-15T14:12:01Z</time>
      </trkpt>
      <trkpt lat="49.05361" lon="2.10606">
        <ele>21.29</ele>
        <time>2013-12-15T14:12:02Z</time>
      </trkpt>
      <trkpt lat="49.05352" lon="2.10599">
        <ele>20.81</ele>
        <time>2013-12-15T14:12:08Z</time>
      </trkpt>
      <trkpt lat="49.05338" lon="2.10571">
        <ele>20.32</ele>
        <time>2013-12-15T14:12:28Z</time>
      </trkpt>
      <trkpt lat="49.05332" lon="2.10556">
        <ele>19.36</ele>
        <time>2013-12-15T14:12:41Z</time>
      </trkpt>
      <trkpt lat="49.05324" lon="2.10545">
        <ele>19.36</ele>
        <time>2013-12-15T14:12:49Z</time>
      </trkpt>
      <trkpt lat="49.05324" lon="2.10526">
        <ele>18.88</ele>
        <time>2013-12-15T14:13:01Z</time>
      </trkpt>
      <trkpt lat="49.05325" lon="2.10525">
        <ele>18.88</ele>
        <time>2013-12-15T14:13:03Z</time>
      </trkpt>
      <trkpt lat="49.05326" lon="2.10516">
        <ele>19.36</ele>
        <time>2013-12-15T14:13:07Z</time>
      </trkpt>
      <trkpt lat="49.05326" lon="2.10517">
        <ele>18.88</ele>
        <time>2013-12-15T14:13:20Z</time>
      </trkpt>
      <trkpt lat="49.05322" lon="2.10517">
        <ele>18.88</ele>
        <time>2013-12-15T14:13:38Z</time>
      </trkpt>
      <trkpt lat="49.05313" lon="2.10507">
        <ele>18.88</ele>
        <time>2013-12-15T14:13:50Z</time>
      </trkpt>
      <trkpt lat="49.0531" lon="2.10503">
        <ele>19.36</ele>
        <time>2013-12-15T14:13:54Z</time>
      </trkpt>
      <trkpt lat="49.05295" lon="2.10492">
        <ele>19.84</ele>
        <time>2013-12-15T14:14:09Z</time>
      </trkpt>
      <trkpt lat="49.0529" lon="2.1049">
        <ele>19.84</ele>
        <time>2013-12-15T14:14:14Z</time>
      </trkpt>
      <trkpt lat="49.05287" lon="2.10487">
        <ele>20.32</ele>
        <time>2013-12-15T14:14:19Z</time>
      </trkpt>
      <trkpt lat="49.0527" lon="2.10488">
        <ele>20.81</ele>
        <time>2013-12-15T14:14:32Z</time>
      </trkpt>
      <trkpt lat="49.05254" lon="2.10482">
        <ele>20.81</ele>
        <time>2013-12-15T14:14:44Z</time>
      </trkpt>
      <trkpt lat="49.05242" lon="2.10468">
        <ele>21.29</ele>
        <time>2013-12-15T14:14:58Z</time>
      </trkpt>
      <trkpt lat="49.05239" lon="2.10463">
        <ele>20.81</ele>
        <time>2013-12-15T14:15:02Z</time>
      </trkpt>
      <trkpt lat="49.0523" lon="2.10452">
        <ele>20.81</ele>
        <time>2013-12-15T14:15:12Z</time>
      </trkpt>
      <trkpt lat="49.05219" lon="2.10434">
        <ele>20.81</ele>
        <time>2013-12-15T14:15:26Z</time>
      </trkpt>
      <trkpt lat="49.05206" lon="2.10405">
        <ele>20.81</ele>
        <time>2013-12-15T14:15:45Z</time>
      </trkpt>
      <trkpt lat="49.05199" lon="2.10392">
        <ele>21.29</ele>
        <time>2013-12-15T14:15:58Z</time>
      </trkpt>
      <trkpt lat="49.05197" lon="2.10386">
        <ele>21.29</ele>
        <time>2013-12-15T14:16:03Z</time>
      </trkpt>
      <trkpt lat="49.05187" lon="2.10374">
        <ele>20.81</ele>
        <time>2013-12-15T14:16:14Z</time>
      </trkpt>
      <trkpt lat="49.05176" lon="2.10353">
        <ele>21.29</ele>
        <time>2013-12-15T14:16:30Z</time>
      </trkpt>
      <trkpt lat="49.05167" lon="2.10332">
        <ele>21.77</ele>
        <time>2013-12-15T14:16:43Z</time>
      </trkpt>
      <trkpt lat="49.05163" lon="2.10309">
        <ele>22.25</ele>
        <time>2013-12-15T14:16:55Z</time>
      </trkpt>
      <trkpt lat="49.05159" lon="2.10296">
        <ele>22.73</ele>
        <time>2013-12-15T14:17:04Z</time>
      </trkpt>
      <trkpt lat="49.05151" lon="2.10278">
        <ele>24.17</ele>
        <time>2013-12-15T14:17:17Z</time>
      </trkpt>
      <trkpt lat="49.0515" lon="2.1027">
        <ele>24.17</ele>
        <time>2013-12-15T14:17:22Z</time>
      </trkpt>
      <trkpt lat="49.05156" lon="2.10252">
        <ele>25.61</ele>
        <time>2013-12-15T14:17:29Z</time>
      </trkpt>
      <trkpt lat="49.05155" lon="2.10245">
        <ele>26.09</ele>
        <time>2013-12-15T14:17:42Z</time>
      </trkpt>
      <trkpt lat="49.05156" lon="2.10247">
        <ele>26.57</ele>
        <time>2013-12-15T14:17:55Z</time>
      </trkpt>
      <trkpt lat="49.05159" lon="2.10244">
        <ele>27.05</ele>
        <time>2013-12-15T14:18:06Z</time>
      </trkpt>
      <trkpt lat="49.05164" lon="2.10227">
        <ele>28.5</ele>
        <time>2013-12-15T14:18:18Z</time>
      </trkpt>
      <trkpt lat="49.05169" lon="2.10204">
        <ele>30.42</ele>
        <time>2013-12-15T14:18:34Z</time>
      </trkpt>
      <trkpt lat="49.05167" lon="2.10197">
        <ele>31.38</ele>
        <time>2013-12-15T14:18:45Z</time>
      </trkpt>
      <trkpt lat="49.0517" lon="2.10179">
        <ele>33.3</ele>
        <time>2013-12-15T14:18:56Z</time>
      </trkpt>
      <trkpt lat="49.05168" lon="2.10153">
        <ele>36.19</ele>
        <time>2013-12-15T14:19:13Z</time>
      </trkpt>
      <trkpt lat="49.05164" lon="2.10133">
        <ele>37.63</ele>
        <time>2013-12-15T14:19:26Z</time>
      </trkpt>
      <trkpt lat="49.05161" lon="2.10125">
        <ele>38.11</ele>
        <time>2013-12-15T14:19:37Z</time>
      </trkpt>
      <trkpt lat="49.05161" lon="2.10119">
        <ele>36.67</ele>
        <time>2013-12-15T14:19:41Z</time>
      </trkpt>
      <trkpt lat="49.05158" lon="2.10106">
        <ele>36.67</ele>
        <time>2013-12-15T14:19:52Z</time>
      </trkpt>
      <trkpt lat="49.05155" lon="2.10095">
        <ele>40.51</ele>
        <time>2013-12-15T14:20:00Z</time>
      </trkpt>
      <trkpt lat="49.05154" lon="2.10094">
        <ele>40.51</ele>
        <time>2013-12-15T14:20:01Z</time>
      </trkpt>
      <trkpt lat="49.05148" lon="2.10072">
        <ele>41.47</ele>
        <time>2013-12-15T14:20:16Z</time>
      </trkpt>
      <trkpt lat="49.05148" lon="2.1007">
        <ele>42.44</ele>
        <time>2013-12-15T14:20:25Z</time>
      </trkpt>
      <trkpt lat="49.05145" lon="2.10073">
        <ele>41.95</ele>
        <time>2013-12-15T14:20:42Z</time>
      </trkpt>
      <trkpt lat="49.05138" lon="2.10077">
        <ele>41.47</ele>
        <time>2013-12-15T14:20:56Z</time>
      </trkpt>
      <trkpt lat="49.05136" lon="2.10076">
        <ele>41.47</ele>
        <time>2013-12-15T14:21:12Z</time>
      </trkpt>
      <trkpt lat="49.05135" lon="2.10075">
        <ele>41.47</ele>
        <time>2013-12-15T14:21:17Z</time>
      </trkpt>
      <trkpt lat="49.05131" lon="2.10056">
        <ele>42.44</ele>
        <time>2013-12-15T14:21:30Z</time>
      </trkpt>
      <trkpt lat="49.05129" lon="2.10041">
        <ele>42.92</ele>
        <time>2013-12-15T14:21:49Z</time>
      </trkpt>
      <trkpt lat="49.05127" lon="2.10038">
        <ele>42.92</ele>
        <time>2013-12-15T14:22:06Z</time>
      </trkpt>
      <trkpt lat="49.05126" lon="2.10037">
        <ele>42.92</ele>
        <time>2013-12-15T14:22:07Z</time>
      </trkpt>
      <trkpt lat="49.0512" lon="2.10036">
        <ele>42.92</ele>
        <time>2013-12-15T14:22:14Z</time>
      </trkpt>
      <trkpt lat="49.05102" lon="2.10029">
        <ele>42.92</ele>
        <time>2013-12-15T14:22:30Z</time>
      </trkpt>
      <trkpt lat="49.05085" lon="2.10025">
        <ele>41.95</ele>
        <time>2013-12-15T14:22:47Z</time>
      </trkpt>
      <trkpt lat="49.05075" lon="2.10016">
        <ele>41.95</ele>
        <time>2013-12-15T14:23:02Z</time>
      </trkpt>
      <trkpt lat="49.05068" lon="2.10013">
        <ele>41.47</ele>
        <time>2013-12-15T14:23:24Z</time>
      </trkpt>
      <trkpt lat="49.05068" lon="2.10014">
        <ele>41.47</ele>
        <time>2013-12-15T14:23:40Z</time>
      </trkpt>
      <trkpt lat="49.05056" lon="2.10009">
        <ele>40.99</ele>
        <time>2013-12-15T14:23:55Z</time>
      </trkpt>
      <trkpt lat="49.05054" lon="2.10007">
        <ele>41.47</ele>
        <time>2013-12-15T14:23:57Z</time>
      </trkpt>
      <trkpt lat="49.05047" lon="2.10019">
        <ele>40.03</ele>
        <time>2013-12-15T14:24:13Z</time>
      </trkpt>
      <trkpt lat="49.05046" lon="2.10034">
        <ele>40.03</ele>
        <time>2013-12-15T14:24:27Z</time>
      </trkpt>
      <trkpt lat="49.05039" lon="2.10045">
        <ele>39.55</ele>
        <time>2013-12-15T14:24:40Z</time>
      </trkpt>
      <trkpt lat="49.05032" lon="2.10052">
        <ele>38.59</ele>
        <time>2013-12-15T14:24:54Z</time>
      </trkpt>
      <trkpt lat="49.05028" lon="2.10057">
        <ele>38.59</ele>
        <time>2013-12-15T14:25:05Z</time>
      </trkpt>
      <trkpt lat="49.05021" lon="2.10068">
        <ele>38.59</ele>
        <time>2013-12-15T14:25:17Z</time>
      </trkpt>
      <trkpt lat="49.05016" lon="2.10077">
        <ele>38.59</ele>
        <time>2013-12-15T14:25:24Z</time>
      </trkpt>
      <trkpt lat="49.05007" lon="2.10088">
        <ele>38.59</ele>
        <time>2013-12-15T14:25:36Z</time>
      </trkpt>
      <trkpt lat="49.04993" lon="2.10102">
        <ele>37.15</ele>
        <time>2013-12-15T14:25:53Z</time>
      </trkpt>
      <trkpt lat="49.04975" lon="2.10101">
        <ele>35.23</ele>
        <time>2013-12-15T14:26:08Z</time>
      </trkpt>
      <trkpt lat="49.04965" lon="2.10101">
        <ele>35.23</ele>
        <time>2013-12-15T14:26:19Z</time>
      </trkpt>
      <trkpt lat="49.04949" lon="2.10099">
        <ele>36.67</ele>
        <time>2013-12-15T14:26:37Z</time>
      </trkpt>
      <trkpt lat="49.04933" lon="2.10088">
        <ele>39.07</ele>
        <time>2013-12-15T14:26:55Z</time>
      </trkpt>
      <trkpt lat="49.04926" lon="2.10088">
        <ele>39.55</ele>
        <time>2013-12-15T14:27:10Z</time>
      </trkpt>
      <trkpt lat="49.0492" lon="2.10074">
        <ele>40.99</ele>
        <time>2013-12-15T14:27:26Z</time>
      </trkpt>
      <trkpt lat="49.04921" lon="2.10056">
        <ele>41.95</ele>
        <time>2013-12-15T14:27:40Z</time>
      </trkpt>
      <trkpt lat="49.04918" lon="2.10036">
        <ele>42.92</ele>
        <time>2013-12-15T14:27:54Z</time>
      </trkpt>
      <trkpt lat="49.04909" lon="2.10024">
        <ele>44.36</ele>
        <time>2013-12-15T14:28:08Z</time>
      </trkpt>
      <trkpt lat="49.04912" lon="2.10026">
        <ele>43.4</ele>
        <time>2013-12-15T14:28:19Z</time>
      </trkpt>
      <trkpt lat="49.04903" lon="2.10022">
        <ele>43.4</ele>
        <time>2013-12-15T14:28:30Z</time>
      </trkpt>
      <trkpt lat="49.04898" lon="2.1002">
        <ele>44.84</ele>
        <time>2013-12-15T14:28:35Z</time>
      </trkpt>
      <trkpt lat="49.04891" lon="2.10015">
        <ele>46.28</ele>
        <time>2013-12-15T14:28:48Z</time>
      </trkpt>
      <trkpt lat="49.04887" lon="2.10015">
        <ele>46.76</ele>
        <time>2013-12-15T14:28:52Z</time>
      </trkpt>
      <trkpt lat="49.04866" lon="2.10009">
        <ele>46.76</ele>
        <time>2013-12-15T14:29:07Z</time>
      </trkpt>
      <trkpt lat="49.04852" lon="2.10001">
        <ele>47.24</ele>
        <time>2013-12-15T14:29:21Z</time>
      </trkpt>
      <trkpt lat="49.04842" lon="2.09992">
        <ele>47.24</ele>
        <time>2013-12-15T14:29:34Z</time>
      </trkpt>
      <trkpt lat="49.04829" lon="2.09985">
        <ele>47.72</ele>
        <time>2013-12-15T14:29:48Z</time>
      </trkpt>
      <trkpt lat="49.04824" lon="2.09983">
        <ele>47.24</ele>
        <time>2013-12-15T14:29:53Z</time>
      </trkpt>
      <trkpt lat="49.04815" lon="2.10011">
        <ele>47.24</ele>
        <time>2013-12-15T14:37:10Z</time>
      </trkpt>
      <trkpt lat="49.04813" lon="2.09995">
        <ele>47.24</ele>
        <time>2013-12-15T14:37:44Z</time>
      </trkpt>
      <trkpt lat="49.04812" lon="2.09995">
        <ele>47.24</ele>
        <time>2013-12-15T14:37:54Z</time>
      </trkpt>
      <trkpt lat="49.04811" lon="2.09995">
        <ele>46.76</ele>
        <time>2013-12-15T14:38:07Z</time>
      </trkpt>
      <trkpt lat="49.04812" lon="2.09994">
        <ele>46.76</ele>
        <time>2013-12-15T14:38:28Z</time>
      </trkpt>
      <trkpt lat="49.0481" lon="2.09988">
        <ele>46.76</ele>
        <time>2013-12-15T14:38:48Z</time>
      </trkpt>
      <trkpt lat="49.04809" lon="2.09992">
        <ele>47.24</ele>
        <time>2013-12-15T14:39:05Z</time>
      </trkpt>
      <trkpt lat="49.04809" lon="2.09978">
        <ele>47.24</ele>
        <time>2013-12-15T14:39:58Z</time>
      </trkpt>
      <trkpt lat="49.04803" lon="2.09967">
        <ele>46.76</ele>
        <time>2013-12-15T14:40:14Z</time>
      </trkpt>
      <trkpt lat="49.04796" lon="2.09959">
        <ele>46.76</ele>
        <time>2013-12-15T14:40:27Z</time>
      </trkpt>
      <trkpt lat="49.04788" lon="2.0996">
        <ele>46.28</ele>
        <time>2013-12-15T14:40:32Z</time>
      </trkpt>
      <trkpt lat="49.0477" lon="2.09956">
        <ele>45.8</ele>
        <time>2013-12-15T14:40:48Z</time>
      </trkpt>
      <trkpt lat="49.04758" lon="2.09942">
        <ele>45.8</ele>
        <time>2013-12-15T14:41:02Z</time>
      </trkpt>
      <trkpt lat="49.04763" lon="2.09924">
        <ele>46.28</ele>
        <time>2013-12-15T14:41:17Z</time>
      </trkpt>
      <trkpt lat="49.04768" lon="2.09921">
        <ele>46.28</ele>
        <time>2013-12-15T14:41:27Z</time>
      </trkpt>
      <trkpt lat="49.0477" lon="2.09918">
        <ele>46.76</ele>
        <time>2013-12-15T14:41:30Z</time>
      </trkpt>
      <trkpt lat="49.04784" lon="2.09916">
        <ele>45.8</ele>
        <time>2013-12-15T14:41:46Z</time>
      </trkpt>
      <trkpt lat="49.04789" lon="2.09915">
        <ele>46.76</ele>
        <time>2013-12-15T14:41:58Z</time>
      </trkpt>
      <trkpt lat="49.04806" lon="2.0991">
        <ele>46.28</ele>
        <time>2013-12-15T14:42:14Z</time>
      </trkpt>
      <trkpt lat="49.04807" lon="2.09912">
        <ele>45.8</ele>
        <time>2013-12-15T14:42:28Z</time>
      </trkpt>
      <trkpt lat="49.0482" lon="2.09909">
        <ele>46.76</ele>
        <time>2013-12-15T14:42:45Z</time>
      </trkpt>
      <trkpt lat="49.0483" lon="2.09915">
        <ele>46.76</ele>
        <time>2013-12-15T14:42:58Z</time>
      </trkpt>
      <trkpt lat="49.04835" lon="2.09933">
        <ele>46.28</ele>
        <time>2013-12-15T14:43:14Z</time>
      </trkpt>
      <trkpt lat="49.0483" lon="2.0995">
        <ele>46.76</ele>
        <time>2013-12-15T14:43:29Z</time>
      </trkpt>
      <trkpt lat="49.04827" lon="2.09969">
        <ele>46.76</ele>
        <time>2013-12-15T14:43:42Z</time>
      </trkpt>
      <trkpt lat="49.0483" lon="2.09977">
        <ele>48.2</ele>
        <time>2013-12-15T14:43:56Z</time>
      </trkpt>
      <trkpt lat="49.04827" lon="2.09982">
        <ele>48.2</ele>
        <time>2013-12-15T14:44:19Z</time>
      </trkpt>
      <trkpt lat="49.04827" lon="2.09984">
        <ele>47.72</ele>
        <time>2013-12-15T14:44:41Z</time>
      </trkpt>
      <trkpt lat="49.04829" lon="2.09986">
        <ele>49.16</ele>
        <time>2013-12-15T14:47:46Z</time>
      </trkpt>
      <trkpt lat="49.04834" lon="2.09989">
        <ele>48.68</ele>
        <time>2013-12-15T14:48:25Z</time>
      </trkpt>
      <trkpt lat="49.04834" lon="2.09986">
        <ele>48.2</ele>
        <time>2013-12-15T14:48:42Z</time>
      </trkpt>
      <trkpt lat="49.04831" lon="2.09986">
        <ele>48.68</ele>
        <time>2013-12-15T14:49:00Z</time>
      </trkpt>
      <trkpt lat="49.04835" lon="2.0999">
        <ele>48.2</ele>
        <time>2013-12-15T14:49:11Z</time>
      </trkpt>
      <trkpt lat="49.04847" lon="2.09995">
        <ele>48.68</ele>
        <time>2013-12-15T14:49:25Z</time>
      </trkpt>
      <trkpt lat="49.04856" lon="2.10003">
        <ele>48.2</ele>
        <time>2013-12-15T14:49:40Z</time>
      </trkpt>
      <trkpt lat="49.04872" lon="2.10017">
        <ele>47.72</ele>
        <time>2013-12-15T14:49:56Z</time>
      </trkpt>
      <trkpt lat="49.04885" lon="2.10026">
        <ele>47.24</ele>
        <time>2013-12-15T14:50:12Z</time>
      </trkpt>
      <trkpt lat="49.04891" lon="2.10024">
        <ele>45.8</ele>
        <time>2013-12-15T14:50:18Z</time>
      </trkpt>
      <trkpt lat="49.049" lon="2.10026">
        <ele>45.32</ele>
        <time>2013-12-15T14:50:25Z</time>
      </trkpt>
      <trkpt lat="49.04907" lon="2.10028">
        <ele>44.36</ele>
        <time>2013-12-15T14:50:37Z</time>
      </trkpt>
      <trkpt lat="49.04911" lon="2.1003">
        <ele>43.88</ele>
        <time>2013-12-15T14:50:40Z</time>
      </trkpt>
      <trkpt lat="49.04918" lon="2.10034">
        <ele>43.88</ele>
        <time>2013-12-15T14:50:44Z</time>
      </trkpt>
      <trkpt lat="49.04912" lon="2.10013">
        <ele>41.95</ele>
        <time>2013-12-15T14:50:55Z</time>
      </trkpt>
      <trkpt lat="49.04904" lon="2.09994">
        <ele>40.51</ele>
        <time>2013-12-15T14:51:10Z</time>
      </trkpt>
      <trkpt lat="49.04896" lon="2.09983">
        <ele>39.55</ele>
        <time>2013-12-15T14:51:20Z</time>
      </trkpt>
      <trkpt lat="49.04891" lon="2.09973">
        <ele>38.59</ele>
        <time>2013-12-15T14:51:28Z</time>
      </trkpt>
      <trkpt lat="49.04879" lon="2.09951">
        <ele>37.63</ele>
        <time>2013-12-15T14:51:45Z</time>
      </trkpt>
      <trkpt lat="49.04877" lon="2.09947">
        <ele>37.63</ele>
        <time>2013-12-15T14:51:48Z</time>
      </trkpt>
      <trkpt lat="49.04875" lon="2.09946">
        <ele>37.63</ele>
        <time>2013-12-15T14:51:49Z</time>
      </trkpt>
      <trkpt lat="49.04862" lon="2.09918">
        <ele>35.71</ele>
        <time>2013-12-15T14:52:09Z</time>
      </trkpt>
      <trkpt lat="49.04857" lon="2.09914">
        <ele>35.23</ele>
        <time>2013-12-15T14:52:14Z</time>
      </trkpt>
      <trkpt lat="49.04853" lon="2.09909">
        <ele>34.74</ele>
        <time>2013-12-15T14:52:23Z</time>
      </trkpt>
      <trkpt lat="49.04851" lon="2.09899">
        <ele>33.3</ele>
        <time>2013-12-15T14:52:35Z</time>
      </trkpt>
      <trkpt lat="49.04862" lon="2.09894">
        <ele>29.94</ele>
        <time>2013-12-15T14:52:52Z</time>
      </trkpt>
      <trkpt lat="49.04866" lon="2.09891">
        <ele>28.98</ele>
        <time>2013-12-15T14:52:56Z</time>
      </trkpt>
      <trkpt lat="49.04872" lon="2.09883">
        <ele>26.57</ele>
        <time>2013-12-15T14:53:02Z</time>
      </trkpt>
      <trkpt lat="49.04879" lon="2.0987">
        <ele>24.17</ele>
        <time>2013-12-15T14:53:12Z</time>
      </trkpt>
      <trkpt lat="49.04885" lon="2.0986">
        <ele>22.73</ele>
        <time>2013-12-15T14:53:26Z</time>
      </trkpt>
      <trkpt lat="49.0489" lon="2.09853">
        <ele>22.25</ele>
        <time>2013-12-15T14:53:43Z</time>
      </trkpt>
      <trkpt lat="49.04897" lon="2.09847">
        <ele>22.73</ele>
        <time>2013-12-15T14:54:00Z</time>
      </trkpt>
      <trkpt lat="49.04901" lon="2.09839">
        <ele>22.73</ele>
        <time>2013-12-15T14:54:12Z</time>
      </trkpt>
      <trkpt lat="49.049" lon="2.09837">
        <ele>22.73</ele>
        <time>2013-12-15T14:54:24Z</time>
      </trkpt>
      <trkpt lat="49.04902" lon="2.09833">
        <ele>22.25</ele>
        <time>2013-12-15T14:54:38Z</time>
      </trkpt>
      <trkpt lat="49.04905" lon="2.09826">
        <ele>22.73</ele>
        <time>2013-12-15T14:54:48Z</time>
      </trkpt>
      <trkpt lat="49.04906" lon="2.09824">
        <ele>22.73</ele>
        <time>2013-12-15T14:54:50Z</time>
      </trkpt>
      <trkpt lat="49.04907" lon="2.09821">
        <ele>22.73</ele>
        <time>2013-12-15T14:54:51Z</time>
      </trkpt>
      <trkpt lat="49.04908" lon="2.09819">
        <ele>22.73</ele>
        <time>2013-12-15T14:54:52Z</time>
      </trkpt>
      <trkpt lat="49.04909" lon="2.09816">
        <ele>22.73</ele>
        <time>2013-12-15T14:54:54Z</time>
      </trkpt>
      <trkpt lat="49.0491" lon="2.09811">
        <ele>22.73</ele>
        <time>2013-12-15T14:54:56Z</time>
      </trkpt>
      <trkpt lat="49.0491" lon="2.09809">
        <ele>22.73</ele>
        <time>2013-12-15T14:54:57Z</time>
      </trkpt>
      <trkpt lat="49.04911" lon="2.09807">
        <ele>22.73</ele>
        <time>2013-12-15T14:54:58Z</time>
      </trkpt>
      <trkpt lat="49.04913" lon="2.09795">
        <ele>22.73</ele>
        <time>2013-12-15T14:55:09Z</time>
      </trkpt>
      <trkpt lat="49.0492" lon="2.09784">
        <ele>22.73</ele>
        <time>2013-12-15T14:55:22Z</time>
      </trkpt>
      <trkpt lat="49.04923" lon="2.09771">
        <ele>22.73</ele>
        <time>2013-12-15T14:55:34Z</time>
      </trkpt>
      <trkpt lat="49.04926" lon="2.09755">
        <ele>23.21</ele>
        <time>2013-12-15T14:55:45Z</time>
      </trkpt>
      <trkpt lat="49.04926" lon="2.09753">
        <ele>23.21</ele>
        <time>2013-12-15T14:55:46Z</time>
      </trkpt>
      <trkpt lat="49.04927" lon="2.09742">
        <ele>23.21</ele>
        <time>2013-12-15T14:55:56Z</time>
      </trkpt>
      <trkpt lat="49.04924" lon="2.09744">
        <ele>23.21</ele>
        <time>2013-12-15T14:56:03Z</time>
      </trkpt>
      <trkpt lat="49.0491" lon="2.09738">
        <ele>22.73</ele>
        <time>2013-12-15T14:56:17Z</time>
      </trkpt>
      <trkpt lat="49.04911" lon="2.09738">
        <ele>23.21</ele>
        <time>2013-12-15T14:56:43Z</time>
      </trkpt>
      <trkpt lat="49.04916" lon="2.0974">
        <ele>23.69</ele>
        <time>2013-12-15T14:56:55Z</time>
      </trkpt>
      <trkpt lat="49.04921" lon="2.0974">
        <ele>24.17</ele>
        <time>2013-12-15T14:57:08Z</time>
      </trkpt>
      <trkpt lat="49.04921" lon="2.09739">
        <ele>24.17</ele>
        <time>2013-12-15T14:57:09Z</time>
      </trkpt>
      <trkpt lat="49.04922" lon="2.09736">
        <ele>24.17</ele>
        <time>2013-12-15T14:57:25Z</time>
      </trkpt>
      <trkpt lat="49.0493" lon="2.09707">
        <ele>24.17</ele>
        <time>2013-12-15T14:57:43Z</time>
      </trkpt>
      <trkpt lat="49.0493" lon="2.09704">
        <ele>24.17</ele>
        <time>2013-12-15T14:57:45Z</time>
      </trkpt>
      <trkpt lat="49.04943" lon="2.09675">
        <ele>24.17</ele>
        <time>2013-12-15T14:58:04Z</time>
      </trkpt>
      <trkpt lat="49.04938" lon="2.09665">
        <ele>24.65</ele>
        <time>2013-12-15T14:58:18Z</time>
      </trkpt>
      <trkpt lat="49.04938" lon="2.09647">
        <ele>24.65</ele>
        <time>2013-12-15T14:58:34Z</time>
      </trkpt>
      <trkpt lat="49.04945" lon="2.09646">
        <ele>24.65</ele>
        <time>2013-12-15T14:58:53Z</time>
      </trkpt>
      <trkpt lat="49.04943" lon="2.09645">
        <ele>24.65</ele>
        <time>2013-12-15T14:59:15Z</time>
      </trkpt>
      <trkpt lat="49.04944" lon="2.09649">
        <ele>24.17</ele>
        <time>2013-12-15T14:59:31Z</time>
      </trkpt>
      <trkpt lat="49.04948" lon="2.0964">
        <ele>24.17</ele>
        <time>2013-12-15T14:59:50Z</time>
      </trkpt>
      <trkpt lat="49.04949" lon="2.09603">
        <ele>23.69</ele>
        <time>2013-12-15T15:00:09Z</time>
      </trkpt>
      <trkpt lat="49.0495" lon="2.09568">
        <ele>23.21</ele>
        <time>2013-12-15T15:00:30Z</time>
      </trkpt>
      <trkpt lat="49.04945" lon="2.09537">
        <ele>23.21</ele>
        <time>2013-12-15T15:00:46Z</time>
      </trkpt>
      <trkpt lat="49.04949" lon="2.09514">
        <ele>23.21</ele>
        <time>2013-12-15T15:01:02Z</time>
      </trkpt>
      <trkpt lat="49.04949" lon="2.09491">
        <ele>23.21</ele>
        <time>2013-12-15T15:01:14Z</time>
      </trkpt>
      <trkpt lat="49.04948" lon="2.09461">
        <ele>23.21</ele>
        <time>2013-12-15T15:01:33Z</time>
      </trkpt>
      <trkpt lat="49.04951" lon="2.09453">
        <ele>22.73</ele>
        <time>2013-12-15T15:01:38Z</time>
      </trkpt>
      <trkpt lat="49.04952" lon="2.09447">
        <ele>22.73</ele>
        <time>2013-12-15T15:01:41Z</time>
      </trkpt>
      <trkpt lat="49.04959" lon="2.09426">
        <ele>23.21</ele>
        <time>2013-12-15T15:01:55Z</time>
      </trkpt>
      <trkpt lat="49.04959" lon="2.09418">
        <ele>23.69</ele>
        <time>2013-12-15T15:02:11Z</time>
      </trkpt>
      <trkpt lat="49.04962" lon="2.09411">
        <ele>23.69</ele>
        <time>2013-12-15T15:02:31Z</time>
      </trkpt>
      <trkpt lat="49.04959" lon="2.09409">
        <ele>24.17</ele>
        <time>2013-12-15T15:02:54Z</time>
      </trkpt>
      <trkpt lat="49.04959" lon="2.09407">
        <ele>24.17</ele>
        <time>2013-12-15T15:03:18Z</time>
      </trkpt>
      <trkpt lat="49.04958" lon="2.09405">
        <ele>24.17</ele>
        <time>2013-12-15T15:03:49Z</time>
      </trkpt>
      <trkpt lat="49.04952" lon="2.09401">
        <ele>24.65</ele>
        <time>2013-12-15T15:04:18Z</time>
      </trkpt>
      <trkpt lat="49.04951" lon="2.094">
        <ele>25.61</ele>
        <time>2013-12-15T15:04:53Z</time>
      </trkpt>
      <trkpt lat="49.04952" lon="2.09403">
        <ele>25.61</ele>
        <time>2013-12-15T15:05:30Z</time>
      </trkpt>
      <trkpt lat="49.04955" lon="2.09404">
        <ele>27.05</ele>
        <time>2013-12-15T15:05:56Z</time>
      </trkpt>
      <trkpt lat="49.04954" lon="2.09404">
        <ele>26.57</ele>
        <time>2013-12-15T15:06:16Z</time>
      </trkpt>
      <trkpt lat="49.04954" lon="2.09405">
        <ele>27.05</ele>
        <time>2013-12-15T15:06:37Z</time>
      </trkpt>
      <trkpt lat="49.04955" lon="2.09403">
        <ele>27.05</ele>
        <time>2013-12-15T15:06:51Z</time>
      </trkpt>
      <trkpt lat="49.04955" lon="2.09402">
        <ele>27.53</ele>
        <time>2013-12-15T15:07:15Z</time>
      </trkpt>
      <trkpt lat="49.04955" lon="2.09402">
        <ele>28.02</ele>
        <time>2013-12-15T15:07:35Z</time>
      </trkpt>
      <trkpt lat="49.04958" lon="2.09402">
        <ele>28.02</ele>
        <time>2013-12-15T15:07:47Z</time>
      </trkpt>
      <trkpt lat="49.04966" lon="2.09407">
        <ele>28.98</ele>
        <time>2013-12-15T15:08:03Z</time>
      </trkpt>
      <trkpt lat="49.04969" lon="2.09411">
        <ele>29.46</ele>
        <time>2013-12-15T15:08:09Z</time>
      </trkpt>
      <trkpt lat="49.04977" lon="2.09442">
        <ele>31.86</ele>
        <time>2013-12-15T15:08:27Z</time>
      </trkpt>
      <trkpt lat="49.04984" lon="2.09473">
        <ele>34.26</ele>
        <time>2013-12-15T15:08:42Z</time>
      </trkpt>
      <trkpt lat="49.04989" lon="2.09491">
        <ele>36.67</ele>
        <time>2013-12-15T15:09:00Z</time>
      </trkpt>
      <trkpt lat="49.04992" lon="2.09505">
        <ele>38.11</ele>
        <time>2013-12-15T15:09:13Z</time>
      </trkpt>
      <trkpt lat="49.04995" lon="2.09517">
        <ele>40.03</ele>
        <time>2013-12-15T15:09:30Z</time>
      </trkpt>
      <trkpt lat="49.05" lon="2.09532">
        <ele>41.47</ele>
        <time>2013-12-15T15:09:45Z</time>
      </trkpt>
      <trkpt lat="49.05008" lon="2.09545">
        <ele>43.88</ele>
        <time>2013-12-15T15:10:01Z</time>
      </trkpt>
      <trkpt lat="49.05012" lon="2.09551">
        <ele>45.32</ele>
        <time>2013-12-15T15:10:09Z</time>
      </trkpt>
      <trkpt lat="49.05015" lon="2.09563">
        <ele>47.24</ele>
        <time>2013-12-15T15:10:19Z</time>
      </trkpt>
      <trkpt lat="49.05018" lon="2.09576">
        <ele>47.24</ele>
        <time>2013-12-15T15:10:30Z</time>
      </trkpt>
      <trkpt lat="49.05024" lon="2.09569">
        <ele>48.2</ele>
        <time>2013-12-15T15:10:41Z</time>
      </trkpt>
      <trkpt lat="49.05028" lon="2.09565">
        <ele>48.2</ele>
        <time>2013-12-15T15:11:01Z</time>
      </trkpt>
      <trkpt lat="49.05039" lon="2.09554">
        <ele>49.65</ele>
        <time>2013-12-15T15:11:15Z</time>
      </trkpt>
      <trkpt lat="49.0506" lon="2.09526">
        <ele>51.57</ele>
        <time>2013-12-15T15:11:31Z</time>
      </trkpt>
      <trkpt lat="49.05066" lon="2.09542">
        <ele>53.01</ele>
        <time>2013-12-15T15:11:49Z</time>
      </trkpt>
      <trkpt lat="49.05068" lon="2.0956">
        <ele>53.01</ele>
        <time>2013-12-15T15:12:02Z</time>
      </trkpt>
      <trkpt lat="49.05072" lon="2.09583">
        <ele>53.49</ele>
        <time>2013-12-15T15:12:18Z</time>
      </trkpt>
      <trkpt lat="49.05071" lon="2.09602">
        <ele>53.01</ele>
        <time>2013-12-15T15:12:31Z</time>
      </trkpt>
      <trkpt lat="49.05068" lon="2.09627">
        <ele>53.01</ele>
        <time>2013-12-15T15:12:48Z</time>
      </trkpt>
      <trkpt lat="49.05083" lon="2.09645">
        <ele>53.01</ele>
        <time>2013-12-15T15:13:06Z</time>
      </trkpt>
      <trkpt lat="49.05085" lon="2.09661">
        <ele>52.53</ele>
        <time>2013-12-15T15:13:22Z</time>
      </trkpt>
      <trkpt lat="49.0509" lon="2.09666">
        <ele>52.05</ele>
        <time>2013-12-15T15:13:41Z</time>
      </trkpt>
      <trkpt lat="49.05073" lon="2.09673">
        <ele>52.53</ele>
        <time>2013-12-15T15:14:02Z</time>
      </trkpt>
      <trkpt lat="49.05067" lon="2.09669">
        <ele>51.57</ele>
        <time>2013-12-15T15:14:27Z</time>
      </trkpt>
      <trkpt lat="49.05066" lon="2.09672">
        <ele>51.57</ele>
        <time>2013-12-15T15:14:30Z</time>
      </trkpt>
      <trkpt lat="49.05056" lon="2.09648">
        <ele>51.57</ele>
        <time>2013-12-15T15:31:20Z</time>
      </trkpt>
      <trkpt lat="49.05058" lon="2.09652">
        <ele>52.05</ele>
        <time>2013-12-15T15:31:36Z</time>
      </trkpt>
      <trkpt lat="49.05064" lon="2.09668">
        <ele>51.09</ele>
        <time>2013-12-15T15:31:59Z</time>
      </trkpt>
      <trkpt lat="49.05073" lon="2.09687">
        <ele>52.53</ele>
        <time>2013-12-15T15:32:24Z</time>
      </trkpt>
      <trkpt lat="49.0507" lon="2.09694">
        <ele>52.53</ele>
        <time>2013-12-15T15:32:49Z</time>
      </trkpt>
      <trkpt lat="49.05075" lon="2.09684">
        <ele>52.53</ele>
        <time>2013-12-15T15:33:17Z</time>
      </trkpt>
      <trkpt lat="49.05085" lon="2.09673">
        <ele>53.49</ele>
        <time>2013-12-15T15:33:42Z</time>
      </trkpt>
      <trkpt lat="49.05081" lon="2.09662">
        <ele>53.49</ele>
        <time>2013-12-15T15:33:57Z</time>
      </trkpt>
      <trkpt lat="49.05078" lon="2.09655">
        <ele>55.41</ele>
        <time>2013-12-15T15:34:17Z</time>
      </trkpt>
      <trkpt lat="49.051" lon="2.09621">
        <ele>56.86</ele>
        <time>2013-12-15T15:34:32Z</time>
      </trkpt>
      <trkpt lat="49.05119" lon="2.0961">
        <ele>57.34</ele>
        <time>2013-12-15T15:34:52Z</time>
      </trkpt>
      <trkpt lat="49.05127" lon="2.09604">
        <ele>57.82</ele>
        <time>2013-12-15T15:35:01Z</time>
      </trkpt>
      <trkpt lat="49.05132" lon="2.09596">
        <ele>58.3</ele>
        <time>2013-12-15T15:35:17Z</time>
      </trkpt>
      <trkpt lat="49.05122" lon="2.096">
        <ele>57.82</ele>
        <time>2013-12-15T15:35:35Z</time>
      </trkpt>
      <trkpt lat="49.05118" lon="2.09609">
        <ele>57.34</ele>
        <time>2013-12-15T15:35:52Z</time>
      </trkpt>
      <trkpt lat="49.05108" lon="2.09627">
        <ele>56.86</ele>
        <time>2013-12-15T15:36:08Z</time>
      </trkpt>
      <trkpt lat="49.05095" lon="2.09643">
        <ele>54.93</ele>
        <time>2013-12-15T15:36:27Z</time>
      </trkpt>
      <trkpt lat="49.05092" lon="2.09649">
        <ele>54.93</ele>
        <time>2013-12-15T15:36:33Z</time>
      </trkpt>
      <trkpt lat="49.05088" lon="2.09669">
        <ele>53.97</ele>
        <time>2013-12-15T15:36:46Z</time>
      </trkpt>
      <trkpt lat="49.05086" lon="2.09697">
        <ele>54.45</ele>
        <time>2013-12-15T15:37:03Z</time>
      </trkpt>
      <trkpt lat="49.05095" lon="2.09709">
        <ele>54.93</ele>
        <time>2013-12-15T15:37:17Z</time>
      </trkpt>
      <trkpt lat="49.05098" lon="2.09727">
        <ele>53.97</ele>
        <time>2013-12-15T15:37:33Z</time>
      </trkpt>
      <trkpt lat="49.05106" lon="2.0975">
        <ele>54.45</ele>
        <time>2013-12-15T15:37:55Z</time>
      </trkpt>
      <trkpt lat="49.05092" lon="2.09757">
        <ele>53.97</ele>
        <time>2013-12-15T15:38:18Z</time>
      </trkpt>
      <trkpt lat="49.05081" lon="2.09762">
        <ele>52.53</ele>
        <time>2013-12-15T15:40:42Z</time>
      </trkpt>
      <trkpt lat="49.05083" lon="2.0976">
        <ele>53.01</ele>
        <time>2013-12-15T15:40:45Z</time>
      </trkpt>
      <trkpt lat="49.0509" lon="2.09753">
        <ele>53.49</ele>
        <time>2013-12-15T15:41:00Z</time>
      </trkpt>
      <trkpt lat="49.05104" lon="2.09741">
        <ele>54.45</ele>
        <time>2013-12-15T15:41:18Z</time>
      </trkpt>
      <trkpt lat="49.05122" lon="2.09742">
        <ele>55.89</ele>
        <time>2013-12-15T15:41:32Z</time>
      </trkpt>
      <trkpt lat="49.0512" lon="2.09758">
        <ele>55.89</ele>
        <time>2013-12-15T15:41:47Z</time>
      </trkpt>
      <trkpt lat="49.05109" lon="2.09784">
        <ele>55.41</ele>
        <time>2013-12-15T15:42:04Z</time>
      </trkpt>
      <trkpt lat="49.05095" lon="2.09783">
        <ele>53.97</ele>
        <time>2013-12-15T15:42:21Z</time>
      </trkpt>
      <trkpt lat="49.05083" lon="2.09768">
        <ele>53.01</ele>
        <time>2013-12-15T15:42:39Z</time>
      </trkpt>
      <trkpt lat="49.05071" lon="2.09751">
        <ele>51.57</ele>
        <time>2013-12-15T15:43:46Z</time>
      </trkpt>
      <trkpt lat="49.05064" lon="2.09754">
        <ele>51.09</ele>
        <time>2013-12-15T15:44:06Z</time>
      </trkpt>
      <trkpt lat="49.05063" lon="2.09753">
        <ele>51.09</ele>
        <time>2013-12-15T15:44:20Z</time>
      </trkpt>
      <trkpt lat="49.05042" lon="2.09757">
        <ele>49.65</ele>
        <time>2013-12-15T15:44:54Z</time>
      </trkpt>
      <trkpt lat="49.05039" lon="2.09765">
        <ele>48.68</ele>
        <time>2013-12-15T15:45:01Z</time>
      </trkpt>
      <trkpt lat="49.05034" lon="2.0976">
        <ele>47.72</ele>
        <time>2013-12-15T15:45:17Z</time>
      </trkpt>
      <trkpt lat="49.05037" lon="2.09752">
        <ele>47.72</ele>
        <time>2013-12-15T15:45:32Z</time>
      </trkpt>
      <trkpt lat="49.05035" lon="2.09741">
        <ele>47.72</ele>
        <time>2013-12-15T15:45:41Z</time>
      </trkpt>
      <trkpt lat="49.05042" lon="2.09716">
        <ele>48.2</ele>
        <time>2013-12-15T15:45:56Z</time>
      </trkpt>
      <trkpt lat="49.05036" lon="2.09702">
        <ele>46.28</ele>
        <time>2013-12-15T15:46:11Z</time>
      </trkpt>
      <trkpt lat="49.05026" lon="2.09685">
        <ele>44.36</ele>
        <time>2013-12-15T15:46:26Z</time>
      </trkpt>
      <trkpt lat="49.05021" lon="2.09685">
        <ele>40.99</ele>
        <time>2013-12-15T15:46:40Z</time>
      </trkpt>
      <trkpt lat="49.05019" lon="2.09682">
        <ele>40.03</ele>
        <time>2013-12-15T15:46:45Z</time>
      </trkpt>
      <trkpt lat="49.05011" lon="2.09682">
        <ele>39.07</ele>
        <time>2013-12-15T15:47:00Z</time>
      </trkpt>
      <trkpt lat="49.05007" lon="2.0968">
        <ele>37.63</ele>
        <time>2013-12-15T15:47:13Z</time>
      </trkpt>
      <trkpt lat="49.05" lon="2.09677">
        <ele>36.19</ele>
        <time>2013-12-15T15:47:20Z</time>
      </trkpt>
      <trkpt lat="49.04979" lon="2.09667">
        <ele>32.34</ele>
        <time>2013-12-15T15:47:40Z</time>
      </trkpt>
      <trkpt lat="49.04964" lon="2.09655">
        <ele>29.94</ele>
        <time>2013-12-15T15:47:54Z</time>
      </trkpt>
      <trkpt lat="49.0495" lon="2.09651">
        <ele>28.02</ele>
        <time>2013-12-15T15:48:06Z</time>
      </trkpt>
      <trkpt lat="49.04942" lon="2.09648">
        <ele>27.05</ele>
        <time>2013-12-15T15:48:15Z</time>
      </trkpt>
      <trkpt lat="49.04938" lon="2.09641">
        <ele>27.05</ele>
        <time>2013-12-15T15:48:18Z</time>
      </trkpt>
      <trkpt lat="49.04931" lon="2.0964">
        <ele>26.57</ele>
        <time>2013-12-15T15:48:31Z</time>
      </trkpt>
      <trkpt lat="49.04922" lon="2.09644">
        <ele>26.57</ele>
        <time>2013-12-15T15:48:52Z</time>
      </trkpt>
      <trkpt lat="49.04915" lon="2.09641">
        <ele>26.09</ele>
        <time>2013-12-15T15:49:00Z</time>
      </trkpt>
      <trkpt lat="49.04893" lon="2.09636">
        <ele>25.61</ele>
        <time>2013-12-15T15:49:19Z</time>
      </trkpt>
      <trkpt lat="49.0488" lon="2.09619">
        <ele>24.65</ele>
        <time>2013-12-15T15:49:33Z</time>
      </trkpt>
      <trkpt lat="49.04874" lon="2.09618">
        <ele>24.65</ele>
        <time>2013-12-15T15:49:37Z</time>
      </trkpt>
      <trkpt lat="49.04871" lon="2.09613">
        <ele>24.65</ele>
        <time>2013-12-15T15:49:39Z</time>
      </trkpt>
      <trkpt lat="49.0487" lon="2.09612">
        <ele>24.17</ele>
        <time>2013-12-15T15:49:40Z</time>
      </trkpt>
      <trkpt lat="49.04859" lon="2.09609">
        <ele>23.69</ele>
        <time>2013-12-15T15:49:52Z</time>
      </trkpt>
      <trkpt lat="49.04837" lon="2.096">
        <ele>23.21</ele>
        <time>2013-12-15T15:50:08Z</time>
      </trkpt>
      <trkpt lat="49.04825" lon="2.09594">
        <ele>23.21</ele>
        <time>2013-12-15T15:50:21Z</time>
      </trkpt>
      <trkpt lat="49.04819" lon="2.0959">
        <ele>23.21</ele>
        <time>2013-12-15T15:50:31Z</time>
      </trkpt>
      <trkpt lat="49.04815" lon="2.09585">
        <ele>22.73</ele>
        <time>2013-12-15T15:50:35Z</time>
      </trkpt>
      <trkpt lat="49.048" lon="2.09572">
        <ele>22.25</ele>
        <time>2013-12-15T15:50:51Z</time>
      </trkpt>
      <trkpt lat="49.04787" lon="2.09565">
        <ele>22.25</ele>
        <time>2013-12-15T15:51:04Z</time>
      </trkpt>
      <trkpt lat="49.04786" lon="2.09567">
        <ele>22.25</ele>
        <time>2013-12-15T15:51:19Z</time>
      </trkpt>
      <trkpt lat="49.0478" lon="2.09567">
        <ele>21.77</ele>
        <time>2013-12-15T15:51:43Z</time>
      </trkpt>
    </trkseg>
  </trk>
</gpx>